[[{"header":{"parameterUnit":"m.s-1","parameterCategory":1,"la1":31.0,"la2":29.5877,"lo1":-88.7671,"lo2":-86.6584,"dy":0.0162,"dx":0.0185,"nx":115,"ny":88,"refTime":"2025-11-07T00:00:00:Z","depth":0,"parameterNumber":2,"parameterNumberName":"U-component_of_WINDS"},"data":[0.0,0.0,0.0,0.0,0.0,0.0,0.0,0.0,0.0,0.0,0.0,0.0,0.0,0.0,0.0,0.0,0.0,0.0,0.0,0.0,0.0,0.0,0.0,0.0,0.0,0.0,0.0,0.0,0.0,0.0,0.0,0.0,0.0,0.0,0.0,0.0,0.0,0.0,0.0,0.0,0.0,0.0,0.0,0.0,0.0,0.0,0.0,0.0,0.0,0.0,0.0,0.0,0.0,0.0,0.0,0.0,0.0,0.0,0.0,0.0,0.0,0.0,0.0,0.0,0.0,0.0,0.0,0.0,0.0,0.0,0.0,0.0,0.0,0.0,0.0,0.0,0.0,0.0,0.0,0.0,0.0,0.0,0.0,0.0,0.0,0.0,0.0,0.0,0.0,0.0,0.0,0.0,0.0,0.0,0.0,0.0,0.0,0.0,0.0,0.0,0.0,0.0,0.0,0.0,0.0,0.0,0.0,0.0,0.0,0.0,0.0,0.0,0.0,0.0,0.0,0.0,0.0,0.0,0.0,0.0,0.0,0.0,0.0,0.0,0.0,0.0,0.0,0.0,0.0,0.0,0.0,0.0,0.0,0.0,0.0,0.0,0.0,0.0,0.0,0.0,0.0,0.0,0.0,0.0,0.0,0.0,0.0,0.0,0.0,0.0,0.0,0.0,0.0,0.0,0.0,0.0,0.0,0.0,0.0,0.0,0.0,0.0,0.0,0.0,0.0,0.0,0.0,0.0,0.0,0.0,0.0,0.0,0.0,0.0,0.0,0.0,0.0,0.0,0.0,0.0,0.0,0.0,0.0,0.0,0.0,0.0,0.0,0.0,0.0,0.0,0.0,0.0,0.0,0.0,0.0,0.0,0.0,0.0,0.0,0.0,0.0,0.0,0.0,0.0,0.0,0.0,0.0,0.0,0.0,0.0,0.0,0.0,0.0,0.0,0.0,0.0,0.0,0.0,0.0,0.0,0.0,0.0,0.0,0.0,0.0,0.0,0.0,0.0,0.0,0.0,0.0,0.0,0.0,0.0,0.0,0.0,0.0,0.0,0.0,0.0,0.0,0.0,0.0,0.0,0.0,0.0,0.0,0.0,0.0,0.0,0.0,0.0,0.0,0.0,0.0,0.0,0.0,0.0,0.0,0.0,0.0,0.0,0.0,0.0,0.0,0.0,0.0,0.0,0.0,0.0,0.0,0.0,0.0,0.0,0.0,0.0,0.0,0.0,0.0,0.0,0.0,0.0,0.0,0.0,0.0,0.0,0.0,0.0,0.0,0.0,0.0,0.0,0.0,0.0,0.0,0.0,0.0,0.0,0.0,0.0,0.0,0.0,0.0,0.0,0.0,0.0,0.0,0.0,0.0,0.0,0.0,0.0,0.0,0.0,0.0,0.0,0.0,0.0,0.0,0.0,0.0,0.0,0.0,0.0,0.0,0.0,0.0,0.0,0.0,0.0,0.0,0.0,0.0,0.0,0.0,0.0,0.0,0.0,0.0,0.0,0.0,0.0,0.0,0.0,0.0,0.0,0.0,0.0,0.0,0.0,0.0,0.0,0.0,0.0,0.0,0.0,0.0,0.0,0.0,0.0,0.0,0.0,0.0,0.0,0.0,0.0,0.0,0.0,0.0,0.0,0.0,0.0,0.0,0.0,0.0,0.0,0.0,0.0,0.0,0.0,0.0,0.0,0.0,0.0,0.0,0.0,0.0,0.0,0.0,0.0,0.0,0.0,0.0,0.0,0.0,0.0,0.0,0.0,0.0,0.0,0.0,0.0,0.0,0.0,0.0,0.0,0.0,0.0,0.0,0.0,0.0,0.0,0.0,0.0,0.0,0.0,0.0,0.0,0.0,0.0,0.0,0.0,0.0,0.0,0.0,0.0,0.0,0.0,0.0,0.0,0.0,0.0,0.0,0.0,0.0,0.0,0.0,0.0,0.0,0.0,0.0,0.0,0.0,0.0,0.0,0.0,0.0,0.0,0.0,0.0,0.0,0.0,0.0,0.0,0.0,0.0,0.0,0.0,0.0,0.0,0.0,0.0,0.0,0.0,0.0,0.0,0.0,0.0,0.0,0.0,0.0,0.0,0.0,0.0,0.0,0.0,0.0,0.0,0.0,0.0,0.0,0.0,0.0,0.0,0.0,0.0,0.0,0.0,0.0,0.0,0.0,0.0,0.0,0.0,0.0,0.0,0.0,0.0,0.0,0.0,0.0,0.0,0.0,0.0,0.0,0.0,0.0,0.0,0.0,0.0,0.0,0.0,0.0,0.0,0.0,0.0,0.0,0.0,0.0,0.0,0.0,0.0,0.0,0.0,0.0,0.0,0.0,0.0,0.0,0.0,0.0,0.0,0.0,0.0,0.0,0.0,0.0,0.0,0.0,0.0,0.0,0.0,0.0,0.0,0.0,0.0,0.0,0.0,0.0,0.0,0.0,0.0,0.0,0.0,0.0,0.0,0.0,0.0,0.0,0.0,0.0,0.0,0.0,0.0,0.0,0.0,0.0,0.0,0.0,0.0,0.0,0.0,0.0,0.0,0.0,0.0,0.0,0.0,0.0,0.0,0.0,0.0,0.0,0.0,0.0,0.0,0.0,0.0,0.0,0.0,0.0,0.0,0.0,0.0,0.0,0.0,0.0,0.0,0.0,0.0,0.0,0.0,0.0,0.0,0.0,0.0,0.0,0.0,0.0,0.0,0.0,0.0,0.0,0.0,0.0,0.0,0.0,0.0,0.0,0.0,0.0,0.0,0.0,0.0,0.0,0.0,0.0,0.0,0.0,0.0,0.0,0.0,0.0,0.0,0.0,0.0,0.0,0.0,0.0,0.0,0.0,0.0,0.0,0.0,0.0,0.0,0.0,0.0,0.0,0.0,0.0,0.0,0.0,0.0,0.0,0.0,0.0,0.0,0.0,0.0,0.0,0.0,0.0,0.0,0.0,0.0,0.0,0.0,0.0,0.0,0.0,0.0,0.0,0.0,0.0,0.0,0.0,0.0,0.0,0.0,0.0,0.0,0.0,0.0,0.0,0.0,0.0,0.0,0.0,0.0,0.0,0.0,0.0,0.0,0.0,0.0,0.0,0.0,0.0,0.0,0.0,0.0,0.0,0.0,0.0,0.0,0.0,0.0,0.0,0.0,0.0,0.0,0.0,0.0,0.0,0.0,0.0,0.0,0.0,0.0,0.0,0.0,0.0,0.0,0.0,0.0,0.0,0.0,0.0,0.0,0.0,0.0,0.0,0.0,0.0,0.0,0.0,0.0,0.0,0.0,0.0,0.0,0.0,0.0,0.0,0.0,0.0,0.0,0.0,0.0,0.0,0.0,0.0,0.0,0.0,0.0,0.0,0.0,0.0,0.0,0.0,0.0,0.0,0.0,0.0,0.0,0.0,0.0,0.0,0.0,0.0,0.0,0.0,0.0,0.0,0.0,0.0,0.0,0.0,0.0,0.0,0.0,0.0,0.0,0.0,0.0,0.0,0.0,0.0,0.0,0.0,0.0,0.0,0.0,0.0,0.0,0.0,0.0,0.0,0.0,0.0,0.0,0.0,0.0,0.0,0.0,0.0,0.0,0.0,0.0,0.0,0.0,0.0,0.0,0.0,0.0,0.0,0.0,0.0,0.0,0.0,0.0,0.0,0.0,0.0,0.0,0.0,0.0,0.0,0.0,0.0,0.0,0.0,0.0,0.0,0.0,0.0,0.0,0.0,0.0,0.0,0.0,0.0,0.0,0.0,0.0,0.0,0.0,0.0,0.0,0.0,0.0,0.0,0.0,0.0,0.0,0.0,0.0,0.0,0.0,0.0,0.0,0.0,0.0,0.0,0.0,0.0,0.0,0.0,0.0,0.0,0.0,0.0,0.0,0.0,0.0,0.0,0.0,0.0,0.0,0.0,0.0,0.0,0.0,0.0,0.0,0.0,0.0,0.0,0.0,0.0,0.0,0.0,0.0,0.0,0.0,0.0,0.0,0.0,0.0,0.0,0.0,0.0,0.0,0.0,0.0,0.0,0.0,0.0,0.0,0.0,0.0,0.0,0.0,0.0,0.0,0.0,0.0,0.0,0.0,0.0,0.0,0.0,0.0,0.0,0.0,0.0,0.0,0.0,0.0,0.0,0.0,0.0,0.0,0.0,0.0,0.0,0.0,0.0,0.0,0.0,0.0,0.0,0.0,0.0,0.0,0.0,0.0,0.0,0.0,0.0,0.0,0.0,0.0,0.0,0.0,0.0,0.0,0.0,0.0,0.0,0.0,0.0,0.0,0.0,0.0,-2.4931,0.0,0.0,0.0,0.0,0.0,0.0,0.0,0.0,0.0,0.0,0.0,0.0,0.0,0.0,0.0,0.0,0.0,0.0,0.0,0.0,0.0,0.0,0.0,0.0,0.0,0.0,0.0,0.0,0.0,0.0,0.0,0.0,0.0,0.0,0.0,0.0,0.0,0.0,0.0,0.0,0.0,0.0,0.0,0.0,0.0,0.0,0.0,0.0,0.0,0.0,0.0,0.0,0.0,0.0,0.0,0.0,0.0,0.0,0.0,0.0,0.0,0.0,0.0,0.0,0.0,0.0,0.0,0.0,0.0,0.0,0.0,0.0,0.0,0.0,0.0,0.0,0.0,0.0,0.0,0.0,0.0,0.0,0.0,0.0,0.0,0.0,0.0,0.0,0.0,0.0,0.0,0.0,0.0,0.0,0.0,0.0,0.0,0.0,0.0,0.0,0.0,0.0,0.0,0.0,0.0,0.0,0.0,0.0,0.0,0.0,-2.5302,-2.5303,-2.5243,-2.5171,-2.5096,0.0,0.0,0.0,0.0,0.0,0.0,0.0,0.0,0.0,0.0,0.0,0.0,0.0,0.0,0.0,0.0,0.0,0.0,0.0,0.0,0.0,0.0,0.0,0.0,0.0,0.0,0.0,0.0,0.0,0.0,0.0,0.0,0.0,0.0,0.0,0.0,0.0,0.0,0.0,0.0,0.0,0.0,0.0,0.0,0.0,0.0,0.0,0.0,0.0,0.0,0.0,0.0,0.0,0.0,0.0,0.0,0.0,0.0,0.0,0.0,0.0,0.0,0.0,0.0,0.0,0.0,0.0,0.0,0.0,0.0,0.0,0.0,0.0,0.0,0.0,0.0,0.0,0.0,0.0,0.0,0.0,0.0,0.0,0.0,0.0,0.0,0.0,0.0,0.0,0.0,0.0,0.0,0.0,0.0,0.0,0.0,0.0,0.0,0.0,0.0,0.0,0.0,0.0,0.0,0.0,0.0,0.0,0.0,0.0,0.0,0.0,0.0,-2.5531,-2.5351,-2.5037,0.0,0.0,0.0,0.0,0.0,0.0,0.0,0.0,0.0,0.0,0.0,0.0,0.0,0.0,0.0,0.0,0.0,0.0,0.0,0.0,0.0,0.0,0.0,0.0,0.0,0.0,0.0,0.0,0.0,0.0,0.0,0.0,0.0,0.0,0.0,0.0,0.0,0.0,0.0,0.0,0.0,0.0,0.0,0.0,0.0,0.0,0.0,0.0,0.0,0.0,0.0,0.0,0.0,0.0,0.0,0.0,0.0,0.0,0.0,0.0,0.0,0.0,0.0,0.0,0.0,0.0,0.0,0.0,0.0,0.0,0.0,0.0,0.0,0.0,0.0,0.0,0.0,0.0,0.0,0.0,0.0,0.0,0.0,0.0,0.0,0.0,0.0,0.0,0.0,0.0,0.0,0.0,0.0,0.0,0.0,0.0,0.0,0.0,0.0,0.0,0.0,0.0,0.0,0.0,0.0,0.0,0.0,0.0,0.0,0.0,-2.6486,-2.6486,-2.6395,0.0,-2.4959,0.0,0.0,0.0,0.0,0.0,0.0,0.0,0.0,0.0,0.0,0.0,0.0,0.0,0.0,0.0,0.0,0.0,0.0,0.0,0.0,0.0,0.0,0.0,0.0,0.0,0.0,0.0,0.0,0.0,0.0,0.0,0.0,0.0,0.0,0.0,0.0,0.0,0.0,0.0,0.0,0.0,0.0,0.0,0.0,0.0,0.0,0.0,0.0,0.0,0.0,0.0,0.0,0.0,0.0,0.0,0.0,0.0,0.0,0.0,0.0,0.0,0.0,0.0,0.0,0.0,0.0,0.0,0.0,0.0,0.0,0.0,0.0,0.0,0.0,0.0,0.0,0.0,0.0,0.0,0.0,0.0,0.0,0.0,0.0,0.0,0.0,0.0,0.0,0.0,0.0,0.0,0.0,0.0,0.0,0.0,0.0,0.0,0.0,0.0,0.0,0.0,0.0,0.0,0.0,0.0,0.0,0.0,0.0,0.0,0.0,-2.6591,-2.6551,-2.6431,-2.6142,0.0,0.0,0.0,0.0,0.0,0.0,0.0,0.0,0.0,0.0,0.0,0.0,0.0,0.0,0.0,0.0,0.0,0.0,0.0,0.0,0.0,0.0,0.0,0.0,0.0,0.0,0.0,0.0,0.0,0.0,0.0,0.0,0.0,0.0,0.0,0.0,0.0,0.0,0.0,0.0,0.0,0.0,0.0,0.0,0.0,0.0,0.0,0.0,0.0,0.0,0.0,0.0,0.0,0.0,0.0,0.0,0.0,0.0,0.0,0.0,0.0,0.0,0.0,0.0,0.0,0.0,0.0,0.0,0.0,0.0,0.0,0.0,0.0,0.0,0.0,0.0,0.0,0.0,0.0,0.0,0.0,0.0,0.0,0.0,0.0,0.0,0.0,0.0,0.0,0.0,0.0,0.0,0.0,0.0,0.0,0.0,0.0,0.0,0.0,0.0,0.0,0.0,0.0,0.0,0.0,0.0,0.0,0.0,0.0,0.0,-2.6379,-2.6927,-2.6833,-2.6702,-2.6265,-2.5416,0.0,0.0,0.0,0.0,0.0,0.0,0.0,0.0,0.0,0.0,0.0,0.0,0.0,0.0,0.0,0.0,0.0,0.0,0.0,0.0,0.0,0.0,0.0,0.0,0.0,0.0,0.0,0.0,0.0,0.0,0.0,0.0,0.0,0.0,0.0,0.0,0.0,0.0,0.0,0.0,0.0,0.0,0.0,0.0,0.0,0.0,0.0,0.0,0.0,0.0,0.0,0.0,0.0,0.0,0.0,0.0,0.0,0.0,0.0,0.0,0.0,0.0,0.0,0.0,0.0,0.0,0.0,0.0,0.0,0.0,0.0,0.0,0.0,0.0,0.0,0.0,0.0,0.0,0.0,0.0,0.0,0.0,0.0,0.0,0.0,0.0,0.0,0.0,0.0,0.0,0.0,0.0,0.0,0.0,0.0,0.0,0.0,0.0,0.0,0.0,0.0,0.0,0.0,0.0,0.0,0.0,0.0,0.0,0.0,-2.6967,-2.778,-2.7668,-2.7567,-2.6308,0.0,0.0,0.0,0.0,0.0,0.0,0.0,0.0,0.0,0.0,0.0,0.0,0.0,0.0,0.0,0.0,0.0,0.0,0.0,0.0,0.0,0.0,0.0,0.0,0.0,0.0,0.0,0.0,0.0,0.0,0.0,0.0,0.0,0.0,0.0,0.0,0.0,0.0,0.0,0.0,0.0,0.0,0.0,0.0,0.0,0.0,0.0,0.0,0.0,0.0,0.0,0.0,0.0,0.0,0.0,0.0,0.0,0.0,0.0,0.0,0.0,0.0,0.0,0.0,0.0,0.0,0.0,0.0,0.0,0.0,0.0,0.0,0.0,0.0,0.0,0.0,0.0,0.0,0.0,0.0,0.0,0.0,0.0,0.0,0.0,0.0,0.0,0.0,0.0,0.0,0.0,0.0,0.0,0.0,0.0,0.0,0.0,0.0,0.0,0.0,0.0,0.0,0.0,0.0,0.0,0.0,0.0,0.0,0.0,-2.5379,-2.6963,-2.803,-2.8415,-2.7828,-2.6454,0.0,0.0,0.0,0.0,0.0,0.0,0.0,0.0,0.0,0.0,0.0,0.0,0.0,0.0,0.0,0.0,0.0,0.0,0.0,0.0,0.0,0.0,0.0,0.0,0.0,0.0,0.0,0.0,0.0,0.0,0.0,0.0,0.0,0.0,0.0,0.0,0.0,0.0,0.0,0.0,0.0,0.0,0.0,0.0,0.0,0.0,0.0,0.0,0.0,0.0,0.0,0.0,0.0,0.0,0.0,0.0,0.0,0.0,0.0,0.0,0.0,0.0,0.0,0.0,0.0,0.0,0.0,0.0,0.0,0.0,0.0,0.0,0.0,0.0,0.0,0.0,0.0,0.0,0.0,0.0,0.0,0.0,0.0,0.0,0.0,0.0,0.0,0.0,0.0,0.0,0.0,0.0,0.0,0.0,0.0,0.0,0.0,0.0,0.0,0.0,0.0,0.0,0.0,0.0,0.0,0.0,0.0,0.0,0.0,-2.6115,0.0,-2.8288,0.0,-2.7785,-2.628,0.0,0.0,0.0,0.0,0.0,0.0,0.0,0.0,0.0,0.0,0.0,0.0,0.0,0.0,0.0,0.0,0.0,0.0,0.0,0.0,0.0,0.0,0.0,0.0,0.0,0.0,0.0,0.0,0.0,0.0,0.0,0.0,0.0,0.0,0.0,0.0,0.0,0.0,0.0,0.0,0.0,0.0,0.0,0.0,0.0,0.0,0.0,0.0,0.0,0.0,0.0,0.0,0.0,0.0,0.0,0.0,0.0,0.0,0.0,0.0,0.0,0.0,0.0,0.0,0.0,0.0,0.0,0.0,0.0,0.0,0.0,0.0,0.0,0.0,0.0,0.0,0.0,0.0,0.0,0.0,0.0,0.0,0.0,0.0,0.0,0.0,0.0,0.0,0.0,0.0,0.0,0.0,0.0,0.0,0.0,0.0,0.0,0.0,0.0,0.0,0.0,0.0,0.0,0.0,0.0,0.0,0.0,0.0,-2.5249,-2.7685,-2.8549,-2.8574,-2.7684,-2.7513,-2.5752,0.0,0.0,0.0,0.0,0.0,0.0,0.0,0.0,0.0,0.0,0.0,0.0,0.0,0.0,0.0,0.0,0.0,0.0,0.0,0.0,0.0,0.0,0.0,0.0,0.0,0.0,0.0,0.0,0.0,0.0,0.0,0.0,0.0,0.0,0.0,0.0,0.0,0.0,0.0,0.0,0.0,0.0,0.0,0.0,0.0,0.0,0.0,0.0,0.0,0.0,0.0,0.0,0.0,0.0,0.0,0.0,0.0,0.0,0.0,0.0,0.0,0.0,0.0,0.0,0.0,0.0,0.0,0.0,0.0,0.0,0.0,0.0,0.0,0.0,0.0,0.0,0.0,0.0,0.0,0.0,0.0,0.0,0.0,0.0,0.0,0.0,0.0,0.0,0.0,0.0,0.0,0.0,0.0,0.0,0.0,0.0,0.0,0.0,0.0,0.0,0.0,0.0,0.0,0.0,0.0,0.0,0.0,0.0,0.0,-2.8587,-2.8862,-2.9115,-2.9284,-2.8029,-2.5932,0.0,0.0,0.0,0.0,0.0,0.0,0.0,0.0,0.0,0.0,0.0,0.0,0.0,0.0,0.0,0.0,0.0,0.0,0.0,0.0,0.0,0.0,0.0,0.0,0.0,0.0,0.0,0.0,0.0,0.0,0.0,0.0,0.0,0.0,0.0,0.0,0.0,0.0,0.0,0.0,0.0,0.0,0.0,0.0,0.0,0.0,0.0,0.0,0.0,0.0,0.0,0.0,0.0,0.0,0.0,0.0,0.0,0.0,0.0,0.0,0.0,0.0,0.0,0.0,0.0,0.0,0.0,0.0,0.0,0.0,0.0,0.0,0.0,0.0,0.0,0.0,0.0,0.0,0.0,0.0,0.0,0.0,0.0,0.0,0.0,0.0,0.0,0.0,0.0,0.0,0.0,0.0,0.0,0.0,0.0,0.0,0.0,0.0,0.0,0.0,0.0,0.0,0.0,0.0,0.0,0.0,0.0,0.0,0.0,-3.0204,-3.0338,-3.0405,-3.051,-2.8733,-2.6349,-2.3396,0.0,0.0,0.0,0.0,0.0,0.0,0.0,0.0,0.0,0.0,0.0,0.0,0.0,0.0,0.0,0.0,0.0,0.0,0.0,0.0,0.0,0.0,0.0,0.0,0.0,0.0,0.0,0.0,0.0,0.0,0.0,0.0,0.0,0.0,0.0,0.0,0.0,0.0,0.0,0.0,0.0,0.0,0.0,0.0,0.0,0.0,0.0,0.0,0.0,0.0,0.0,0.0,0.0,0.0,0.0,0.0,0.0,0.0,0.0,0.0,0.0,0.0,0.0,0.0,0.0,0.0,0.0,0.0,0.0,0.0,0.0,0.0,0.0,0.0,0.0,0.0,0.0,0.0,0.0,0.0,0.0,0.0,0.0,0.0,0.0,0.0,0.0,0.0,0.0,0.0,0.0,0.0,0.0,0.0,0.0,0.0,0.0,0.0,0.0,0.0,0.0,0.0,0.0,0.0,0.0,0.0,0.0,0.0,-3.2387,-3.273,-3.2403,-3.145,-2.9683,-2.7031,0.0,0.0,0.0,0.0,0.0,0.0,0.0,0.0,0.0,0.0,0.0,0.0,0.0,0.0,0.0,0.0,0.0,0.0,0.0,0.0,0.0,0.0,0.0,0.0,0.0,0.0,0.0,0.0,0.0,0.0,0.0,0.0,0.0,0.0,0.0,0.0,0.0,0.0,0.0,0.0,0.0,0.0,0.0,0.0,0.0,0.0,0.0,0.0,0.0,0.0,0.0,0.0,0.0,0.0,0.0,0.0,0.0,0.0,0.0,0.0,0.0,0.0,0.0,0.0,0.0,0.0,0.0,0.0,0.0,0.0,0.0,0.0,0.0,0.0,0.0,0.0,0.0,0.0,0.0,0.0,0.0,0.0,0.0,0.0,0.0,0.0,0.0,0.0,0.0,0.0,0.0,0.0,0.0,0.0,0.0,0.0,0.0,0.0,0.0,0.0,0.0,0.0,0.0,0.0,0.0,0.0,0.0,0.0,0.0,-3.2833,-3.4216,-3.4563,-3.3828,-3.1392,-2.8743,0.0,0.0,0.0,0.0,0.0,0.0,0.0,0.0,0.0,0.0,0.0,0.0,0.0,0.0,0.0,0.0,0.0,0.0,0.0,0.0,0.0,0.0,0.0,0.0,0.0,0.0,0.0,0.0,0.0,0.0,0.0,0.0,0.0,0.0,0.0,0.0,0.0,0.0,0.0,0.0,0.0,0.0,0.0,0.0,0.0,0.0,0.0,0.0,0.0,0.0,0.0,0.0,0.0,0.0,0.0,0.0,0.0,0.0,0.0,0.0,0.0,0.0,0.0,0.0,0.0,0.0,0.0,0.0,0.0,0.0,0.0,0.0,0.0,0.0,0.0,0.0,0.0,0.0,0.0,0.0,0.0,0.0,0.0,0.0,0.0,0.0,0.0,0.0,0.0,0.0,0.0,0.0,0.0,0.0,0.0,0.0,0.0,0.0,0.0,0.0,0.0,0.0,0.0,0.0,0.0,0.0,0.0,0.0,-3.0425,-3.3431,-3.5125,-3.5837,-3.5584,-3.2673,-2.972,0.0,0.0,0.0,0.0,0.0,0.0,0.0,0.0,0.0,0.0,0.0,0.0,0.0,0.0,0.0,0.0,0.0,0.0,0.0,0.0,0.0,0.0,0.0,0.0,0.0,0.0,0.0,0.0,0.0,0.0,0.0,0.0,0.0,0.0,0.0,0.0,0.0,0.0,0.0,0.0,0.0,0.0,0.0,0.0,0.0,0.0,0.0,0.0,0.0,0.0,0.0,0.0,0.0,0.0,0.0,0.0,0.0,0.0,0.0,0.0,0.0,0.0,0.0,0.0,0.0,0.0,0.0,0.0,0.0,0.0,0.0,0.0,0.0,0.0,0.0,0.0,0.0,0.0,0.0,0.0,0.0,0.0,0.0,0.0,0.0,0.0,0.0,0.0,0.0,0.0,0.0,0.0,0.0,0.0,0.0,0.0,0.0,0.0,0.0,0.0,0.0,0.0,0.0,0.0,0.0,0.0,0.0,0.0,-3.0432,-3.3968,-3.5404,-3.6251,-3.6482,-3.3594,-3.0383,0.0,0.0,0.0,0.0,0.0,0.0,0.0,0.0,0.0,0.0,0.0,0.0,0.0,0.0,0.0,0.0,0.0,0.0,0.0,0.0,0.0,0.0,0.0,0.0,0.0,0.0,0.0,0.0,0.0,0.0,0.0,0.0,0.0,0.0,0.0,0.0,0.0,0.0,0.0,0.0,0.0,0.0,0.0,0.0,0.0,0.0,0.0,0.0,0.0,0.0,0.0,0.0,0.0,0.0,0.0,0.0,0.0,0.0,0.0,0.0,0.0,0.0,0.0,0.0,0.0,0.0,0.0,0.0,0.0,0.0,0.0,0.0,0.0,0.0,0.0,0.0,0.0,0.0,0.0,0.0,0.0,0.0,0.0,0.0,0.0,0.0,0.0,0.0,0.0,0.0,0.0,0.0,0.0,0.0,0.0,0.0,0.0,0.0,0.0,0.0,0.0,0.0,0.0,0.0,0.0,0.0,0.0,0.0,-3.0366,-3.3512,-3.4416,-3.5102,-3.5745,-3.4156,-3.1744,0.0,0.0,0.0,0.0,0.0,0.0,0.0,0.0,0.0,0.0,0.0,0.0,0.0,0.0,0.0,0.0,0.0,0.0,0.0,0.0,0.0,0.0,0.0,0.0,0.0,0.0,0.0,0.0,0.0,0.0,0.0,0.0,0.0,0.0,0.0,0.0,0.0,0.0,0.0,0.0,0.0,0.0,0.0,0.0,0.0,0.0,0.0,0.0,-1.7124,0.0,0.0,0.0,0.0,0.0,0.0,0.0,0.0,0.0,0.0,0.0,0.0,0.0,0.0,0.0,0.0,0.0,0.0,0.0,0.0,0.0,0.0,0.0,0.0,0.0,0.0,0.0,0.0,0.0,0.0,0.0,0.0,0.0,0.0,0.0,0.0,0.0,0.0,0.0,0.0,0.0,0.0,0.0,0.0,0.0,0.0,0.0,0.0,0.0,0.0,0.0,0.0,0.0,0.0,0.0,0.0,0.0,0.0,0.0,-3.0059,-3.2844,-3.3892,-3.4573,-3.4916,-3.3767,-3.1788,0.0,0.0,0.0,0.0,0.0,0.0,0.0,0.0,0.0,0.0,0.0,0.0,0.0,0.0,0.0,0.0,0.0,0.0,0.0,0.0,0.0,0.0,0.0,0.0,0.0,0.0,0.0,0.0,0.0,0.0,0.0,0.0,0.0,0.0,0.0,0.0,0.0,0.0,0.0,0.0,0.0,0.0,0.0,0.0,0.0,0.0,0.0,0.0,0.0,0.0,0.0,0.0,0.0,0.0,0.0,0.0,0.0,0.0,0.0,0.0,0.0,0.0,0.0,0.0,0.0,0.0,0.0,0.0,0.0,0.0,0.0,0.0,0.0,0.0,0.0,0.0,0.0,0.0,0.0,0.0,0.0,0.0,0.0,0.0,0.0,0.0,0.0,0.0,0.0,0.0,0.0,0.0,0.0,0.0,0.0,0.0,0.0,0.0,0.0,0.0,0.0,0.0,0.0,0.0,0.0,0.0,0.0,-2.7715,-2.9796,-3.2232,-3.341,-3.4042,-3.4181,-3.2861,-3.1073,-2.8692,0.0,0.0,0.0,0.0,0.0,0.0,0.0,0.0,0.0,0.0,0.0,0.0,0.0,0.0,0.0,0.0,0.0,0.0,0.0,0.0,0.0,0.0,0.0,0.0,0.0,0.0,0.0,0.0,0.0,0.0,0.0,0.0,0.0,0.0,0.0,0.0,0.0,0.0,-1.5205,-1.6572,0.0,0.0,0.0,0.0,0.0,0.0,0.0,0.0,-1.8016,0.0,0.0,0.0,0.0,0.0,0.0,0.0,0.0,0.0,0.0,0.0,0.0,0.0,0.0,0.0,0.0,0.0,0.0,0.0,0.0,0.0,0.0,0.0,0.0,0.0,0.0,0.0,0.0,0.0,0.0,0.0,0.0,0.0,0.0,0.0,0.0,0.0,0.0,0.0,0.0,0.0,0.0,0.0,0.0,0.0,0.0,0.0,0.0,0.0,0.0,0.0,0.0,0.0,0.0,0.0,0.0,-2.6268,-2.7885,-2.9837,-3.2224,-3.2239,-3.2527,-3.3157,-3.1558,-2.9833,-2.7982,0.0,0.0,0.0,0.0,0.0,0.0,0.0,0.0,0.0,0.0,0.0,0.0,0.0,0.0,0.0,0.0,0.0,0.0,0.0,0.0,0.0,0.0,0.0,0.0,0.0,0.0,0.0,0.0,0.0,0.0,0.0,0.0,0.0,0.0,0.0,0.0,0.0,0.0,0.0,-1.7601,-1.8103,0.0,0.0,0.0,0.0,0.0,0.0,0.0,0.0,-1.8329,0.0,0.0,0.0,0.0,0.0,0.0,0.0,0.0,0.0,0.0,0.0,0.0,0.0,0.0,0.0,0.0,0.0,0.0,0.0,0.0,0.0,0.0,0.0,0.0,0.0,0.0,0.0,0.0,0.0,0.0,0.0,0.0,0.0,0.0,0.0,0.0,0.0,0.0,0.0,0.0,0.0,0.0,0.0,0.0,0.0,0.0,0.0,0.0,0.0,0.0,0.0,0.0,0.0,0.0,0.0,-2.5623,-2.7448,-2.9281,-3.1215,-3.1606,-3.1998,-3.2345,-3.1014,-2.9248,0.0,0.0,0.0,0.0,0.0,0.0,0.0,0.0,0.0,0.0,0.0,0.0,0.0,0.0,0.0,0.0,0.0,0.0,0.0,0.0,0.0,0.0,0.0,0.0,0.0,0.0,0.0,0.0,0.0,0.0,0.0,0.0,0.0,0.0,0.0,0.0,0.0,0.0,0.0,0.0,-1.8957,-1.9585,-1.9874,0.0,0.0,0.0,0.0,0.0,0.0,-2.0049,-1.9798,0.0,0.0,0.0,0.0,0.0,0.0,0.0,0.0,0.0,0.0,0.0,0.0,0.0,0.0,0.0,0.0,0.0,0.0,0.0,0.0,0.0,0.0,0.0,0.0,0.0,0.0,0.0,0.0,0.0,0.0,0.0,0.0,0.0,0.0,0.0,0.0,0.0,0.0,0.0,0.0,0.0,0.0,0.0,0.0,0.0,0.0,0.0,0.0,0.0,0.0,0.0,0.0,0.0,0.0,0.0,-2.498,-2.6872,-2.8625,-3.0227,-3.1094,-3.1568,-3.1662,-3.0417,-2.8689,0.0,0.0,0.0,0.0,0.0,0.0,0.0,0.0,0.0,0.0,0.0,0.0,0.0,0.0,0.0,0.0,0.0,0.0,0.0,0.0,0.0,0.0,0.0,0.0,0.0,0.0,0.0,0.0,0.0,0.0,0.0,0.0,0.0,0.0,0.0,0.0,0.0,0.0,0.0,0.0,0.0,-2.1041,-2.1581,-2.1656,0.0,0.0,0.0,0.0,-2.1167,-2.1732,0.0,0.0,0.0,0.0,0.0,0.0,0.0,0.0,0.0,0.0,0.0,0.0,0.0,0.0,0.0,0.0,0.0,0.0,0.0,0.0,0.0,0.0,0.0,0.0,0.0,0.0,0.0,0.0,0.0,0.0,0.0,0.0,0.0,0.0,0.0,0.0,0.0,0.0,0.0,0.0,0.0,0.0,0.0,0.0,0.0,0.0,0.0,0.0,0.0,0.0,0.0,0.0,0.0,0.0,0.0,0.0,-2.4784,-2.636,-2.8184,-3.0168,-3.0402,-3.0707,-3.1218,-2.9293,-2.7486,0.0,0.0,0.0,0.0,0.0,0.0,0.0,0.0,0.0,0.0,0.0,0.0,0.0,0.0,0.0,0.0,0.0,0.0,0.0,0.0,0.0,0.0,0.0,0.0,0.0,0.0,0.0,0.0,0.0,0.0,0.0,0.0,0.0,0.0,0.0,0.0,0.0,0.0,0.0,0.0,0.0,-2.1594,-2.2146,-2.2221,-2.2196,0.0,0.0,-2.2849,-2.2849,-2.374,0.0,0.0,0.0,0.0,0.0,0.0,0.0,0.0,0.0,0.0,0.0,0.0,0.0,0.0,0.0,0.0,0.0,0.0,0.0,0.0,0.0,0.0,0.0,0.0,0.0,0.0,0.0,0.0,0.0,0.0,0.0,0.0,0.0,0.0,0.0,0.0,0.0,0.0,0.0,0.0,0.0,0.0,0.0,0.0,0.0,0.0,0.0,0.0,0.0,0.0,0.0,0.0,0.0,0.0,0.0,-2.1247,-2.3656,-2.5695,-2.7517,-2.9183,-2.9543,-2.9945,-3.0581,-2.8401,-2.6335,0.0,0.0,0.0,0.0,0.0,0.0,0.0,0.0,0.0,0.0,0.0,0.0,0.0,0.0,0.0,0.0,0.0,0.0,0.0,0.0,0.0,0.0,0.0,0.0,0.0,0.0,0.0,0.0,0.0,0.0,0.0,0.0,0.0,0.0,0.0,0.0,0.0,0.0,0.0,0.0,0.0,0.0,-2.3201,-2.3791,0.0,0.0,0.0,-2.4519,-2.4531,0.0,0.0,0.0,0.0,0.0,0.0,0.0,0.0,0.0,0.0,0.0,0.0,0.0,0.0,0.0,0.0,0.0,0.0,0.0,0.0,0.0,0.0,0.0,0.0,0.0,0.0,0.0,0.0,0.0,0.0,0.0,0.0,0.0,0.0,0.0,0.0,0.0,0.0,0.0,0.0,0.0,0.0,0.0,0.0,0.0,0.0,0.0,0.0,0.0,0.0,0.0,0.0,0.0,0.0,0.0,0.0,0.0,-2.2761,-2.493,-2.6645,-2.7885,-2.8443,-2.9022,-2.9563,-2.7535,0.0,0.0,0.0,0.0,0.0,0.0,0.0,0.0,0.0,0.0,0.0,0.0,0.0,0.0,0.0,0.0,0.0,0.0,0.0,0.0,0.0,0.0,0.0,0.0,0.0,0.0,0.0,-1.0982,0.0,0.0,0.0,0.0,0.0,0.0,0.0,0.0,0.0,0.0,0.0,0.0,0.0,0.0,-2.3541,-2.4166,-2.5078,-2.5578,0.0,0.0,-2.5677,-2.5824,-2.5724,-2.5056,0.0,0.0,0.0,0.0,0.0,0.0,0.0,0.0,0.0,0.0,0.0,0.0,0.0,0.0,0.0,0.0,0.0,0.0,0.0,0.0,0.0,0.0,0.0,0.0,0.0,0.0,0.0,0.0,0.0,0.0,0.0,0.0,0.0,0.0,0.0,0.0,0.0,0.0,0.0,0.0,0.0,0.0,0.0,0.0,0.0,0.0,0.0,0.0,0.0,0.0,0.0,0.0,0.0,0.0,0.0,-2.2664,-2.4043,-2.5348,-2.6598,-2.7148,-2.7705,-2.8285,-2.657,-2.4871,0.0,0.0,0.0,0.0,0.0,0.0,0.0,0.0,0.0,0.0,0.0,0.0,0.0,0.0,0.0,0.0,0.0,0.0,0.0,0.0,0.0,0.0,0.0,0.0,0.0,0.0,0.0,0.0,0.0,0.0,0.0,0.0,0.0,0.0,0.0,0.0,0.0,0.0,0.0,0.0,0.0,-2.4027,-2.4937,-2.5536,-2.6148,0.0,0.0,-2.5975,-2.6402,-2.7218,-2.6909,-2.4089,0.0,0.0,0.0,0.0,0.0,0.0,0.0,0.0,0.0,0.0,0.0,0.0,0.0,0.0,0.0,0.0,0.0,0.0,0.0,0.0,0.0,0.0,0.0,0.0,0.0,0.0,0.0,0.0,0.0,0.0,0.0,0.0,0.0,0.0,0.0,0.0,0.0,0.0,0.0,0.0,0.0,0.0,0.0,0.0,0.0,0.0,0.0,0.0,0.0,0.0,0.0,0.0,0.0,-2.0468,-2.2054,-2.3759,-2.5046,-2.5843,-2.6029,-2.6408,-2.7016,-2.5102,-2.3537,0.0,0.0,0.0,0.0,0.0,0.0,0.0,0.0,0.0,0.0,0.0,0.0,0.0,0.0,0.0,0.0,0.0,0.0,0.0,0.0,0.0,0.0,0.0,0.0,0.0,0.0,0.0,0.0,-1.3862,-1.4026,-1.384,0.0,0.0,0.0,0.0,0.0,0.0,0.0,0.0,0.0,0.0,-2.312,-2.3537,-2.435,0.0,0.0,-2.495,-2.5116,-2.5492,-2.535,-2.48,-2.3574,-2.2123,0.0,0.0,0.0,0.0,0.0,0.0,0.0,0.0,0.0,0.0,0.0,0.0,0.0,0.0,0.0,0.0,0.0,0.0,0.0,0.0,0.0,0.0,0.0,0.0,0.0,0.0,0.0,0.0,0.0,0.0,0.0,0.0,0.0,0.0,0.0,0.0,0.0,0.0,0.0,0.0,0.0,0.0,0.0,0.0,0.0,0.0,0.0,0.0,0.0,0.0,0.0,0.0,-2.0348,-2.168,-2.343,-2.4519,-2.4906,-2.5049,-2.5285,-2.5671,-2.4228,-2.2936,0.0,0.0,0.0,0.0,0.0,0.0,0.0,0.0,0.0,0.0,0.0,0.0,0.0,0.0,0.0,0.0,0.0,0.0,0.0,0.0,0.0,0.0,0.0,0.0,0.0,0.0,0.0,0.0,-1.41,-1.4121,-1.3517,0.0,0.0,0.0,0.0,0.0,0.0,0.0,0.0,0.0,0.0,-2.2542,-2.2728,-2.3505,-2.4047,-2.3996,-2.3932,-2.4097,-2.4716,-2.3956,-2.319,-2.2855,0.0,0.0,0.0,0.0,0.0,0.0,0.0,0.0,0.0,0.0,0.0,0.0,0.0,0.0,0.0,0.0,0.0,0.0,0.0,0.0,0.0,0.0,0.0,0.0,0.0,0.0,0.0,-2.176,0.0,0.0,-1.9149,0.0,0.0,0.0,0.0,0.0,0.0,0.0,0.0,0.0,0.0,0.0,0.0,0.0,0.0,0.0,0.0,0.0,0.0,0.0,0.0,0.0,0.0,-2.0363,-2.1695,-2.2981,-2.3625,-2.3668,-2.4131,-2.4436,-2.4461,-2.4191,-2.3306,-2.1733,0.0,0.0,0.0,0.0,0.0,0.0,0.0,0.0,0.0,0.0,0.0,0.0,0.0,0.0,0.0,0.0,0.0,0.0,0.0,0.0,0.0,0.0,0.0,0.0,0.0,0.0,-1.3156,-1.3362,-1.3454,0.0,0.0,0.0,0.0,0.0,0.0,0.0,0.0,0.0,0.0,-2.0796,-2.2617,-2.2944,-2.3437,-2.404,-2.4859,-2.3851,-2.3282,-2.41,-2.3559,-2.2818,0.0,0.0,0.0,0.0,0.0,0.0,0.0,0.0,0.0,0.0,0.0,0.0,0.0,0.0,0.0,0.0,0.0,0.0,0.0,0.0,0.0,0.0,0.0,0.0,0.0,0.0,0.0,-2.5646,-2.5141,0.0,0.0,0.0,0.0,0.0,0.0,0.0,0.0,0.0,0.0,0.0,-2.5595,-2.5889,0.0,0.0,0.0,0.0,0.0,0.0,0.0,0.0,0.0,0.0,0.0,0.0,-2.0812,-2.1695,-2.2951,-2.3595,-2.3595,-2.3794,-2.3879,-2.3864,-2.3422,-2.2309,-2.0482,0.0,0.0,0.0,0.0,0.0,0.0,0.0,0.0,0.0,0.0,0.0,0.0,0.0,0.0,0.0,0.0,0.0,0.0,0.0,0.0,0.0,0.0,0.0,0.0,0.0,-1.3556,0.0,0.0,0.0,0.0,0.0,0.0,0.0,0.0,0.0,0.0,0.0,-1.8071,-1.9323,-2.069,-2.1525,-2.1451,-2.1781,-2.2094,0.0,0.0,0.0,0.0,0.0,0.0,0.0,0.0,0.0,0.0,0.0,0.0,0.0,0.0,-2.0632,-1.9104,-1.8711,-1.8493,-1.8057,0.0,0.0,0.0,0.0,0.0,0.0,0.0,0.0,0.0,0.0,0.0,0.0,0.0,0.0,-2.8613,-2.7691,-2.6859,0.0,0.0,0.0,0.0,0.0,0.0,0.0,0.0,-2.8619,-2.9009,-2.8323,-2.8404,-2.7759,0.0,-2.4839,-2.2823,0.0,0.0,0.0,0.0,0.0,0.0,0.0,0.0,-2.1156,-2.2039,-2.3071,-2.3595,-2.3595,-2.3595,-2.3595,-2.358,-2.2996,-2.1989,-2.0512,-1.9226,-1.7917,0.0,0.0,0.0,0.0,0.0,0.0,0.0,0.0,0.0,0.0,0.0,0.0,0.0,0.0,0.0,0.0,0.0,0.0,0.0,0.0,0.0,0.0,0.0,-1.397,0.0,0.0,0.0,0.0,0.0,0.0,0.0,0.0,0.0,-1.63,-1.7492,-1.8782,-1.9716,-2.0482,-2.0876,-2.0644,0.0,0.0,0.0,0.0,0.0,0.0,0.0,-2.0687,-2.0903,-2.0866,-2.1002,-2.1603,-2.2076,-2.2428,-2.2418,0.0,0.0,-2.0222,-1.9849,-1.9631,-1.9204,-1.9383,-1.9718,-2.0249,-2.0576,-2.0881,0.0,0.0,0.0,0.0,0.0,0.0,0.0,0.0,-3.2166,-3.1492,0.0,-2.9976,0.0,0.0,0.0,0.0,-2.4873,-2.8238,0.0,0.0,-3.1347,-3.2015,-3.1209,-3.0307,-2.9465,-2.8653,-2.6856,-2.5546,-2.4596,-2.0805,0.0,0.0,0.0,0.0,0.0,0.0,-2.141,-2.2637,-2.3281,-2.3595,-2.3595,-2.3595,-2.3595,-2.3537,-2.2939,-2.2327,-2.1685,-2.04,-1.9101,-1.7802,-1.6365,0.0,0.0,0.0,0.0,0.0,0.0,0.0,0.0,0.0,0.0,0.0,0.0,0.0,0.0,0.0,0.0,0.0,0.0,0.0,0.0,-1.3836,0.0,0.0,0.0,0.0,0.0,0.0,0.0,0.0,0.0,0.0,-1.682,-1.8405,-1.9525,-1.9555,0.0,0.0,0.0,0.0,-2.0586,-2.0596,-2.0605,-2.0615,-2.0625,-2.0781,-2.0771,-2.0693,0.0,0.0,-2.2381,-2.2625,-2.2798,-2.2798,-2.2645,-2.2231,-2.1391,-2.1176,-2.1135,-2.0903,-2.0923,-2.1192,-2.1725,-2.1706,-2.1691,-3.8239,0.0,0.0,0.0,0.0,-3.3522,-3.4514,-3.581,-3.5725,-3.4924,-3.3711,-3.3372,0.0,0.0,0.0,0.0,0.0,0.0,-3.0303,-3.0725,-3.243,-3.2562,-3.1388,-3.1665,-3.0973,-2.9349,-2.8297,-2.7255,-2.6021,-2.3939,-2.2178,-2.0712,0.0,0.0,0.0,0.0,-2.2211,-2.2697,-2.3281,-2.3595,-2.3595,-2.3595,-2.3363,-2.2965,-2.1912,-2.144,-2.1685,-2.0857,-2.002,-1.9146,-1.7841,0.0,0.0,0.0,0.0,0.0,0.0,0.0,0.0,0.0,0.0,0.0,0.0,0.0,0.0,0.0,0.0,0.0,0.0,0.0,-1.4024,-1.4672,-1.4766,0.0,0.0,0.0,0.0,0.0,0.0,0.0,0.0,0.0,-1.8921,-1.9216,-1.9585,0.0,0.0,-2.0576,-2.0576,-2.083,-2.1045,-2.1045,-2.1309,0.0,-2.1504,-2.1595,-2.1585,-2.1504,-2.1948,-2.2271,-2.2473,-2.2739,-2.3021,-2.3021,-2.2945,-2.2808,-2.2621,-2.2036,-2.175,-2.166,-2.1878,-2.2116,-2.2254,-2.2512,-2.2636,-4.1378,-3.902,-3.6928,-3.6285,-3.6597,-3.6842,-3.75,-3.8391,-3.8238,-3.736,-3.6079,-3.591,-3.4523,-3.2232,-3.1625,0.0,0.0,0.0,-3.1297,-3.1797,-3.2692,-3.2704,-3.1913,-3.2072,-3.1268,-2.9648,-2.9175,-2.8293,-2.6976,-2.5929,-2.4563,-2.298,0.0,0.0,-2.1006,-2.1554,-2.1975,-2.2294,-2.2893,-2.3231,-2.3246,-2.3231,-2.2965,-2.2331,-2.1551,-2.1213,-2.1318,-2.0981,-2.0315,-1.9402,-1.8347,-1.7054,0.0,0.0,0.0,0.0,0.0,0.0,0.0,0.0,0.0,0.0,0.0,-1.1429,-1.2178,0.0,0.0,0.0,-1.3939,-1.4499,-1.5006,-1.5625,0.0,0.0,0.0,0.0,0.0,0.0,0.0,-1.7524,-1.8605,-1.9443,-1.9853,-2.0,-2.0254,-2.0762,-2.084,-2.083,-2.082,0.0,-2.1494,-2.1494,-2.1719,-2.1894,-2.1894,-2.2031,-2.2187,-2.2363,-2.2598,-2.2764,-2.2764,-2.2978,-2.3135,-2.3144,-2.3144,-2.3144,-2.3144,-2.2715,-2.2383,-2.2393,-2.2578,-2.2754,-2.2764,-2.2959,-2.3144,-4.3504,-4.3267,-4.0747,-3.9572,-3.9423,-4.0002,-3.9834,-3.9242,-3.9884,-3.8954,-3.7043,-3.7702,-3.7114,-3.5605,-3.4082,0.0,-3.0497,-3.1813,-3.2419,-3.252,-3.256,-3.2532,-3.2477,-3.1781,-3.0881,-2.9654,-2.9609,-2.8921,-2.7715,-2.6976,-2.6208,-2.5306,-2.3059,-2.1871,-2.1726,-2.1178,-2.1125,-2.1697,-2.23,-2.2603,-2.2649,-2.2558,-2.2253,-2.1663,-2.1513,-2.1239,-2.0745,-2.0694,-2.0144,-1.8975,-1.8181,-1.7221,-1.6002,0.0,0.0,0.0,0.0,0.0,0.0,0.0,0.0,0.0,0.0,0.0,0.0,0.0,0.0,0.0,-1.5587,0.0,-1.609,-1.6593,0.0,0.0,0.0,-1.6859,-1.6997,-1.7386,-1.7842,-1.8652,0.0,0.0,-1.9961,-2.0693,-2.1191,-2.124,-2.1179,-2.1279,-2.124,-2.1631,-2.1934,-2.1934,-2.1982,-2.2002,-2.208,-2.2344,-2.2666,-2.2998,-2.3144,-2.3115,-2.3115,-2.3038,-2.3135,-2.3144,-2.3144,-2.3144,-2.3144,-2.3096,-2.3135,-2.3096,-2.3115,-2.3125,-2.3115,-2.3125,-2.3144,-4.4299,-4.4231,-4.3593,-4.2627,-4.1577,-4.1677,-4.1356,-4.0713,-4.0865,-4.0003,-3.8497,-3.8667,-3.7884,-3.6356,-3.4867,-3.3966,-3.3543,-3.3294,-3.2967,-3.2585,-3.2617,-3.2327,-3.1754,-3.1597,-3.1091,-3.0283,-2.9804,-2.916,-2.8353,-2.7679,-2.6831,-2.5814,-2.451,-2.3284,-2.2235,-2.167,-2.1492,-2.1697,-2.1852,-2.1946,-2.1946,-2.15,-2.1175,-2.1028,-2.0129,-1.9794,-2.0161,-1.9752,-1.9385,-1.9045,-1.8491,-1.7651,-1.6502,-1.5284,0.0,0.0,0.0,0.0,0.0,0.0,0.0,0.0,0.0,-1.3972,-1.5015,0.0,-1.5785,0.0,-1.616,-1.6341,-1.6277,-1.7084,0.0,0.0,-1.7513,-1.7952,-1.8193,-1.8564,-1.9033,-1.9551,-1.999,-2.043,-2.0859,-2.081,-2.085,-2.1191,-2.1514,-2.1611,-2.1318,-2.1894,-2.2363,-2.2383,-2.2617,-2.2842,-2.2812,-2.292,-2.3018,-2.3125,-2.3144,-2.3144,-2.3144,-2.3144,-2.3144,-2.3144,-2.3144,-2.3144,-2.3144,-2.3144,-2.3144,-2.3144,-2.3144,-2.3144,-2.3144,-2.3144,-2.3144,-4.4869,-4.457,-4.457,-4.4079,-4.3284,-4.2929,-4.2371,-4.1677,-4.1356,-4.0561,-3.9478,-3.9126,-3.8162,-3.6718,-3.5524,-3.4647,-3.4084,-3.3391,-3.2898,-3.2547,-3.2257,-3.1894,-3.1524,-3.1467,-3.118,-3.0492,-2.9879,-2.9235,-2.8592,-2.7904,-2.696,-2.5702,-2.4917,-2.3796,-2.2378,-2.1799,-2.1429,-2.1252,-2.1296,-2.1307,-2.1293,-2.0979,-2.0646,-2.0346,-1.9724,-1.9396,-1.9533,-1.9257,-1.8826,-1.8365,-1.8066,-1.7501,-1.6619,-1.5731,-1.489,0.0,0.0,0.0,0.0,0.0,0.0,0.0,0.0,0.0,0.0,0.0,-1.7454,-1.7312,-1.724,-1.72,-1.717,-1.7989,-1.8424,-1.8051,-1.8616,-1.9088,-1.918,-1.959,-1.9941,-2.0176,-2.041,-2.0654,-2.0898,-2.0898,-2.0869,-2.0947,-2.1484,-2.1807,-2.1641,-2.21,-2.2568,-2.2764,-2.2988,-2.3144,-2.3144,-2.3144,-2.3144,-2.3144,-2.3144,-2.3144,-2.3144,-2.3144,-2.3144,-2.3144,-2.3144,-2.3144,-2.3144,-2.3144,-2.3144,-2.3144,-2.3144,-2.3144,-2.3144,-2.3144,-2.3144,-4.5284,-4.472,-4.4618,-4.4529,-4.4367,-4.3504,-4.2811,-4.2252,-4.1508,-4.0781,-4.002,-3.9139,-3.8056,-3.6862,-3.6013,-3.4866,-3.3589,-3.3036,-3.2691,-3.2482,-3.1928,-3.1614,-3.1467,-3.1467,-3.1225,-3.0627,-2.9998,-2.9355,-2.8727,-2.8038,-2.6937,-2.5481,-2.49,-2.3876,-2.2513,-2.1945,-2.1393,-2.0832,-2.0888,-2.083,-2.0764,-2.0764,-2.0487,-1.985,-1.9736,-1.9497,-1.8995,-1.8908,-1.848,-1.7551,-1.7488,-1.7225,-1.666,-1.6233,-1.5731,0.0,-1.4739,0.0,0.0,0.0,0.0,0.0,0.0,0.0,0.0,-1.8323,-1.9052,-1.8851,-1.8512,-1.8239,-1.8287,-1.8998,-1.9324,-1.9071,-1.9762,-2.0171,-2.0019,-2.0342,-2.0576,-2.0576,-2.0576,-2.0576,-2.0596,-2.0918,-2.0986,-2.0723,-2.1182,-2.1641,-2.1816,-2.2197,-2.2656,-2.3076,-2.3144,-2.3144,-2.3144,-2.3144,-2.3144,-2.3144,-2.3144,-2.3144,-2.3144,-2.3144,-2.3144,-2.3144,-2.3144,-2.3125,-2.3076,-2.3047,-2.3018,-2.293,-2.291,-2.2959,-2.3105,-2.3144,-2.3115,-4.5865,-4.5268,-4.4699,-4.411,-4.3521,-4.2202,-4.188,-4.2236,-4.1525,-4.0781,-4.002,-3.8613,-3.7857,-3.7498,-3.6121,-3.5048,-3.4292,-3.4173,-3.3529,-3.2512,-3.2377,-3.2048,-3.1482,-3.1467,-3.1407,-3.13,-3.0657,-2.9998,-2.94,-2.8742,-2.7495,-2.5755,-2.5384,-2.4606,-2.339,0.0,0.0,0.0,-2.1395,-2.117,-2.0739,-2.0714,-2.0433,-1.9811,-1.9397,0.0,-1.8983,-1.8593,-1.8267,-1.8066,-1.8053,0.0,0.0,0.0,0.0,0.0,0.0,0.0,0.0,0.0,0.0,0.0,-1.8606,-1.8803,-1.9158,-1.9761,-1.9791,-1.8997,-1.9008,-1.892,-1.8537,-1.9315,-1.9752,-1.9772,-2.0213,-2.0526,-2.0449,-2.0518,-2.0576,-2.0576,-2.0576,-2.0576,-2.0586,-2.0644,-2.0664,-2.0596,-2.0703,-2.0957,-2.1328,-2.2012,-2.2637,-2.3047,-2.3086,-2.3125,-2.3144,-2.3125,-2.3144,-2.3144,-2.3144,-2.3144,-2.3144,-2.3144,-2.3135,-2.3125,-2.3144,-2.3008,-2.2695,-2.2637,-2.2529,-2.2187,-2.2139,-2.2334,-2.2988,-2.3135,-2.3037,-4.5176,-4.435,-4.3969,-4.3426,0.0,-4.1677,-4.1424,-4.1694,-4.0967,-4.0443,-4.002,-3.887,-3.8133,-3.7748,-3.6585,-3.5649,-3.4966,-3.4622,-3.4128,-3.3455,-3.2811,-3.2332,-3.1945,-3.1689,-3.1467,-3.1437,-3.0836,-3.0104,-2.9413,-2.8488,-2.7164,-2.5486,-2.503,-2.4337,-2.3378,-2.3198,-2.2723,-2.1895,-2.1619,-2.1355,-2.1091,-2.1079,-2.0803,-2.025,-1.9962,0.0,0.0,0.0,0.0,0.0,0.0,0.0,0.0,0.0,0.0,-1.7815,-1.8267,-1.8832,-1.9359,-1.9422,-1.9606,-2.0012,-2.0339,-2.037,-2.0099,-2.0554,-2.0621,-2.0045,-1.9778,-1.9574,-1.959,-1.999,-2.0225,-2.0244,-2.043,-2.0576,-2.0576,-2.0576,-2.0576,-2.0576,-2.0576,-2.0576,-2.0576,-2.0576,-2.0576,-2.0576,-2.0576,-2.0723,-2.1162,-2.1592,-2.2031,-2.2451,-2.2715,-2.2832,-2.2852,-2.3027,-2.3135,-2.3144,-2.3144,-2.3144,-2.3144,-2.3144,-2.3076,-2.2891,-2.2822,-2.2695,-2.2314,-2.2207,-2.2129,-2.1943,-2.1894,-2.1992,-2.2451,-2.251,-2.2471,-4.4525,-4.3498,-4.3262,-4.2804,-4.2174,-4.1357,-4.1001,-4.0967,-4.0341,0.0,0.0,-3.9262,-3.858,-3.7921,-3.7024,-3.6275,-3.5703,-3.4985,-3.4592,-3.4427,-3.323,-3.2617,-3.2482,-3.1854,-3.1467,-3.1452,-3.0956,-3.0201,-2.9289,-2.8267,-2.696,-2.5315,-2.4728,-2.3975,-2.3138,-2.3125,-2.2912,-2.246,-2.2008,-2.1732,-2.1644,-2.1631,-2.1368,-2.0869,-2.0869,-2.0388,-1.9459,-1.9459,-1.9246,-1.8819,-1.8794,-1.8744,-1.8668,-1.9158,-1.9409,-1.9346,-1.9811,-2.0351,-2.097,-2.1041,-2.1269,-2.1592,-2.1599,-2.135,-2.0567,-2.0929,-2.1177,-2.1114,-2.0462,-2.0176,-2.0537,-2.0566,-2.0576,-2.0576,-2.0576,-2.0576,-2.0576,-2.0576,-2.0576,-2.0576,-2.0576,-2.0576,-2.0576,-2.0576,-2.0576,-2.0576,-2.0576,-2.0674,-2.1045,-2.1299,-2.1582,-2.1924,-2.2227,-2.2402,-2.2451,-2.2744,-2.3008,-2.2988,-2.3008,-2.3027,-2.3018,-2.2969,-2.2773,-2.2461,-2.2402,-2.2217,-2.1875,-2.1768,-2.1738,-2.167,-2.165,-2.165,-2.165,-2.165,-2.168,-4.534,-4.4659,-4.3517,-4.2689,-4.2043,-4.078,-4.0223,-4.024,-4.0138,-4.0087,-4.002,-3.9262,-3.8854,-3.869,-3.7231,-3.6554,-3.6384,-3.5676,-3.504,-3.4442,-3.3694,-3.3051,-3.2482,-3.1839,-3.1467,-3.1467,-3.1377,-3.0659,-2.942,-2.9145,-2.7939,-2.5959,-2.5248,-2.4377,-2.3163,-2.3125,-2.304,-2.2965,-2.2877,-2.2673,-2.2209,-2.2196,-2.1933,-2.1405,-2.138,-2.1317,-2.1154,-2.1117,-2.1104,-2.1029,-2.1029,-2.0815,-2.0429,-2.0828,-2.0928,-2.0514,-2.0953,-2.1493,-2.2058,-2.2523,-2.2518,-2.1955,-2.1592,-2.1349,-2.1123,-2.1186,-2.1093,-2.0708,-2.0526,-2.0498,-2.0566,-2.0576,-2.0576,-2.0576,-2.0576,-2.0576,-2.0576,-2.0576,-2.0576,-2.0576,-2.0576,-2.0576,-2.0576,-2.0576,-2.0576,-2.0576,-2.0576,-2.0596,-2.0771,-2.1318,-2.1758,-2.1875,-2.1924,-2.1973,-2.2012,-2.2324,-2.2568,-2.2598,-2.2598,-2.2598,-2.2598,-2.2363,-2.2129,-2.1992,-2.1973,-2.1797,-2.1416,-2.1328,-2.1191,-2.0937,-2.0869,-2.083,-2.0859,-2.084,-2.0928,-4.4272,-4.3682,-4.2739,-4.2035,-4.1393,-4.0489,-4.0087,-4.0087,-4.0087,-4.0087,-4.0087,-3.9714,-3.9315,-3.8799,-3.7716,-3.7024,-3.6538,-3.5846,-3.534,-3.4996,-3.4337,-3.3664,-3.3021,-3.2377,-3.1884,-3.1482,-3.1467,-3.0925,-2.9896,-2.9535,-2.8362,-2.6466,-2.5169,-2.4211,-2.3602,-2.3228,-2.3125,-2.3125,-2.3125,-2.3012,-2.2774,-2.2761,-2.2485,-2.1958,-2.1933,-2.1794,-2.1506,-2.1481,-2.1481,-2.1481,-2.1481,-2.1368,-2.1154,-2.1631,-2.182,-2.1594,-2.2071,-2.2636,-2.3188,-2.3206,-2.2965,-2.2372,-2.1725,-2.1176,-2.0908,-2.135,-2.1377,-2.0692,-2.0576,-2.0576,-2.0576,-2.0576,-2.0576,-2.0576,-2.0576,-2.0576,-2.0576,-2.0576,-2.0576,-2.0576,-2.0576,-2.0576,-2.0576,-2.0576,-2.0576,-2.0576,-2.0576,-2.0576,-2.0576,-2.0898,-2.1182,-2.1182,-2.1367,-2.1514,-2.1553,-2.1894,-2.2129,-2.2178,-2.2178,-2.2178,-2.2178,-2.1973,-2.1807,-2.1582,-2.1523,-2.1357,-2.0967,-2.0879,-2.0762,-2.0664,-2.0576,-2.0576,-2.0576,-2.0576,-2.0644,-4.3268,-4.2808,-4.2244,-4.1578,-4.0874,-4.0319,-4.0087,-4.0087,-4.0087,-4.0087,-4.0087,-4.0087,-3.9782,-3.9086,-3.8206,-3.744,-3.6798,-3.5894,-3.5489,-3.5429,-3.4786,-3.4128,-3.3484,-3.2826,-3.2168,-3.1584,-3.1467,-3.1087,-3.0332,-2.981,-2.8703,-2.6913,-2.5192,-2.4305,-2.4167,-2.374,-2.3514,-2.3441,-2.3389,-2.3276,-2.3078,-2.3125,-2.2924,-2.2535,-2.2498,-2.2297,-2.1895,-2.1857,-2.1857,-2.187,-2.1857,-2.1857,-2.1882,-2.2259,-2.2498,-2.2548,-2.3025,-2.3517,-2.3976,-2.3508,-2.2983,-2.254,-2.1649,-2.0933,-2.073,-2.1231,-2.1375,-2.0712,-2.0576,-2.0576,-2.0576,-2.0576,-2.0576,-2.0576,-2.0576,-2.0576,-2.0576,-2.0576,-2.0576,-2.0576,-2.0576,-2.0576,-2.0576,-2.0576,-2.0576,-2.0576,-2.0576,-2.0576,-2.0576,-2.0576,-2.0576,-2.0625,-2.0869,-2.1064,-2.1103,-2.1455,-2.1699,-2.1738,-2.1738,-2.1738,-2.1719,-2.167,-2.1475,-2.1143,-2.1084,-2.0967,-2.0654,-2.0586,-2.0586,-2.0576,-2.0576,-2.0576,-2.0576,-2.0576,-2.0576,-4.3444,-4.3339,-4.2808,-4.1937,-4.0874,-4.0319,-4.0087,-4.0087,-4.0087,-4.0087,-4.0087,-4.0087,-4.007,-3.9782,-3.8486,-3.7748,-3.7531,-3.6148,-3.5489,-3.5415,-3.4786,-3.4128,-3.3484,-3.2841,-3.2183,-3.1541,-3.1467,-3.1087,-3.0389,-3.0197,-2.9077,-2.7046,-2.5934,-2.5197,-2.4782,-2.4669,-2.4644,-2.4644,-2.418,-2.3665,-2.3163,-2.3125,-2.3053,-2.3015,-2.305,-2.2977,-2.2912,-2.2975,-2.2975,-2.2975,-2.2949,-2.2902,-2.2915,-2.3037,-2.3002,-2.3088,-2.3602,-2.3974,-2.4082,-2.327,-2.2562,-2.2051,-2.1217,-2.0653,-2.0566,-2.0722,-2.0712,-2.0566,-2.0576,-2.0576,-2.0576,-2.0576,-2.0576,-2.0576,-2.0576,-2.0576,-2.0576,-2.0576,-2.0576,-2.0576,-2.0576,-2.0576,-2.0576,-2.0576,-2.0576,-2.0576,-2.0576,-2.0576,-2.0576,-2.0576,-2.0576,-2.0576,-2.0635,-2.0654,-2.0713,-2.1006,-2.125,-2.1289,-2.1289,-2.1289,-2.124,-2.1006,-2.0674,-2.082,-2.0684,-2.0644,-2.0615,-2.0576,-2.0576,-2.0576,-2.0576,-2.0576,-2.0576,-2.0576,-2.0576,-4.3479,-4.3463,-4.2939,-4.1997,-4.092,-4.0319,-4.0087,-4.0087,-4.0087,-4.0087,-4.0087,-4.0087,-4.0087,-4.002,-3.8941,-3.8262,-3.7748,-3.6646,-3.5894,-3.5539,-3.5205,-3.4532,-3.3544,-3.3245,-3.2557,-3.1526,-3.1467,-3.1351,-3.0896,-3.0025,-2.8801,-2.7353,-2.6228,-2.5473,-2.5259,-2.4971,-2.4833,-2.482,-2.4594,-2.4356,-2.4079,-2.3416,-2.3125,-2.3125,-2.3125,-2.3125,-2.3125,-2.3125,-2.3125,-2.3125,-2.3125,-2.3125,-2.3078,-2.3452,-2.3653,-2.3629,-2.3944,-2.4128,-2.4196,-2.2983,-2.22,-2.2027,-2.1155,-2.0566,-2.0576,-2.0576,-2.0576,-2.0576,-2.0576,-2.0576,-2.0566,-2.0576,-2.0576,-2.0576,-2.0576,-2.0576,-2.0576,-2.0576,-2.0576,-2.0576,-2.0576,-2.0576,-2.0576,-2.0576,-2.0576,-2.0576,-2.0576,-2.0576,-2.0576,-2.0576,-2.0576,-2.0576,-2.0576,-2.0576,-2.0586,-2.0684,-2.083,-2.085,-2.084,-2.084,-2.082,-2.0732,-2.0576,-2.0576,-2.0576,-2.0576,-2.0576,-2.0576,-2.0576,-2.0557,-2.0566,-2.0576,-2.0576,-2.0576,-2.0576,-4.3479,-4.341,-4.2902,-4.2121,-4.1133,-4.0546,-4.0237,-4.0121,-4.0087,-4.0087,-4.0087,-4.0087,-4.0087,-3.9969,-3.9246,-3.858,-3.8019,-3.7084,-3.6337,-3.5782,-3.5619,-3.4876,-3.3829,-3.3559,-3.2901,-3.1928,-3.1556,-3.1467,-3.1278,-2.9827,-2.8671,-2.7906,-2.6604,-2.5824,-2.5787,-2.5448,-2.5272,-2.5259,-2.5134,-2.5034,-2.4908,-2.4092,-2.3602,-2.3602,-2.3602,-2.3466,-2.3389,-2.3514,-2.3514,-2.3315,-2.3441,-2.3541,-2.3615,-2.3991,-2.428,-2.4417,-2.4541,-2.451,-2.4422,-2.3397,-2.2553,-2.2038,-2.1375,-2.1011,-2.1011,-2.1011,-2.1011,-2.1001,-2.0934,-2.0934,-2.0644,-2.0576,-2.0576,-2.0576,-2.0576,-2.0576,-2.0576,-2.0576,-2.0576,-2.0576,-2.0576,-2.0576,-2.0576,-2.0576,-2.0576,-2.0576,-2.0576,-2.0576,-2.0576,-2.0576,-2.0576,-2.0576,-2.0576,-2.0576,-2.0576,-2.0596,-2.0576,-2.0576,-2.0605,-2.0615,-2.0576,-2.0576,-2.0576,-2.0576,-2.0576,-2.0557,-2.0527,-2.0527,-2.0371,-2.04,-2.0439,-2.0508,-2.0576,-2.0566,-2.0566,-4.3479,-4.341,-4.2939,-4.2342,-4.1707,-4.1087,-4.0577,-4.0087,-4.0087,-4.0087,-4.0087,-4.0087,-4.0087,-4.007,-3.9315,-3.8908,-3.8619,-3.7365,-3.6661,-3.6446,-3.5831,-3.513,-3.4412,-3.3799,-3.3125,-3.2362,-3.1735,-3.1467,-3.1336,-2.9889,-2.9002,-2.8784,-2.7219,-2.6458,-2.6364,-2.6302,-2.6352,-2.6226,-2.5812,-2.5561,-2.5511,-2.5034,-2.4745,-2.4745,-2.472,-2.4443,-2.4079,-2.4456,-2.4494,-2.3979,-2.4406,-2.4695,-2.472,-2.4757,-2.4983,-2.5435,-2.5507,-2.5364,-2.5015,-2.4696,-2.3963,-2.2403,-2.2027,-2.1962,-2.1962,-2.1962,-2.1983,-2.1973,-2.1983,-2.1593,-2.0984,-2.0741,-2.0586,-2.0615,-2.0576,-2.0576,-2.0576,-2.0576,-2.0576,-2.0576,-2.0576,-2.0576,-2.0576,-2.0576,-2.0576,-2.0576,-2.0576,-2.0576,-2.0576,-2.0576,-2.0576,-2.0576,-2.0576,-2.0576,-2.0576,-2.0576,-2.0576,-2.0576,-2.0576,-2.0566,-2.0566,-2.0576,-2.0576,-2.0537,-2.0478,-2.0449,-2.0459,-2.0303,-2.0029,-2.0019,-2.0225,-2.0342,-2.0244,-2.0469,-2.043,-4.3479,-4.3444,-4.2939,-4.2342,-4.175,-4.1161,-4.0577,-4.0121,-4.0087,-4.0087,-4.0087,-4.0087,-4.0087,-4.007,-3.9782,-3.9368,-3.887,-3.8286,-3.7584,-3.6661,-3.6322,-3.5579,-3.4505,-3.3799,-3.314,-3.2497,-3.178,-3.1219,-3.0703,-3.0072,-2.9254,-2.8247,-2.7604,-2.704,-2.6589,-2.6521,-2.6521,-2.6496,-2.6239,-2.6151,-2.6126,-2.5963,-2.5862,-2.5824,-2.5172,-2.4732,-2.4544,-2.472,-2.472,-2.4531,-2.4732,-2.4833,-2.4858,-2.5146,-2.5573,-2.6063,-2.5578,-2.5153,-2.4969,-2.4409,-2.3745,-2.3073,-2.301,-2.2999,-2.2925,-2.2936,-2.3119,-2.3338,-2.3152,-2.2896,-2.2647,-2.1635,-2.0684,-2.0908,-2.0742,-2.0576,-2.0576,-2.0576,-2.0576,-2.0576,-2.0576,-2.0576,-2.0576,-2.0576,-2.0576,-2.0576,-2.0576,-2.0576,-2.0576,-2.0576,-2.0576,-2.0576,-2.0576,-2.0576,-2.0576,-2.0576,-2.0576,-2.0576,-2.0566,-2.0557,-2.0547,-2.0566,-2.0566,-2.0185,-2.0156,-2.0049,-1.9951,-1.9814,-1.957,-1.9561,-1.9775,-1.9902,-1.9736,-1.9922,-1.9873,-4.3479,-4.3444,-4.3105,-4.2501,-4.181,-4.1358,-4.075,-4.0171,-4.0087,-4.0087,-4.0087,-4.0087,-4.0087,-4.0087,-4.0087,-3.9833,-3.9262,-3.9032,-3.8213,-3.7008,-3.6722,-3.5967,-3.4838,-3.3903,-3.326,-3.2736,-3.187,-3.1219,-3.0718,-3.0404,-2.9704,-2.8634,-2.8298,-2.767,-2.704,-2.6905,-2.6782,-2.6589,-2.6521,-2.6521,-2.6521,-2.6521,-2.6521,-2.6433,-2.5724,-2.5259,-2.5084,-2.5247,-2.5247,-2.5121,-2.5234,-2.5347,-2.5385,-2.5674,-2.605,-2.6402,-2.5873,-2.5523,-2.5441,-2.485,-2.4325,-2.4036,-2.3975,-2.4009,-2.423,-2.4265,-2.4517,-2.4791,-2.4746,-2.4562,-2.3963,-2.2626,-2.1529,-2.1391,-2.0967,-2.0654,-2.0576,-2.0576,-2.0576,-2.0576,-2.0576,-2.0576,-2.0576,-2.0576,-2.0576,-2.0576,-2.0576,-2.0576,-2.0576,-2.0576,-2.0576,-2.0576,-2.0576,-2.0576,-2.0576,-2.0576,-2.0557,-2.0557,-2.0508,-2.0498,-2.043,-2.0469,-2.0303,-1.9912,-1.9668,-1.9531,-1.9394,-1.9268,-1.918,-1.9111,-1.9316,-1.9521,-1.9414,-1.9346,-1.9355,-4.3479,-4.3479,-4.3479,-4.281,-4.1937,-4.1768,-4.1122,-4.0254,-4.0138,-4.0087,-4.0087,-4.0087,-4.0087,-4.0087,-4.0087,-4.007,-3.9901,-3.9315,-3.8525,-3.769,-3.7024,-3.6275,-3.5404,-3.4098,-3.3365,-3.3155,-3.2108,-3.1482,-3.1351,-3.0763,-3.0269,-3.0072,-2.9331,-2.8492,-2.7657,-2.755,-2.7229,-2.6658,-2.6521,-2.6521,-2.6521,-2.6521,-2.6521,-2.6521,-2.6364,-2.6101,-2.5624,-2.6088,-2.6088,-2.5724,-2.6088,-2.6483,-2.6327,-2.6445,-2.6496,-2.6508,-2.6452,-2.6452,-2.6452,-2.6302,-2.5804,-2.5313,-2.5052,-2.5278,-2.5743,-2.5827,-2.6041,-2.647,-2.638,-2.5935,-2.469,-2.372,-2.2887,-2.2126,-2.1298,-2.0811,-2.0644,-2.0586,-2.0576,-2.0576,-2.0576,-2.0576,-2.0576,-2.0576,-2.0576,-2.0576,-2.0576,-2.0576,-2.0576,-2.0576,-2.0576,-2.0576,-2.0576,-2.0576,-2.0576,-2.0566,-2.0557,-2.0527,-2.0449,-2.0391,-2.0195,-2.0137,-1.9853,-1.9502,-1.9268,-1.9121,-1.8848,-1.874,-1.8789,-1.8789,-1.9004,-1.9072,-1.8984,-1.8906,-1.9014,-4.3479,-4.3479,-4.3479,-4.3087,-4.2382,-4.1979,-4.1375,-4.0607,-4.0286,-4.0087,-4.0087,-4.0087,-4.0087,-4.0087,-4.0087,-4.0087,-4.007,-3.9782,-3.9049,-3.7921,-3.7515,-3.6707,-3.5428,-3.4128,-3.3021,-3.2228,-3.1749,-3.1467,-3.1467,-3.1204,-3.0896,-3.0329,-3.0072,-2.9115,-2.7789,-2.7683,-2.7297,-2.6589,-2.6521,-2.6521,-2.6521,-2.6521,-2.6521,-2.6521,-2.6521,-2.6433,-2.6214,-2.6364,-2.6377,-2.6176,-2.6352,-2.6521,-2.6521,-2.6521,-2.6521,-2.6521,-2.6521,-2.6521,-2.6521,-2.6533,-2.6546,-2.6553,-2.6569,-2.684,-2.7285,-2.7372,-2.7545,-2.7889,-2.7255,-2.6612,-2.6865,-2.4867,-2.3273,-2.2359,-2.1814,-2.1299,-2.1006,-2.0742,-2.0596,-2.0576,-2.0576,-2.0576,-2.0576,-2.0576,-2.0576,-2.0576,-2.0576,-2.0576,-2.0576,-2.0576,-2.0576,-2.0576,-2.0576,-2.0566,-2.0557,-2.0478,-2.0371,-2.0312,-2.0244,-2.0049,-1.9863,-1.9766,-1.9473,-1.915,-1.8926,-1.8682,-1.8408,-1.832,-1.8398,-1.8359,-1.8418,-1.8437,-1.8418,-1.8496,-1.8613,-4.3479,-4.3479,-4.3479,-4.3032,-4.2382,-4.1955,-4.1331,-4.0607,-4.0254,-4.0087,-4.0087,-4.0087,-4.0087,-4.0087,-4.0087,-4.0087,-4.0087,-3.9782,-3.8995,-3.7921,-3.7822,-3.6951,-3.5503,-3.4128,-3.2811,-3.1749,-3.1467,-3.1467,-3.1467,-3.1467,-3.1234,-3.0851,-3.0777,-2.9889,-2.8376,-2.8117,-2.767,-2.6714,-2.6521,-2.6521,-2.6521,-2.6521,-2.6521,-2.6521,-2.6521,-2.6521,-2.6521,-2.6521,-2.6521,-2.6521,-2.6521,-2.6521,-2.6521,-2.6521,-2.6521,-2.6521,-2.6521,-2.6521,-2.6521,-2.6521,-2.676,-2.7155,-2.7293,-2.7645,-2.821,-2.8411,-2.8575,-2.8329,-2.8166,-2.7596,-2.7006,-2.5904,-2.4094,-2.2771,-2.2187,-2.1728,-2.1279,-2.084,-2.0596,-2.0576,-2.0576,-2.0576,-2.0576,-2.0576,-2.0576,-2.0576,-2.0576,-2.0576,-2.0576,-2.0576,-2.0576,-2.0576,-2.0576,-2.0557,-2.0547,-2.04,-2.0195,-2.0088,-1.998,-1.9678,-1.9394,-1.9434,-1.9287,-1.8867,-1.8574,-1.8389,-1.8135,-1.8105,-1.8125,-1.8018,-1.8008,-1.8086,-1.8193,-1.8144,-1.8223,-4.3479,-4.3479,-4.3479,-4.2903,-4.1979,-4.1853,-4.1196,-4.0286,-4.0121,-4.0087,-4.0087,-4.0087,-4.0087,-4.0087,-4.0087,-4.0054,-3.9901,-3.9315,-3.8525,-3.7831,-3.7494,-3.6627,-3.5108,-3.3888,-3.2677,-3.1631,-3.1467,-3.1467,-3.1467,-3.1467,-3.1467,-3.1409,-3.1351,-3.0658,-2.9192,-2.8939,-2.8117,-2.6714,-2.6521,-2.6521,-2.6521,-2.6521,-2.6521,-2.6521,-2.6521,-2.6521,-2.6521,-2.6521,-2.6521,-2.6521,-2.6521,-2.6521,-2.6521,-2.6521,-2.6521,-2.6521,-2.6521,-2.6521,-2.6521,-2.6521,-2.6753,-2.7331,-2.7457,-2.7795,-2.875,-2.8749,-2.8669,-2.853,-2.8645,-2.8104,-2.6311,-2.5449,-2.4893,-2.3431,-2.2373,-2.1748,-2.1318,-2.0879,-2.0605,-2.0576,-2.0576,-2.0576,-2.0576,-2.0576,-2.0576,-2.0576,-2.0576,-2.0576,-2.0576,-2.0576,-2.0576,-2.0566,-2.0566,-2.0439,-2.0391,-2.0225,-1.998,-1.9531,-1.9482,-1.9277,-1.8984,-1.9004,-1.8965,-1.8564,-1.832,-1.8115,-1.8008,-1.8008,-1.8008,-1.8008,-1.8008,-1.8008,-1.8008,-1.8008,-1.8008,-4.3479,-4.3479,-4.3479,-4.3087,-4.244,-4.2021,-4.1358,-4.0672,-4.0254,-4.0087,-4.0087,-4.0087,-4.0087,-4.0087,-4.0087,-3.9782,-3.9315,-3.9032,-3.8101,-3.699,-3.6357,-3.5413,-3.4134,-3.32,-3.2362,-3.1571,-3.1467,-3.1467,-3.1467,-3.1467,-3.1467,-3.1467,-3.1467,-3.0658,-2.924,-2.8989,-2.8103,-2.6714,-2.6521,-2.6521,-2.6521,-2.6521,-2.6521,-2.6521,-2.6521,-2.6521,-2.6521,-2.6521,-2.6521,-2.6521,-2.6521,-2.6521,-2.6521,-2.6521,-2.6521,-2.6521,-2.6521,-2.6521,-2.6521,-2.6521,-2.6892,-2.7758,-2.7748,-2.8373,-2.9453,-2.8795,-2.8724,-2.87,-2.7706,-2.6964,-2.7452,-2.5714,-2.3973,-2.3201,-2.2383,-2.1836,-2.1602,-2.1045,-2.0576,-2.0576,-2.0576,-2.0576,-2.0576,-2.0576,-2.0576,-2.0576,-2.0576,-2.0576,-2.0576,-2.0576,-2.0576,-2.0566,-2.0527,-2.0342,-2.0185,-2.0029,-1.9687,-1.9053,-1.8887,-1.8857,-1.8623,-1.8516,-1.8389,-1.8135,-1.8164,-1.8027,-1.8008,-1.8008,-1.8008,-1.8008,-1.8008,-1.8008,-1.8008,-1.8008,-1.8008,-4.3479,-4.3479,-4.3479,-4.3032,-4.2342,-4.1955,-4.1313,-4.0625,-4.0237,-4.0087,-4.0087,-4.0087,-4.0087,-4.0087,-4.0087,-3.9833,-3.9368,-3.8707,-3.7962,-3.7046,-3.5519,-3.4182,-3.3186,-3.2632,-3.2168,-3.1526,-3.1467,-3.1467,-3.1467,-3.1467,-3.1467,-3.1467,-3.1467,-3.0644,-2.9115,-2.8925,-2.8182,-2.6769,-2.6521,-2.6521,-2.6521,-2.6521,-2.6521,-2.6521,-2.6521,-2.6521,-2.6521,-2.6521,-2.6521,-2.6521,-2.6521,-2.6521,-2.6521,-2.6521,-2.6521,-2.6521,-2.6521,-2.6521,-2.6521,-2.6533,-2.6979,-2.7748,-2.7791,-2.8049,-2.8655,-2.8426,-2.8359,-2.729,-2.6953,-2.7035,-2.6389,-2.4553,-2.3211,-2.2812,-2.2285,-2.1904,-2.1885,-2.1279,-2.0801,-2.0644,-2.0576,-2.0576,-2.0576,-2.0576,-2.0576,-2.0576,-2.0576,-2.0576,-2.0576,-2.0566,-2.0518,-2.0449,-2.0322,-2.0098,-1.9805,-1.9609,-1.9365,-1.876,-1.8486,-1.8447,-1.8359,-1.8193,-1.8125,-1.8047,-1.8018,-1.8008,-1.8008,-1.8008,-1.8008,-1.8008,-1.8008,-1.8008,-1.8008,-1.8008,-1.8008,-4.3479,-4.3479,-4.3444,-4.279,-4.1895,-4.1707,-4.1076,-4.0254,-4.0121,-4.0087,-4.0087,-4.0087,-4.0087,-4.0087,-4.0087,-4.002,-3.9833,-3.8652,-3.7785,-3.6605,-3.4908,-3.3246,-3.2467,-3.2347,-3.2018,-3.1526,-3.1467,-3.1467,-3.1467,-3.1467,-3.1467,-3.1467,-3.1467,-3.0584,-2.9317,-2.8989,-2.8117,-2.6769,-2.6521,-2.6521,-2.6521,-2.6521,-2.6521,-2.6521,-2.6521,-2.6521,-2.6521,-2.6521,-2.6521,-2.6521,-2.6521,-2.6521,-2.6521,-2.6521,-2.6521,-2.6521,-2.6521,-2.6521,-2.6521,-2.6546,-2.6942,-2.7701,-2.7261,-2.7014,-2.7889,-2.7853,-2.7025,-2.5788,-2.7532,-2.636,-2.4447,-2.3183,-2.3054,-2.2663,-2.2158,-2.1914,-2.1738,-2.1426,-2.1006,-2.0644,-2.0576,-2.0576,-2.0576,-2.0576,-2.0576,-2.0576,-2.0547,-2.0488,-2.042,-2.0332,-2.0264,-2.0185,-2.0019,-1.9814,-1.9482,-1.9078,-1.8867,-1.8496,-1.8271,-1.8164,-1.8164,-1.8066,-1.8037,-1.8008,-1.8008,-1.8008,-1.8008,-1.8008,-1.8008,-1.8008,-1.8008,-1.8008,-1.8008,-1.8008,-1.8008,-4.3479,-4.3479,-4.305,-4.2462,-4.181,-4.1313,-4.0703,-4.0121,-4.0087,-4.0087,-4.0087,-4.0087,-4.0087,-4.0087,-4.007,-3.9765,-3.9299,-3.8608,-3.7616,-3.521,-3.4227,-3.2781,-3.1988,-3.1794,-3.1689,-3.1467,-3.1467,-3.1467,-3.1467,-3.1467,-3.1467,-3.1467,-3.1336,-3.0644,-2.9254,-2.8876,-2.8182,-2.6769,-2.6521,-2.6521,-2.6521,-2.6521,-2.6521,-2.6521,-2.6521,-2.6521,-2.6521,-2.6521,-2.6521,-2.6521,-2.6521,-2.6521,-2.6521,-2.6521,-2.6521,-2.6521,-2.6521,-2.6521,-2.6521,-2.6584,-2.6929,-2.7786,-2.7693,-2.7851,-2.7905,-2.7034,-2.6234,-2.5311,-2.4759,-2.4315,-2.3381,-2.3618,-2.3237,-2.2522,-2.207,-2.1719,-2.1387,-2.1006,-2.0752,-2.0615,-2.0576,-2.0576,-2.0576,-2.0576,-2.0576,-2.0576,-2.0498,-2.0391,-2.0264,-2.0127,-2.0,-1.9893,-1.96,-1.9375,-1.9141,-1.8747,-1.8555,-1.834,-1.8144,-1.8018,-1.8008,-1.8008,-1.8008,-1.8008,-1.8008,-1.8008,-1.8008,-1.8008,-1.8008,-1.8008,-1.8008,-1.8008,-1.8008,-1.8008,-1.8008,-4.3479,-4.3444,-4.2939,-4.236,-4.1768,-4.1178,-4.0577,-4.0171,-4.0087,-4.0087,-4.0087,-4.0087,-4.0087,-4.0087,-4.007,-3.9833,-3.9268,-3.8281,-3.6581,-3.4457,-3.3379,-3.2482,-3.1691,-3.1467,-3.1467,-3.1467,-3.1467,-3.1467,-3.1467,-3.1467,-3.1467,-3.1409,-3.1161,-3.0254,-2.9066,-2.8634,-2.7736,-2.6782,-2.6521,-2.6521,-2.6521,-2.6521,-2.6521,-2.6521,-2.6521,-2.6521,-2.6521,-2.6521,-2.6521,-2.6521,-2.6521,-2.6521,-2.6521,-2.6521,-2.6521,-2.6521,-2.6521,-2.6521,-2.6521,-2.6571,-2.6886,-2.7645,-2.7273,-2.7184,-2.7198,-2.6555,-2.5656,-2.4977,-2.4519,-2.4303,-2.3388,-2.2962,-2.2732,-2.2152,-2.1728,-2.1396,-2.1035,-2.0879,-2.0771,-2.0654,-2.0576,-2.0576,-2.0576,-2.0576,-2.0576,-2.0576,-2.0527,-2.041,-2.0107,-1.9961,-1.9727,-1.9531,-1.9189,-1.8916,-1.873,-1.8506,-1.8281,-1.8154,-1.8076,-1.8008,-1.8008,-1.8008,-1.8008,-1.8008,-1.8008,-1.8008,-1.8008,-1.8008,-1.8008,-1.8008,-1.8008,-1.8008,-1.8008,-1.8008,-1.8008,-4.3375,-4.3321,-4.2675,-4.2121,-4.1621,-4.0995,-4.0497,-4.0121,-4.0087,-4.0087,-4.0087,-4.0087,-4.0003,-3.9901,-3.9851,-3.9851,-3.9023,-3.7616,-3.5506,-3.3795,-3.2942,-3.2242,-3.1659,-3.1467,-3.1467,-3.1467,-3.1467,-3.1467,-3.1467,-3.1467,-3.1467,-3.1409,-3.0911,-3.0086,-2.9066,-2.8312,-2.755,-2.6645,-2.6521,-2.6521,-2.6521,-2.6521,-2.6521,-2.6521,-2.6521,-2.6521,-2.6521,-2.6521,-2.6521,-2.6521,-2.6521,-2.6521,-2.6521,-2.6521,-2.6521,-2.6521,-2.6521,-2.6521,-2.6521,-2.6559,-2.6773,-2.7218,-2.6541,-2.621,-2.6491,-2.6311,-2.5432,-2.4715,-2.4325,-2.477,-2.3642,-2.2595,-2.1784,-2.1367,-2.1221,-2.0947,-2.0752,-2.0918,-2.084,-2.0674,-2.0576,-2.0576,-2.0576,-2.0576,-2.0576,-2.0547,-2.0488,-2.0332,-2.0,-1.9658,-1.9355,-1.9053,-1.8691,-1.8555,-1.8398,-1.834,-1.8105,-1.8066,-1.8008,-1.8008,-1.8008,-1.8008,-1.8008,-1.8008,-1.8008,-1.8008,-1.8008,-1.8008,-1.8008,-1.8008,-1.8008,-1.8008,-1.8008,-1.8008,-1.8008,-4.2826,-4.2732,-4.1664,-4.1115,-4.0995,-4.0466,-4.0204,-4.0121,-4.0087,-4.0087,-4.0087,-4.0054,-3.9698,-3.9343,-3.9174,-3.8555,-3.75,-3.6233,-3.5023,-3.3578,-3.2773,-3.2078,-3.1586,-3.1467,-3.1467,-3.1467,-3.1467,-3.1467,-3.1467,-3.1467,-3.1467,-3.1482,-3.1292,-3.0464,-2.9331,-2.8748,-2.7802,-2.6714,-2.6521,-2.6521,-2.6521,-2.6521,-2.6521,-2.6521,-2.6521,-2.6521,-2.6521,-2.6521,-2.6521,-2.6521,-2.6521,-2.6521,-2.6521,-2.6521,-2.6521,-2.6521,-2.6521,-2.6521,-2.6521,-2.6533,-2.6823,-2.713,-2.6934,-2.6651,-2.6488,-2.6158,-2.5389,-2.4453,-2.371,-2.3431,-2.3349,-2.2201,-2.1489,-2.1143,-2.0928,-2.0684,-2.0615,-2.0644,-2.0723,-2.0596,-2.0576,-2.0566,-2.0557,-2.0498,-2.042,-2.0293,-2.0137,-1.9873,-1.9492,-1.9121,-1.875,-1.8457,-1.8154,-1.8115,-1.8086,-1.8096,-1.8027,-1.8037,-1.8008,-1.8008,-1.8008,-1.8008,-1.8008,-1.8008,-1.8008,-1.8008,-1.8008,-1.8008,-1.8008,-1.8008,-1.8008,-1.8008,-1.8008,-1.8008,-1.8008,-4.2693,-4.2559,-4.1402,-4.0903,-4.0827,-4.0336,-4.0087,-4.0087,-4.0087,-4.0087,-3.9952,-3.9681,-3.936,-3.8971,-3.8548,-3.7617,-3.6253,-3.508,-3.4117,-3.3079,-3.2349,-3.1825,-3.1497,-3.1467,-3.1467,-3.1467,-3.1467,-3.1467,-3.1467,-3.1467,-3.1467,-3.1409,-3.1161,-3.0208,-2.9129,-2.8492,-2.7736,-2.6714,-2.6521,-2.6521,-2.6521,-2.6521,-2.6521,-2.6521,-2.6521,-2.6521,-2.6521,-2.6521,-2.6521,-2.6521,-2.6521,-2.6521,-2.6521,-2.6521,-2.6521,-2.6521,-2.6521,-2.6521,-2.6521,-2.6521,-2.6672,-2.6779,-2.6866,-2.6801,-2.6525,-2.6247,-2.5697,-2.4707,-2.3735,-2.321,-2.3395,-2.2289,-2.173,-2.1446,-2.0985,-2.0673,-2.0576,-2.0576,-2.0576,-2.0576,-2.0576,-2.0557,-2.0518,-2.042,-2.0273,-2.0068,-1.9824,-1.9453,-1.9043,-1.873,-1.8398,-1.8213,-1.8018,-1.8018,-1.8018,-1.8008,-1.8008,-1.8008,-1.8008,-1.8008,-1.8008,-1.8008,-1.8008,-1.8008,-1.8008,-1.8008,-1.8008,-1.8008,-1.8008,-1.8008,-1.8008,-1.8008,-1.8008,-1.8008,-1.8008,-4.2364,-4.2189,-4.113,-4.0602,-4.0449,-4.0235,-3.9986,-3.9884,-3.9834,-3.9698,-3.9563,-3.9056,-3.8684,-3.8314,-3.748,-3.6372,-3.5049,-3.3857,-3.3122,-3.24,-3.1856,-3.1497,-3.1482,-3.1467,-3.1467,-3.1467,-3.1467,-3.1467,-3.1467,-3.1467,-3.1467,-3.1278,-3.0718,-2.9889,-2.9066,-2.8233,-2.7284,-2.6714,-2.6521,-2.6521,-2.6521,-2.6521,-2.6521,-2.6521,-2.6521,-2.6521,-2.6521,-2.6521,-2.6521,-2.6521,-2.6521,-2.6521,-2.6521,-2.6521,-2.6521,-2.6521,-2.6521,-2.6521,-2.6521,-2.6521,-2.6546,-2.6553,-2.6546,-2.6477,-2.6502,-2.637,-2.6131,-2.5288,-2.4432,-2.3655,-2.3449,-2.2585,-2.1918,-2.1482,-2.0964,-2.0576,-2.0576,-2.0576,-2.0576,-2.0576,-2.0576,-2.0469,-2.0342,-2.0225,-2.0049,-1.9678,-1.9424,-1.918,-1.8799,-1.8564,-1.8291,-1.8135,-1.8008,-1.8008,-1.8008,-1.8008,-1.8008,-1.8008,-1.8008,-1.8008,-1.8008,-1.8008,-1.8008,-1.8008,-1.8008,-1.8008,-1.8008,-1.8008,-1.8008,-1.8008,-1.8008,-1.8008,-1.8008,-1.8008,-1.8008,-4.1307,-4.0902,-4.014,-3.9598,-3.9321,-3.9799,-3.9681,-3.914,-3.9123,-3.8734,-3.8328,-3.8058,-3.7669,-3.6902,-3.5673,-3.4329,-3.3335,-3.2827,-3.2369,-3.1796,-3.1582,-3.1467,-3.1467,-3.1467,-3.1467,-3.1467,-3.1467,-3.1467,-3.1409,-3.1409,-3.1394,-3.1146,-3.0569,-2.9813,-2.8812,-2.8038,-2.7284,-2.6645,-2.6521,-2.6521,-2.6521,-2.6521,-2.6521,-2.6521,-2.6521,-2.6521,-2.6521,-2.6521,-2.6521,-2.6521,-2.6521,-2.6521,-2.6521,-2.6521,-2.6521,-2.6521,-2.6521,-2.6521,-2.6521,-2.6521,-2.6521,-2.6521,-2.6521,-2.6521,-2.6521,-2.6521,-2.6383,-2.6371,-2.5358,-2.4409,-2.3672,-2.2627,-2.1735,-2.1231,-2.0867,-2.0644,-2.0576,-2.0576,-2.0576,-2.0576,-2.0576,-2.0273,-2.0039,-1.9932,-1.9785,-1.9394,-1.9033,-1.8789,-1.8574,-1.835,-1.8223,-1.8066,-1.8008,-1.8008,-1.8008,-1.8008,-1.8008,-1.8008,-1.8008,-1.8008,-1.8008,-1.8008,-1.8008,-1.8008,-1.8008,-1.8008,-1.8008,-1.8008,-1.8008,-1.8008,-1.8008,-1.8008,-1.8008,-1.8008,-1.8008,-4.0068,-3.9946,-3.9356,-3.878,-3.8461,-3.8734,-3.8667,-3.843,-3.8379,-3.821,-3.7855,-3.7415,-3.6683,-3.5538,-3.4431,-3.3563,-3.2695,-3.2176,-3.1853,-3.1582,-3.1467,-3.1467,-3.1467,-3.1467,-3.1467,-3.1467,-3.1409,-3.1146,-3.1161,-3.1161,-3.1161,-3.0208,-3.0133,-2.9566,-2.8505,-2.792,-2.7284,-2.6714,-2.6521,-2.6521,-2.6521,-2.6521,-2.6521,-2.6521,-2.6521,-2.6521,-2.6521,-2.6521,-2.6521,-2.6521,-2.6521,-2.6521,-2.6521,-2.6521,-2.6521,-2.6521,-2.6521,-2.6521,-2.6521,-2.6521,-2.6521,-2.6521,-2.6521,-2.6521,-2.6521,-2.6521,-2.6521,-2.6452,-2.5581,-2.4779,-2.4108,-2.2925,-2.2103,-2.1364,-2.0867,-2.0644,-2.0576,-2.0576,-2.0576,-2.0576,-2.0498,-2.0107,-1.9746,-1.9561,-1.9355,-1.8975,-1.8652,-1.8408,-1.8271,-1.8164,-1.8076,-1.8037,-1.8008,-1.8008,-1.8008,-1.8008,-1.8008,-1.8008,-1.8008,-1.8008,-1.8008,-1.8008,-1.8008,-1.8008,-1.8008,-1.8008,-1.8008,-1.8008,-1.8008,-1.8008,-1.8008,-1.8008,-1.8008,-1.8008,-1.8008,-3.8795,-3.8667,-3.8459,-3.8071,-3.7652,-3.7821,-3.7804,-3.7618,-3.7618,-3.7499,-3.7229,-3.6675,-3.5679,-3.4546,-3.3802,-3.3182,-3.2272,-3.1754,-3.1524,-3.1467,-3.1467,-3.1467,-3.1467,-3.1467,-3.1467,-3.1467,-3.1467,-3.1087,-3.0837,-3.0911,-3.0718,-2.9066,-2.9303,-2.8876,-2.8051,-2.7417,-2.696,-2.6589,-2.6521,-2.6521,-2.6521,-2.6521,-2.6521,-2.6521,-2.6521,-2.6521,-2.6521,-2.6521,-2.6521,-2.6521,-2.6521,-2.6521,-2.6521,-2.6521,-2.6521,-2.6521,-2.6521,-2.6521,-2.6521,-2.6521,-2.6521,-2.6521,-2.6521,-2.6521,-2.6521,-2.6521,-2.6521,-2.6452,-2.5943,-2.537,-2.4707,-2.3368,-2.2478,-2.1735,-2.1155,-2.0867,-2.0557,-2.0527,-2.042,-2.0283,-2.0137,-1.9805,-1.9473,-1.9219,-1.8916,-1.8545,-1.8262,-1.8047,-1.8008,-1.8018,-1.8018,-1.8008,-1.8008,-1.8008,-1.8008,-1.8008,-1.8008,-1.8008,-1.8008,-1.8008,-1.8008,-1.8008,-1.8008,-1.8008,-1.7988,-1.8008,-1.8008,-1.8008,-1.8008,-1.8008,-1.8008,-1.8008,-1.8008,-1.7998,-1.7988,-3.7449,-3.6665,-3.7334,-3.7315,-3.6907,-3.7618,-3.7483,-3.6874,-3.6857,-3.6485,-3.6045,-3.565,-3.5044,-3.3953,-3.3582,-3.2879,-3.164,-3.1539,-3.1539,-3.1467,-3.1467,-3.1467,-3.1467,-3.1467,-3.1467,-3.1467,-3.1467,-3.1029,-3.0584,-3.0703,-3.0208,-2.9192,-2.8748,-2.8117,-2.7484,-2.7027,-2.6782,-2.6521,-2.6521,-2.6521,-2.6521,-2.6521,-2.6521,-2.6521,-2.6521,-2.6521,-2.6521,-2.6521,-2.6521,-2.6521,-2.6521,-2.6521,-2.6521,-2.6521,-2.6521,-2.6521,-2.6521,-2.6521,-2.6521,-2.6521,-2.6521,-2.6521,-2.6521,-2.6521,-2.6521,-2.6521,-2.6521,-2.6302,-2.5734,-2.5358,-2.4779,-2.3975,-2.2478,-2.1735,-2.1078,-2.0789,-2.0537,-2.0449,-2.0312,-2.0059,-1.9785,-1.9502,-1.9209,-1.8945,-1.8672,-1.8311,-1.8213,-1.8008,-1.8008,-1.8008,-1.8008,-1.8008,-1.8008,-1.8008,-1.8008,-1.8008,-1.8008,-1.8008,-1.8008,-1.8008,-1.8008,-1.8008,-1.7998,-1.793,-1.79,-1.7959,-1.7959,-1.7852,-1.7822,-1.7949,-1.8008,-1.8008,-1.7949,-1.79,-1.79,-3.7058,-3.6409,-3.6362,-3.6208,-3.6079,-3.6383,-3.6332,-3.6096,-3.6062,-3.5926,-3.5622,-3.5532,-3.4864,-3.3887,-3.3547,-3.2826,-3.164,-3.1467,-3.1467,-3.1467,-3.1467,-3.1467,-3.1467,-3.1467,-3.1467,-3.1467,-3.1467,-3.1087,-3.0389,-3.0332,-2.9317,-2.8441,-2.8285,-2.7736,-2.7217,-2.6714,-2.6589,-2.6521,-2.6521,-2.6521,-2.6521,-2.6521,-2.6521,-2.6521,-2.6521,-2.6521,-2.6521,-2.6521,-2.6521,-2.6521,-2.6521,-2.6521,-2.6521,-2.6521,-2.6521,-2.6521,-2.6521,-2.6521,-2.6521,-2.6521,-2.6521,-2.6521,-2.6521,-2.6521,-2.6521,-2.6452,-2.6094,-2.5734,-2.5063,-2.4469,-2.3294,-2.2339,-2.1375,-2.1078,-2.0934,-2.0644,-2.0459,-2.0352,-2.0068,-1.9756,-1.9512,-1.9258,-1.8965,-1.8601,-1.8398,-1.8125,-1.8057,-1.8008,-1.8008,-1.8008,-1.8008,-1.8008,-1.8008,-1.8008,-1.8008,-1.8008,-1.8008,-1.7998,-1.7988,-1.793,-1.79,-1.7998,-1.7978,-1.7891,-1.7648,-1.7436,-1.7378,-1.7492,-1.7568,-1.7607,-1.7803,-1.8008,-1.793,-1.7726,-1.7494,-3.6435,-3.583,-3.5681,-3.5639,-3.5639,-3.5639,-3.5639,-3.5639,-3.5656,-3.5639,-3.556,-3.5362,-3.4704,-3.3802,-3.3287,-3.2664,-3.1739,-3.1467,-3.1467,-3.1467,-3.1467,-3.1467,-3.1467,-3.1467,-3.1467,-3.1467,-3.1467,-3.1161,-3.0689,-2.9629,-2.8962,-2.8561,-2.815,-2.7473,-2.6905,-2.6521,-2.6521,-2.6521,-2.6521,-2.6521,-2.6521,-2.6521,-2.6521,-2.6521,-2.6521,-2.6521,-2.6521,-2.6521,-2.6521,-2.6521,-2.6521,-2.6521,-2.6521,-2.6521,-2.6521,-2.6521,-2.6521,-2.6521,-2.6521,-2.6521,-2.6521,-2.6521,-2.6521,-2.6521,-2.6452,-2.6245,-2.5594,-2.5146,-2.4181,-2.3147,-2.2328,-2.1962,-2.1517,-2.1441,-2.0857,-2.0537,-2.0293,-2.0117,-1.9766,-1.9434,-1.9189,-1.8916,-1.8633,-1.8359,-1.8271,-1.8066,-1.8037,-1.8008,-1.8008,-1.8008,-1.8008,-1.8008,-1.8008,-1.8008,-1.8008,-1.7988,-1.7969,-1.793,-1.7891,-1.7754,-1.7744,-1.7726,-1.7369,-1.6807,-1.6609,-1.6675,-1.644,-1.6121,-1.6534,-1.7113,-1.7278,-1.7338,-1.7139,-1.6844,-1.6533,-3.5357,-3.4651,-3.5267,-3.5537,-3.5487,-3.556,-3.5639,-3.5639,-3.5639,-3.5639,-3.5532,-3.5052,-3.4382,-3.3649,-3.3145,-3.2422,-3.1682,-3.1467,-3.1467,-3.1467,-3.1467,-3.1467,-3.1422,-3.1407,-3.1315,-3.1437,-3.1243,-3.1108,-3.1142,-2.9549,-2.89,-2.8269,-2.7488,-2.6765,-2.6445,-2.6508,-2.6508,-2.6496,-2.6389,-2.6377,-2.6521,-2.6521,-2.6521,-2.6521,-2.6521,-2.6521,-2.6521,-2.6521,-2.6521,-2.6521,-2.6521,-2.6521,-2.6521,-2.6521,-2.6521,-2.6521,-2.6521,-2.6521,-2.6521,-2.6521,-2.6521,-2.6521,-2.6521,-2.6383,-2.6245,-2.5734,-2.4933,-2.4337,-2.3734,-2.3368,-2.2925,-2.2489,-2.1811,-2.1375,-2.0857,-2.043,-2.0185,-1.9853,-1.9512,-1.9121,-1.8799,-1.8446,-1.8242,-1.8047,-1.8066,-1.8018,-1.8008,-1.8008,-1.8008,-1.8008,-1.8008,-1.8008,-1.8008,-1.8008,-1.7998,-1.7959,-1.792,-1.7881,-1.759,-1.7254,-1.6939,-1.6722,-1.6263,-1.5744,-1.5559,-1.5631,-1.5011,-1.4385,-1.51,-1.5807,-1.6316,-1.6395,-1.6216,-1.5996,-1.5695,-3.4369,-3.3795,-3.4049,-3.415,-3.4286,-3.5216,-3.5622,-3.5639,-3.5639,-3.5622,-3.5577,-3.5316,-3.4592,-3.3786,-3.3208,-3.2532,-3.1622,-3.1467,-3.1467,-3.1422,-3.1377,-3.1467,-3.1347,-3.1031,-3.0866,-3.0731,-3.0537,-3.0328,-3.0123,-2.8814,-2.8057,-2.7434,-2.6498,-2.5792,-2.5803,-2.5887,-2.5875,-2.5875,-2.5912,-2.6038,-2.6389,-2.6496,-2.6496,-2.6483,-2.6496,-2.6496,-2.6445,-2.6352,-2.6508,-2.6483,-2.6471,-2.6521,-2.6521,-2.6521,-2.6521,-2.6521,-2.6521,-2.6521,-2.6521,-2.6521,-2.6521,-2.6521,-2.6452,-2.6233,-2.5594,-2.53,-2.4409,-2.3441,-2.2925,-2.2339,-2.1527,-2.1308,-2.0934,-2.0934,-2.0585,-2.0312,-2.0059,-1.9658,-1.9277,-1.8838,-1.8467,-1.8301,-1.8066,-1.8008,-1.8008,-1.8008,-1.8008,-1.8008,-1.8008,-1.8008,-1.8008,-1.8008,-1.8008,-1.8008,-1.7978,-1.7861,-1.7725,-1.7637,-1.6997,-1.6187,-1.59,-1.5928,-1.5321,-1.4921,-1.4681,-1.4495,-1.3816,-1.3387,-1.3777,-1.4336,-1.4738,-1.5115,-1.4967,-1.4941,-1.4916,-3.351,-3.3051,-3.3305,-3.3389,-3.3541,-3.4455,-3.4861,-3.4861,-3.4844,-3.4861,-3.4783,-3.4572,-3.4021,-3.3275,-3.2862,-3.2352,-3.1213,-3.1142,-3.0878,-3.0908,-3.0851,-3.0746,-3.0597,-3.0447,-3.0238,-3.0058,-2.9849,-2.9555,-2.9186,-2.7712,-2.6695,-2.5919,-2.5255,-2.5051,-2.5096,-2.5146,-2.5322,-2.5335,-2.5372,-2.5586,-2.5937,-2.6113,-2.6126,-2.6189,-2.6239,-2.6357,-2.6113,-2.6163,-2.6352,-2.6345,-2.6382,-2.6483,-2.6508,-2.6521,-2.6521,-2.6521,-2.6521,-2.6521,-2.6521,-2.6521,-2.6521,-2.6521,-2.6521,-2.6164,-2.5441,-2.4921,-2.3963,-2.2999,-2.1962,-2.1385,-2.0789,-2.0566,-2.0518,-2.0585,-2.0303,-2.0107,-1.958,-1.916,-1.8936,-1.8506,-1.8281,-1.8105,-1.8008,-1.8008,-1.8008,-1.8008,-1.8008,-1.8008,-1.8008,-1.8008,-1.8008,-1.8008,-1.8008,-1.8008,-1.7881,-1.7666,-1.7539,-1.7402,-1.6523,-1.5487,-1.5659,-1.5794,-1.4899,-1.4094,-1.392,-1.3517,-1.2664,-1.2367,-1.268,-1.2883,-1.3021,-1.3328,-1.3558,-1.3727,-1.3873,-3.2702,-3.2439,-3.3059,-3.332,-3.3363,-3.3305,-3.3389,-3.3457,-3.3474,-3.3508,-3.3432,-3.2995,-3.2747,-3.2433,-3.179,-3.1187,-3.067,-3.0551,-3.0243,-2.9937,-2.9953,-2.9834,-2.9774,-2.9639,-2.9549,-2.9535,-2.934,-2.8812,-2.8264,-2.6989,-2.5643,-2.4574,-2.4482,-2.4305,-2.4305,-2.4406,-2.4657,-2.4745,-2.482,-2.5096,-2.5473,-2.5586,-2.5598,-2.5686,-2.5862,-2.5674,-2.5573,-2.5686,-2.5837,-2.5925,-2.605,-2.6289,-2.6414,-2.6521,-2.6521,-2.6521,-2.6521,-2.6521,-2.6521,-2.6521,-2.6521,-2.6521,-2.6521,-2.6452,-2.5721,-2.448,-2.3441,-2.2489,-2.1603,-2.1088,-2.0566,-2.0488,-2.04,-2.0234,-2.0019,-1.957,-1.8965,-1.8633,-1.8477,-1.8262,-1.8125,-1.8008,-1.8008,-1.8008,-1.8008,-1.8008,-1.8008,-1.8008,-1.8008,-1.8008,-1.8008,-1.8008,-1.8008,-1.8008,-1.7832,-1.7482,-1.7004,-1.6785,-1.5921,-1.5022,-1.5383,-1.5059,-1.3876,-1.3066,-1.3034,-1.2581,-1.1787,-1.1421,-1.1498,-1.1608,-1.1872,-1.1977,-1.2372,-1.2565,-1.2538,-3.2546,-3.2476,-3.2686,-3.2557,-3.2256,-3.1975,-3.2408,-3.3322,-3.3389,-3.3389,-3.3364,-3.322,-3.269,-3.2377,-3.1725,-3.1114,-3.0545,-3.0105,-2.9848,-2.9589,-2.937,-2.952,-2.94,-2.9101,-2.8936,-2.8712,-2.8502,-2.8137,-2.7607,-2.6406,-2.4891,-2.3669,-2.3678,-2.3565,-2.3565,-2.3491,-2.3891,-2.4142,-2.423,-2.4569,-2.4895,-2.5046,-2.5046,-2.5146,-2.5297,-2.5071,-2.5008,-2.5121,-2.5222,-2.5209,-2.5561,-2.5824,-2.585,-2.6201,-2.6521,-2.6521,-2.6521,-2.6521,-2.6521,-2.6521,-2.6496,-2.6402,-2.6402,-2.5487,-2.4696,-2.3795,-2.2914,-2.2188,-2.1385,-2.0799,-2.0527,-2.0439,-2.0244,-1.9971,-1.9727,-1.9287,-1.874,-1.8477,-1.8311,-1.8154,-1.8008,-1.8008,-1.8008,-1.8008,-1.8008,-1.8008,-1.8008,-1.8008,-1.8008,-1.8008,-1.8008,-1.8008,-1.7988,-1.791,-1.7628,-1.7261,-1.6626,-1.6047,-1.5095,-1.4171,-1.3729,-1.3206,-1.2359,-1.2039,-1.2158,-1.1685,-1.0933,-1.08,-1.0982,-1.0863,-1.0996,-1.1045,-1.1164,-1.1524,-1.1672,-3.2384,-3.223,-3.2248,-3.1968,-3.1565,-3.1291,-3.1765,-3.2459,-3.2527,-3.2544,-3.2544,-3.2493,-3.2303,-3.1924,-3.1468,-3.0914,-3.0035,-2.9695,-2.9276,-2.8704,-2.8861,-2.8712,-2.8562,-2.8457,-2.8248,-2.8008,-2.7808,-2.7571,-2.6916,-2.5714,-2.4234,-2.3283,-2.3125,-2.3125,-2.3175,-2.3251,-2.3351,-2.3552,-2.374,-2.4017,-2.428,-2.4494,-2.4494,-2.4531,-2.4632,-2.4594,-2.4318,-2.4456,-2.4695,-2.4632,-2.5008,-2.5285,-2.5385,-2.5787,-2.6088,-2.6113,-2.6433,-2.6239,-2.6163,-2.6352,-2.6289,-2.6189,-2.6126,-2.509,-2.4188,-2.3358,-2.2859,-2.2264,-2.1308,-2.0557,-2.0488,-2.0371,-2.0039,-1.9707,-1.9394,-1.9082,-1.875,-1.8437,-1.8242,-1.8066,-1.8008,-1.8008,-1.8008,-1.8008,-1.8008,-1.8008,-1.8008,-1.8008,-1.8008,-1.8008,-1.8008,-1.8008,-1.7901,-1.7862,-1.7464,-1.6834,-1.5965,-1.5141,-1.4196,-1.3277,-1.2405,-1.2241,-1.2266,-1.1877,-1.1445,-1.1031,-1.0681,-1.0618,-1.0681,-1.0618,-1.0618,-1.0708,-1.0848,-1.0982,-1.0989,-3.214,-3.1775,-3.1808,-3.164,-3.1252,-3.123,-3.1241,-3.119,-3.1326,-3.1224,-3.1292,-3.1241,-3.136,-3.1352,-3.1132,-3.053,-2.9878,-2.9437,-2.8819,-2.7705,-2.791,-2.7955,-2.7844,-2.759,-2.7754,-2.7649,-2.7458,-2.7188,-2.6215,-2.5287,-2.4266,-2.3185,-2.3125,-2.3125,-2.3125,-2.3125,-2.3201,-2.3251,-2.3339,-2.3502,-2.3791,-2.3929,-2.3941,-2.4017,-2.4167,-2.4255,-2.374,-2.3891,-2.4469,-2.4293,-2.4393,-2.4732,-2.5046,-2.5259,-2.5485,-2.5624,-2.5887,-2.5824,-2.5737,-2.5862,-2.5824,-2.5686,-2.5469,-2.4774,-2.4048,-2.3086,-2.2589,-2.1607,-2.0637,-2.0193,-2.0059,-1.9932,-1.9668,-1.9346,-1.9033,-1.8711,-1.8389,-1.8193,-1.8135,-1.8008,-1.8008,-1.8008,-1.8008,-1.8008,-1.8008,-1.8008,-1.8008,-1.8008,-1.8008,-1.8008,-1.794,-1.794,-1.7901,-1.7649,-1.6988,-1.6356,-1.523,-1.4251,-1.3368,-1.264,-1.2071,-1.2148,-1.2466,-1.1747,-1.1038,-1.0954,-1.08,-1.0681,-1.0618,-1.0618,-1.0618,-1.0618,-1.0618,-1.0681,-1.0681,-3.1367,-3.1505,-3.1707,-3.1716,-3.1603,-3.1312,-3.1173,-3.119,-3.119,-3.119,-3.119,-3.119,-3.119,-3.1151,-3.0838,-3.0335,-2.9978,-2.9225,-2.8638,-2.8091,-2.781,-2.7625,-2.756,-2.756,-2.756,-2.756,-2.7408,-2.6916,-2.5837,-2.5119,-2.4381,-2.3245,-2.3125,-2.3125,-2.3125,-2.3125,-2.3125,-2.3125,-2.3163,-2.3201,-2.3376,-2.3364,-2.3351,-2.3389,-2.3514,-2.3565,-2.3263,-2.3339,-2.3514,-2.3439,-2.3904,-2.4356,-2.4808,-2.4933,-2.4996,-2.5034,-2.5197,-2.5197,-2.5159,-2.5222,-2.5209,-2.5121,-2.4931,-2.4735,-2.4141,-2.3052,-2.1914,-2.0814,-2.0146,-1.9945,-1.9619,-1.9482,-1.9307,-1.8994,-1.8691,-1.8359,-1.8037,-1.8027,-1.8008,-1.8008,-1.8008,-1.8008,-1.8008,-1.8008,-1.8008,-1.8008,-1.8008,-1.8008,-1.8008,-1.8008,-1.7862,-1.7862,-1.791,-1.7591,-1.6751,-1.5584,-1.4345,-1.359,-1.275,-1.2195,-1.1668,-1.1573,-1.16,-1.117,-1.0751,-1.0744,-1.0737,-1.0681,-1.0618,-1.0618,-1.0618,-1.0618,-1.0618,-1.0618,-1.0618,-3.0977,-3.1123,-3.0869,-3.0886,-3.0976,-3.0815,-3.0886,-3.1157,-3.119,-3.119,-3.119,-3.119,-3.119,-3.119,-3.0838,-3.0251,-2.9935,-2.9287,-2.8543,-2.8076,-2.786,-2.766,-2.756,-2.756,-2.756,-2.756,-2.7152,-2.6496,-2.5508,-2.4908,-2.4176,-2.3245,-2.3125,-2.3125,-2.3125,-2.3125,-2.3125,-2.3125,-2.3125,-2.3125,-2.3125,-2.3125,-2.3125,-2.3125,-2.3125,-2.3125,-2.3125,-2.3125,-2.3138,-2.3175,-2.3489,-2.3653,-2.4017,-2.428,-2.4431,-2.4544,-2.4657,-2.472,-2.4594,-2.453,-2.4555,-2.4404,-2.3919,-2.3636,-2.2667,-2.1665,-2.1493,-2.0597,-2.0452,-2.0215,-1.9472,-1.9209,-1.9014,-1.875,-1.8457,-1.8154,-1.8027,-1.8018,-1.8008,-1.8008,-1.8008,-1.8008,-1.8008,-1.8008,-1.8008,-1.8008,-1.8008,-1.8008,-1.8008,-1.7774,-1.7706,-1.7396,-1.7243,-1.6643,-1.5521,-1.4416,-1.3316,-1.2626,-1.2193,-1.166,-1.1092,-1.0819,-1.0618,-1.0618,-1.0618,-1.0618,-1.0618,-1.0618,-1.0618,-1.0618,-1.0618,-1.0618,-1.0618,-1.0618,-1.0618,-3.0512,-3.0373,-2.9754,-2.9658,-2.9942,-2.9973,-3.0294,-3.0784,-3.0869,-3.0852,-3.0818,-3.092,-3.1072,-3.119,-3.1151,-3.0393,-2.9761,-2.9406,-2.867,-2.8027,-2.7725,-2.7625,-2.756,-2.756,-2.756,-2.7458,-2.71,-2.6322,-2.5398,-2.4894,-2.4337,-2.3352,-2.3125,-2.3125,-2.3125,-2.3125,-2.3125,-2.3125,-2.3125,-2.3125,-2.3125,-2.3125,-2.3125,-2.3125,-2.3125,-2.3125,-2.3125,-2.3125,-2.3125,-2.315,-2.314,-2.3215,-2.3341,-2.369,-2.3816,-2.3966,-2.4155,-2.413,-2.4004,-2.3991,-2.3865,-2.3628,-2.2871,-2.2133,-2.1205,-2.0919,-2.0762,-2.0507,-2.038,-1.995,-1.9221,-1.8857,-1.8662,-1.8525,-1.8232,-1.8037,-1.8018,-1.8008,-1.8008,-1.8008,-1.8008,-1.8008,-1.8008,-1.8008,-1.8008,-1.8008,-1.8008,-1.8008,-1.792,-1.7453,-1.722,-1.6492,-1.586,-1.5158,-1.4469,-1.351,-1.2523,-1.2163,-1.1718,-1.1106,-1.0672,-1.0658,-1.0645,-1.0618,-1.0618,-1.0618,-1.0618,-1.0618,-1.0618,-1.0618,-1.0618,-1.0618,-1.0618,-1.0618,-1.0618,-2.8866,-2.8868,-2.9024,-2.9115,-2.9178,-2.9194,-2.9279,-2.9381,-2.9448,-2.9414,-2.9651,-3.0159,-3.0598,-3.1173,-3.119,-3.0658,-2.9908,-2.9585,-2.9042,-2.8415,-2.781,-2.7625,-2.756,-2.756,-2.756,-2.7458,-2.7188,-2.6602,-2.5673,-2.5231,-2.4496,-2.3245,-2.3125,-2.3125,-2.3125,-2.3125,-2.3125,-2.3125,-2.3125,-2.3125,-2.3125,-2.3125,-2.3125,-2.3125,-2.3125,-2.3125,-2.3125,-2.3125,-2.3125,-2.3125,-2.3125,-2.3125,-2.3188,-2.3276,-2.3376,-2.3464,-2.3653,-2.3577,-2.3454,-2.3244,-2.3034,-2.2611,-2.1898,-2.1149,-2.0586,-2.0456,-2.0128,-1.954,-1.9254,-1.8853,-1.832,-1.832,-1.8193,-1.8193,-1.8027,-1.8018,-1.8008,-1.8008,-1.8008,-1.8008,-1.8008,-1.8008,-1.8008,-1.8008,-1.8008,-1.794,-1.7862,-1.7784,-1.76,-1.7163,-1.6707,-1.5674,-1.4681,-1.4405,-1.3942,-1.3016,-1.2134,-1.1711,-1.1353,-1.0928,-1.0732,-1.0698,-1.0678,-1.0631,-1.0618,-1.0618,-1.0618,-1.0618,-1.0618,-1.0618,-1.0618,-1.0618,-1.0618,-1.0618,-1.0618]},{"header":{"parameterUnit":"m.s-1","parameterCategory":1,"la1":31.0,"la2":29.5877,"lo1":-88.7671,"lo2":-86.6584,"dy":0.0162,"dx":0.0185,"nx":115,"ny":88,"refTime":"2025-11-07T00:00:00:Z","depth":0,"parameterNumber":3,"parameterNumberName":"V-component_of_WINDS"},"data":[0.0,0.0,0.0,0.0,0.0,0.0,0.0,0.0,0.0,0.0,0.0,0.0,0.0,0.0,0.0,0.0,0.0,0.0,0.0,0.0,0.0,0.0,0.0,0.0,0.0,0.0,0.0,0.0,0.0,0.0,0.0,0.0,0.0,0.0,0.0,0.0,0.0,0.0,0.0,0.0,0.0,0.0,0.0,0.0,0.0,0.0,0.0,0.0,0.0,0.0,0.0,0.0,0.0,0.0,0.0,0.0,0.0,0.0,0.0,0.0,0.0,0.0,0.0,0.0,0.0,0.0,0.0,0.0,0.0,0.0,0.0,0.0,0.0,0.0,0.0,0.0,0.0,0.0,0.0,0.0,0.0,0.0,0.0,0.0,0.0,0.0,0.0,0.0,0.0,0.0,0.0,0.0,0.0,0.0,0.0,0.0,0.0,0.0,0.0,0.0,0.0,0.0,0.0,0.0,0.0,0.0,0.0,0.0,0.0,0.0,0.0,0.0,0.0,0.0,0.0,0.0,0.0,0.0,0.0,0.0,0.0,0.0,0.0,0.0,0.0,0.0,0.0,0.0,0.0,0.0,0.0,0.0,0.0,0.0,0.0,0.0,0.0,0.0,0.0,0.0,0.0,0.0,0.0,0.0,0.0,0.0,0.0,0.0,0.0,0.0,0.0,0.0,0.0,0.0,0.0,0.0,0.0,0.0,0.0,0.0,0.0,0.0,0.0,0.0,0.0,0.0,0.0,0.0,0.0,0.0,0.0,0.0,0.0,0.0,0.0,0.0,0.0,0.0,0.0,0.0,0.0,0.0,0.0,0.0,0.0,0.0,0.0,0.0,0.0,0.0,0.0,0.0,0.0,0.0,0.0,0.0,0.0,0.0,0.0,0.0,0.0,0.0,0.0,0.0,0.0,0.0,0.0,0.0,0.0,0.0,0.0,0.0,0.0,0.0,0.0,0.0,0.0,0.0,0.0,0.0,0.0,0.0,0.0,0.0,0.0,0.0,0.0,0.0,0.0,0.0,0.0,0.0,0.0,0.0,0.0,0.0,0.0,0.0,0.0,0.0,0.0,0.0,0.0,0.0,0.0,0.0,0.0,0.0,0.0,0.0,0.0,0.0,0.0,0.0,0.0,0.0,0.0,0.0,0.0,0.0,0.0,0.0,0.0,0.0,0.0,0.0,0.0,0.0,0.0,0.0,0.0,0.0,0.0,0.0,0.0,0.0,0.0,0.0,0.0,0.0,0.0,0.0,0.0,0.0,0.0,0.0,0.0,0.0,0.0,0.0,0.0,0.0,0.0,0.0,0.0,0.0,0.0,0.0,0.0,0.0,0.0,0.0,0.0,0.0,0.0,0.0,0.0,0.0,0.0,0.0,0.0,0.0,0.0,0.0,0.0,0.0,0.0,0.0,0.0,0.0,0.0,0.0,0.0,0.0,0.0,0.0,0.0,0.0,0.0,0.0,0.0,0.0,0.0,0.0,0.0,0.0,0.0,0.0,0.0,0.0,0.0,0.0,0.0,0.0,0.0,0.0,0.0,0.0,0.0,0.0,0.0,0.0,0.0,0.0,0.0,0.0,0.0,0.0,0.0,0.0,0.0,0.0,0.0,0.0,0.0,0.0,0.0,0.0,0.0,0.0,0.0,0.0,0.0,0.0,0.0,0.0,0.0,0.0,0.0,0.0,0.0,0.0,0.0,0.0,0.0,0.0,0.0,0.0,0.0,0.0,0.0,0.0,0.0,0.0,0.0,0.0,0.0,0.0,0.0,0.0,0.0,0.0,0.0,0.0,0.0,0.0,0.0,0.0,0.0,0.0,0.0,0.0,0.0,0.0,0.0,0.0,0.0,0.0,0.0,0.0,0.0,0.0,0.0,0.0,0.0,0.0,0.0,0.0,0.0,0.0,0.0,0.0,0.0,0.0,0.0,0.0,0.0,0.0,0.0,0.0,0.0,0.0,0.0,0.0,0.0,0.0,0.0,0.0,0.0,0.0,0.0,0.0,0.0,0.0,0.0,0.0,0.0,0.0,0.0,0.0,0.0,0.0,0.0,0.0,0.0,0.0,0.0,0.0,0.0,0.0,0.0,0.0,0.0,0.0,0.0,0.0,0.0,0.0,0.0,0.0,0.0,0.0,0.0,0.0,0.0,0.0,0.0,0.0,0.0,0.0,0.0,0.0,0.0,0.0,0.0,0.0,0.0,0.0,0.0,0.0,0.0,0.0,0.0,0.0,0.0,0.0,0.0,0.0,0.0,0.0,0.0,0.0,0.0,0.0,0.0,0.0,0.0,0.0,0.0,0.0,0.0,0.0,0.0,0.0,0.0,0.0,0.0,0.0,0.0,0.0,0.0,0.0,0.0,0.0,0.0,0.0,0.0,0.0,0.0,0.0,0.0,0.0,0.0,0.0,0.0,0.0,0.0,0.0,0.0,0.0,0.0,0.0,0.0,0.0,0.0,0.0,0.0,0.0,0.0,0.0,0.0,0.0,0.0,0.0,0.0,0.0,0.0,0.0,0.0,0.0,0.0,0.0,0.0,0.0,0.0,0.0,0.0,0.0,0.0,0.0,0.0,0.0,0.0,0.0,0.0,0.0,0.0,0.0,0.0,0.0,0.0,0.0,0.0,0.0,0.0,0.0,0.0,0.0,0.0,0.0,0.0,0.0,0.0,0.0,0.0,0.0,0.0,0.0,0.0,0.0,0.0,0.0,0.0,0.0,0.0,0.0,0.0,0.0,0.0,0.0,0.0,0.0,0.0,0.0,0.0,0.0,0.0,0.0,0.0,0.0,0.0,0.0,0.0,0.0,0.0,0.0,0.0,0.0,0.0,0.0,0.0,0.0,0.0,0.0,0.0,0.0,0.0,0.0,0.0,0.0,0.0,0.0,0.0,0.0,0.0,0.0,0.0,0.0,0.0,0.0,0.0,0.0,0.0,0.0,0.0,0.0,0.0,0.0,0.0,0.0,0.0,0.0,0.0,0.0,0.0,0.0,0.0,0.0,0.0,0.0,0.0,0.0,0.0,0.0,0.0,0.0,0.0,0.0,0.0,0.0,0.0,0.0,0.0,0.0,0.0,0.0,0.0,0.0,0.0,0.0,0.0,0.0,0.0,0.0,0.0,0.0,0.0,0.0,0.0,0.0,0.0,0.0,0.0,0.0,0.0,0.0,0.0,0.0,0.0,0.0,0.0,0.0,0.0,0.0,0.0,0.0,0.0,0.0,0.0,0.0,0.0,0.0,0.0,0.0,0.0,0.0,0.0,0.0,0.0,0.0,0.0,0.0,0.0,0.0,0.0,0.0,0.0,0.0,0.0,0.0,0.0,0.0,0.0,0.0,0.0,0.0,0.0,0.0,0.0,0.0,0.0,0.0,0.0,0.0,0.0,0.0,0.0,0.0,0.0,0.0,0.0,0.0,0.0,0.0,0.0,0.0,0.0,0.0,0.0,0.0,0.0,0.0,0.0,0.0,0.0,0.0,0.0,0.0,0.0,0.0,0.0,0.0,0.0,0.0,0.0,0.0,0.0,0.0,0.0,0.0,0.0,0.0,0.0,0.0,0.0,0.0,0.0,0.0,0.0,0.0,0.0,0.0,0.0,0.0,0.0,0.0,0.0,0.0,0.0,0.0,0.0,0.0,0.0,0.0,0.0,0.0,0.0,0.0,0.0,0.0,0.0,0.0,0.0,0.0,0.0,0.0,0.0,0.0,0.0,0.0,0.0,0.0,0.0,0.0,0.0,0.0,0.0,0.0,0.0,0.0,0.0,0.0,0.0,0.0,0.0,0.0,0.0,0.0,0.0,0.0,0.0,0.0,0.0,0.0,0.0,0.0,0.0,0.0,0.0,0.0,0.0,0.0,0.0,0.0,0.0,0.0,0.0,0.0,0.0,0.0,0.0,0.0,0.0,0.0,0.0,0.0,0.0,0.0,0.0,0.0,0.0,0.0,0.0,0.0,0.0,0.0,0.0,0.0,0.0,0.0,0.0,0.0,0.0,0.0,0.0,0.0,0.0,0.0,0.0,0.0,0.0,0.0,0.0,0.0,0.0,0.0,0.0,0.0,0.0,0.0,0.0,0.0,0.0,0.0,0.0,0.0,0.0,0.0,0.0,0.0,0.0,0.0,0.0,0.0,0.0,0.0,0.0,0.0,0.0,0.0,0.0,0.0,0.0,0.0,0.0,0.0,0.0,0.0,0.0,0.0,0.0,0.0,0.0,0.0,0.0,0.0,0.0,0.0,0.0,0.0,0.0,0.0,0.0,0.0,0.0,0.0,-0.5299,0.0,0.0,0.0,0.0,0.0,0.0,0.0,0.0,0.0,0.0,0.0,0.0,0.0,0.0,0.0,0.0,0.0,0.0,0.0,0.0,0.0,0.0,0.0,0.0,0.0,0.0,0.0,0.0,0.0,0.0,0.0,0.0,0.0,0.0,0.0,0.0,0.0,0.0,0.0,0.0,0.0,0.0,0.0,0.0,0.0,0.0,0.0,0.0,0.0,0.0,0.0,0.0,0.0,0.0,0.0,0.0,0.0,0.0,0.0,0.0,0.0,0.0,0.0,0.0,0.0,0.0,0.0,0.0,0.0,0.0,0.0,0.0,0.0,0.0,0.0,0.0,0.0,0.0,0.0,0.0,0.0,0.0,0.0,0.0,0.0,0.0,0.0,0.0,0.0,0.0,0.0,0.0,0.0,0.0,0.0,0.0,0.0,0.0,0.0,0.0,0.0,0.0,0.0,0.0,0.0,0.0,0.0,0.0,0.0,0.0,-0.4632,-0.4519,-0.4736,-0.5007,-0.5277,0.0,0.0,0.0,0.0,0.0,0.0,0.0,0.0,0.0,0.0,0.0,0.0,0.0,0.0,0.0,0.0,0.0,0.0,0.0,0.0,0.0,0.0,0.0,0.0,0.0,0.0,0.0,0.0,0.0,0.0,0.0,0.0,0.0,0.0,0.0,0.0,0.0,0.0,0.0,0.0,0.0,0.0,0.0,0.0,0.0,0.0,0.0,0.0,0.0,0.0,0.0,0.0,0.0,0.0,0.0,0.0,0.0,0.0,0.0,0.0,0.0,0.0,0.0,0.0,0.0,0.0,0.0,0.0,0.0,0.0,0.0,0.0,0.0,0.0,0.0,0.0,0.0,0.0,0.0,0.0,0.0,0.0,0.0,0.0,0.0,0.0,0.0,0.0,0.0,0.0,0.0,0.0,0.0,0.0,0.0,0.0,0.0,0.0,0.0,0.0,0.0,0.0,0.0,0.0,0.0,0.0,0.0,0.0,0.0,0.0,0.0,0.0,-0.479,-0.51,-0.555,0.0,0.0,0.0,0.0,0.0,0.0,0.0,0.0,0.0,0.0,0.0,0.0,0.0,0.0,0.0,0.0,0.0,0.0,0.0,0.0,0.0,0.0,0.0,0.0,0.0,0.0,0.0,0.0,0.0,0.0,0.0,0.0,0.0,0.0,0.0,0.0,0.0,0.0,0.0,0.0,0.0,0.0,0.0,0.0,0.0,0.0,0.0,0.0,0.0,0.0,0.0,0.0,0.0,0.0,0.0,0.0,0.0,0.0,0.0,0.0,0.0,0.0,0.0,0.0,0.0,0.0,0.0,0.0,0.0,0.0,0.0,0.0,0.0,0.0,0.0,0.0,0.0,0.0,0.0,0.0,0.0,0.0,0.0,0.0,0.0,0.0,0.0,0.0,0.0,0.0,0.0,0.0,0.0,0.0,0.0,0.0,0.0,0.0,0.0,0.0,0.0,0.0,0.0,0.0,0.0,0.0,0.0,0.0,0.0,0.0,-0.467,-0.467,-0.4952,0.0,-0.6223,0.0,0.0,0.0,0.0,0.0,0.0,0.0,0.0,0.0,0.0,0.0,0.0,0.0,0.0,0.0,0.0,0.0,0.0,0.0,0.0,0.0,0.0,0.0,0.0,0.0,0.0,0.0,0.0,0.0,0.0,0.0,0.0,0.0,0.0,0.0,0.0,0.0,0.0,0.0,0.0,0.0,0.0,0.0,0.0,0.0,0.0,0.0,0.0,0.0,0.0,0.0,0.0,0.0,0.0,0.0,0.0,0.0,0.0,0.0,0.0,0.0,0.0,0.0,0.0,0.0,0.0,0.0,0.0,0.0,0.0,0.0,0.0,0.0,0.0,0.0,0.0,0.0,0.0,0.0,0.0,0.0,0.0,0.0,0.0,0.0,0.0,0.0,0.0,0.0,0.0,0.0,0.0,0.0,0.0,0.0,0.0,0.0,0.0,0.0,0.0,0.0,0.0,0.0,0.0,0.0,0.0,0.0,0.0,0.0,0.0,-0.4749,-0.4861,-0.5377,-0.5975,0.0,0.0,0.0,0.0,0.0,0.0,0.0,0.0,0.0,0.0,0.0,0.0,0.0,0.0,0.0,0.0,0.0,0.0,0.0,0.0,0.0,0.0,0.0,0.0,0.0,0.0,0.0,0.0,0.0,0.0,0.0,0.0,0.0,0.0,0.0,0.0,0.0,0.0,0.0,0.0,0.0,0.0,0.0,0.0,0.0,0.0,0.0,0.0,0.0,0.0,0.0,0.0,0.0,0.0,0.0,0.0,0.0,0.0,0.0,0.0,0.0,0.0,0.0,0.0,0.0,0.0,0.0,0.0,0.0,0.0,0.0,0.0,0.0,0.0,0.0,0.0,0.0,0.0,0.0,0.0,0.0,0.0,0.0,0.0,0.0,0.0,0.0,0.0,0.0,0.0,0.0,0.0,0.0,0.0,0.0,0.0,0.0,0.0,0.0,0.0,0.0,0.0,0.0,0.0,0.0,0.0,0.0,0.0,0.0,0.0,-0.4711,-0.4869,-0.5155,-0.5798,-0.6306,-0.687,0.0,0.0,0.0,0.0,0.0,0.0,0.0,0.0,0.0,0.0,0.0,0.0,0.0,0.0,0.0,0.0,0.0,0.0,0.0,0.0,0.0,0.0,0.0,0.0,0.0,0.0,0.0,0.0,0.0,0.0,0.0,0.0,0.0,0.0,0.0,0.0,0.0,0.0,0.0,0.0,0.0,0.0,0.0,0.0,0.0,0.0,0.0,0.0,0.0,0.0,0.0,0.0,0.0,0.0,0.0,0.0,0.0,0.0,0.0,0.0,0.0,0.0,0.0,0.0,0.0,0.0,0.0,0.0,0.0,0.0,0.0,0.0,0.0,0.0,0.0,0.0,0.0,0.0,0.0,0.0,0.0,0.0,0.0,0.0,0.0,0.0,0.0,0.0,0.0,0.0,0.0,0.0,0.0,0.0,0.0,0.0,0.0,0.0,0.0,0.0,0.0,0.0,0.0,0.0,0.0,0.0,0.0,0.0,0.0,-0.4755,-0.5086,-0.5566,-0.6048,-0.6377,0.0,0.0,0.0,0.0,0.0,0.0,0.0,0.0,0.0,0.0,0.0,0.0,0.0,0.0,0.0,0.0,0.0,0.0,0.0,0.0,0.0,0.0,0.0,0.0,0.0,0.0,0.0,0.0,0.0,0.0,0.0,0.0,0.0,0.0,0.0,0.0,0.0,0.0,0.0,0.0,0.0,0.0,0.0,0.0,0.0,0.0,0.0,0.0,0.0,0.0,0.0,0.0,0.0,0.0,0.0,0.0,0.0,0.0,0.0,0.0,0.0,0.0,0.0,0.0,0.0,0.0,0.0,0.0,0.0,0.0,0.0,0.0,0.0,0.0,0.0,0.0,0.0,0.0,0.0,0.0,0.0,0.0,0.0,0.0,0.0,0.0,0.0,0.0,0.0,0.0,0.0,0.0,0.0,0.0,0.0,0.0,0.0,0.0,0.0,0.0,0.0,0.0,0.0,0.0,0.0,0.0,0.0,0.0,0.0,-0.4646,-0.4997,-0.5448,-0.591,-0.6489,-0.6841,0.0,0.0,0.0,0.0,0.0,0.0,0.0,0.0,0.0,0.0,0.0,0.0,0.0,0.0,0.0,0.0,0.0,0.0,0.0,0.0,0.0,0.0,0.0,0.0,0.0,0.0,0.0,0.0,0.0,0.0,0.0,0.0,0.0,0.0,0.0,0.0,0.0,0.0,0.0,0.0,0.0,0.0,0.0,0.0,0.0,0.0,0.0,0.0,0.0,0.0,0.0,0.0,0.0,0.0,0.0,0.0,0.0,0.0,0.0,0.0,0.0,0.0,0.0,0.0,0.0,0.0,0.0,0.0,0.0,0.0,0.0,0.0,0.0,0.0,0.0,0.0,0.0,0.0,0.0,0.0,0.0,0.0,0.0,0.0,0.0,0.0,0.0,0.0,0.0,0.0,0.0,0.0,0.0,0.0,0.0,0.0,0.0,0.0,0.0,0.0,0.0,0.0,0.0,0.0,0.0,0.0,0.0,0.0,0.0,-0.4958,0.0,-0.5755,0.0,-0.6671,-0.7042,0.0,0.0,0.0,0.0,0.0,0.0,0.0,0.0,0.0,0.0,0.0,0.0,0.0,0.0,0.0,0.0,0.0,0.0,0.0,0.0,0.0,0.0,0.0,0.0,0.0,0.0,0.0,0.0,0.0,0.0,0.0,0.0,0.0,0.0,0.0,0.0,0.0,0.0,0.0,0.0,0.0,0.0,0.0,0.0,0.0,0.0,0.0,0.0,0.0,0.0,0.0,0.0,0.0,0.0,0.0,0.0,0.0,0.0,0.0,0.0,0.0,0.0,0.0,0.0,0.0,0.0,0.0,0.0,0.0,0.0,0.0,0.0,0.0,0.0,0.0,0.0,0.0,0.0,0.0,0.0,0.0,0.0,0.0,0.0,0.0,0.0,0.0,0.0,0.0,0.0,0.0,0.0,0.0,0.0,0.0,0.0,0.0,0.0,0.0,0.0,0.0,0.0,0.0,0.0,0.0,0.0,0.0,0.0,-0.5309,-0.5381,-0.5744,-0.6009,-0.6328,-0.6796,-0.69,0.0,0.0,0.0,0.0,0.0,0.0,0.0,0.0,0.0,0.0,0.0,0.0,0.0,0.0,0.0,0.0,0.0,0.0,0.0,0.0,0.0,0.0,0.0,0.0,0.0,0.0,0.0,0.0,0.0,0.0,0.0,0.0,0.0,0.0,0.0,0.0,0.0,0.0,0.0,0.0,0.0,0.0,0.0,0.0,0.0,0.0,0.0,0.0,0.0,0.0,0.0,0.0,0.0,0.0,0.0,0.0,0.0,0.0,0.0,0.0,0.0,0.0,0.0,0.0,0.0,0.0,0.0,0.0,0.0,0.0,0.0,0.0,0.0,0.0,0.0,0.0,0.0,0.0,0.0,0.0,0.0,0.0,0.0,0.0,0.0,0.0,0.0,0.0,0.0,0.0,0.0,0.0,0.0,0.0,0.0,0.0,0.0,0.0,0.0,0.0,0.0,0.0,0.0,0.0,0.0,0.0,0.0,0.0,0.0,-0.5751,-0.5872,-0.6189,-0.6693,-0.6988,-0.7131,0.0,0.0,0.0,0.0,0.0,0.0,0.0,0.0,0.0,0.0,0.0,0.0,0.0,0.0,0.0,0.0,0.0,0.0,0.0,0.0,0.0,0.0,0.0,0.0,0.0,0.0,0.0,0.0,0.0,0.0,0.0,0.0,0.0,0.0,0.0,0.0,0.0,0.0,0.0,0.0,0.0,0.0,0.0,0.0,0.0,0.0,0.0,0.0,0.0,0.0,0.0,0.0,0.0,0.0,0.0,0.0,0.0,0.0,0.0,0.0,0.0,0.0,0.0,0.0,0.0,0.0,0.0,0.0,0.0,0.0,0.0,0.0,0.0,0.0,0.0,0.0,0.0,0.0,0.0,0.0,0.0,0.0,0.0,0.0,0.0,0.0,0.0,0.0,0.0,0.0,0.0,0.0,0.0,0.0,0.0,0.0,0.0,0.0,0.0,0.0,0.0,0.0,0.0,0.0,0.0,0.0,0.0,0.0,0.0,-0.6696,-0.6448,-0.6602,-0.7114,-0.7231,-0.7307,-0.7377,0.0,0.0,0.0,0.0,0.0,0.0,0.0,0.0,0.0,0.0,0.0,0.0,0.0,0.0,0.0,0.0,0.0,0.0,0.0,0.0,0.0,0.0,0.0,0.0,0.0,0.0,0.0,0.0,0.0,0.0,0.0,0.0,0.0,0.0,0.0,0.0,0.0,0.0,0.0,0.0,0.0,0.0,0.0,0.0,0.0,0.0,0.0,0.0,0.0,0.0,0.0,0.0,0.0,0.0,0.0,0.0,0.0,0.0,0.0,0.0,0.0,0.0,0.0,0.0,0.0,0.0,0.0,0.0,0.0,0.0,0.0,0.0,0.0,0.0,0.0,0.0,0.0,0.0,0.0,0.0,0.0,0.0,0.0,0.0,0.0,0.0,0.0,0.0,0.0,0.0,0.0,0.0,0.0,0.0,0.0,0.0,0.0,0.0,0.0,0.0,0.0,0.0,0.0,0.0,0.0,0.0,0.0,0.0,-0.8075,-0.7481,-0.7332,-0.755,-0.7538,-0.7624,0.0,0.0,0.0,0.0,0.0,0.0,0.0,0.0,0.0,0.0,0.0,0.0,0.0,0.0,0.0,0.0,0.0,0.0,0.0,0.0,0.0,0.0,0.0,0.0,0.0,0.0,0.0,0.0,0.0,0.0,0.0,0.0,0.0,0.0,0.0,0.0,0.0,0.0,0.0,0.0,0.0,0.0,0.0,0.0,0.0,0.0,0.0,0.0,0.0,0.0,0.0,0.0,0.0,0.0,0.0,0.0,0.0,0.0,0.0,0.0,0.0,0.0,0.0,0.0,0.0,0.0,0.0,0.0,0.0,0.0,0.0,0.0,0.0,0.0,0.0,0.0,0.0,0.0,0.0,0.0,0.0,0.0,0.0,0.0,0.0,0.0,0.0,0.0,0.0,0.0,0.0,0.0,0.0,0.0,0.0,0.0,0.0,0.0,0.0,0.0,0.0,0.0,0.0,0.0,0.0,0.0,0.0,0.0,0.0,-0.957,-0.9489,-0.918,-0.8591,-0.8927,-0.8994,0.0,0.0,0.0,0.0,0.0,0.0,0.0,0.0,0.0,0.0,0.0,0.0,0.0,0.0,0.0,0.0,0.0,0.0,0.0,0.0,0.0,0.0,0.0,0.0,0.0,0.0,0.0,0.0,0.0,0.0,0.0,0.0,0.0,0.0,0.0,0.0,0.0,0.0,0.0,0.0,0.0,0.0,0.0,0.0,0.0,0.0,0.0,0.0,0.0,0.0,0.0,0.0,0.0,0.0,0.0,0.0,0.0,0.0,0.0,0.0,0.0,0.0,0.0,0.0,0.0,0.0,0.0,0.0,0.0,0.0,0.0,0.0,0.0,0.0,0.0,0.0,0.0,0.0,0.0,0.0,0.0,0.0,0.0,0.0,0.0,0.0,0.0,0.0,0.0,0.0,0.0,0.0,0.0,0.0,0.0,0.0,0.0,0.0,0.0,0.0,0.0,0.0,0.0,0.0,0.0,0.0,0.0,0.0,-1.0625,-1.0621,-1.1159,-1.1042,-1.0036,-0.9834,-0.9657,0.0,0.0,0.0,0.0,0.0,0.0,0.0,0.0,0.0,0.0,0.0,0.0,0.0,0.0,0.0,0.0,0.0,0.0,0.0,0.0,0.0,0.0,0.0,0.0,0.0,0.0,0.0,0.0,0.0,0.0,0.0,0.0,0.0,0.0,0.0,0.0,0.0,0.0,0.0,0.0,0.0,0.0,0.0,0.0,0.0,0.0,0.0,0.0,0.0,0.0,0.0,0.0,0.0,0.0,0.0,0.0,0.0,0.0,0.0,0.0,0.0,0.0,0.0,0.0,0.0,0.0,0.0,0.0,0.0,0.0,0.0,0.0,0.0,0.0,0.0,0.0,0.0,0.0,0.0,0.0,0.0,0.0,0.0,0.0,0.0,0.0,0.0,0.0,0.0,0.0,0.0,0.0,0.0,0.0,0.0,0.0,0.0,0.0,0.0,0.0,0.0,0.0,0.0,0.0,0.0,0.0,0.0,0.0,-1.1682,-1.1613,-1.2711,-1.2837,-1.1854,-1.0754,-1.0019,0.0,0.0,0.0,0.0,0.0,0.0,0.0,0.0,0.0,0.0,0.0,0.0,0.0,0.0,0.0,0.0,0.0,0.0,0.0,0.0,0.0,0.0,0.0,0.0,0.0,0.0,0.0,0.0,0.0,0.0,0.0,0.0,0.0,0.0,0.0,0.0,0.0,0.0,0.0,0.0,0.0,0.0,0.0,0.0,0.0,0.0,0.0,0.0,0.0,0.0,0.0,0.0,0.0,0.0,0.0,0.0,0.0,0.0,0.0,0.0,0.0,0.0,0.0,0.0,0.0,0.0,0.0,0.0,0.0,0.0,0.0,0.0,0.0,0.0,0.0,0.0,0.0,0.0,0.0,0.0,0.0,0.0,0.0,0.0,0.0,0.0,0.0,0.0,0.0,0.0,0.0,0.0,0.0,0.0,0.0,0.0,0.0,0.0,0.0,0.0,0.0,0.0,0.0,0.0,0.0,0.0,0.0,0.0,-1.3999,-1.5008,-1.4343,-1.4004,-1.408,-1.277,-1.1632,0.0,0.0,0.0,0.0,0.0,0.0,0.0,0.0,0.0,0.0,0.0,0.0,0.0,0.0,0.0,0.0,0.0,0.0,0.0,0.0,0.0,0.0,0.0,0.0,0.0,0.0,0.0,0.0,0.0,0.0,0.0,0.0,0.0,0.0,0.0,0.0,0.0,0.0,0.0,0.0,0.0,0.0,0.0,0.0,0.0,0.0,0.0,0.0,-2.0408,0.0,0.0,0.0,0.0,0.0,0.0,0.0,0.0,0.0,0.0,0.0,0.0,0.0,0.0,0.0,0.0,0.0,0.0,0.0,0.0,0.0,0.0,0.0,0.0,0.0,0.0,0.0,0.0,0.0,0.0,0.0,0.0,0.0,0.0,0.0,0.0,0.0,0.0,0.0,0.0,0.0,0.0,0.0,0.0,0.0,0.0,0.0,0.0,0.0,0.0,0.0,0.0,0.0,0.0,0.0,0.0,0.0,0.0,0.0,-1.4824,-1.5842,-1.4825,-1.4321,-1.4463,-1.3131,-1.1964,0.0,0.0,0.0,0.0,0.0,0.0,0.0,0.0,0.0,0.0,0.0,0.0,0.0,0.0,0.0,0.0,0.0,0.0,0.0,0.0,0.0,0.0,0.0,0.0,0.0,0.0,0.0,0.0,0.0,0.0,0.0,0.0,0.0,0.0,0.0,0.0,0.0,0.0,0.0,0.0,0.0,0.0,0.0,0.0,0.0,0.0,0.0,0.0,0.0,0.0,0.0,0.0,0.0,0.0,0.0,0.0,0.0,0.0,0.0,0.0,0.0,0.0,0.0,0.0,0.0,0.0,0.0,0.0,0.0,0.0,0.0,0.0,0.0,0.0,0.0,0.0,0.0,0.0,0.0,0.0,0.0,0.0,0.0,0.0,0.0,0.0,0.0,0.0,0.0,0.0,0.0,0.0,0.0,0.0,0.0,0.0,0.0,0.0,0.0,0.0,0.0,0.0,0.0,0.0,0.0,0.0,0.0,-1.4814,-1.5346,-1.607,-1.5138,-1.4626,-1.4597,-1.3193,-1.2084,-1.1519,0.0,0.0,0.0,0.0,0.0,0.0,0.0,0.0,0.0,0.0,0.0,0.0,0.0,0.0,0.0,0.0,0.0,0.0,0.0,0.0,0.0,0.0,0.0,0.0,0.0,0.0,0.0,0.0,0.0,0.0,0.0,0.0,0.0,0.0,0.0,0.0,0.0,0.0,-1.8041,-1.975,0.0,0.0,0.0,0.0,0.0,0.0,0.0,0.0,-2.147,0.0,0.0,0.0,0.0,0.0,0.0,0.0,0.0,0.0,0.0,0.0,0.0,0.0,0.0,0.0,0.0,0.0,0.0,0.0,0.0,0.0,0.0,0.0,0.0,0.0,0.0,0.0,0.0,0.0,0.0,0.0,0.0,0.0,0.0,0.0,0.0,0.0,0.0,0.0,0.0,0.0,0.0,0.0,0.0,0.0,0.0,0.0,0.0,0.0,0.0,0.0,0.0,0.0,0.0,0.0,0.0,-1.5706,-1.6426,-1.7227,-1.8046,-1.6872,-1.6395,-1.6622,-1.4632,-1.3282,-1.2826,0.0,0.0,0.0,0.0,0.0,0.0,0.0,0.0,0.0,0.0,0.0,0.0,0.0,0.0,0.0,0.0,0.0,0.0,0.0,0.0,0.0,0.0,0.0,0.0,0.0,0.0,0.0,0.0,0.0,0.0,0.0,0.0,0.0,0.0,0.0,0.0,0.0,0.0,0.0,-2.0976,-2.1575,0.0,0.0,0.0,0.0,0.0,0.0,0.0,0.0,-2.1844,0.0,0.0,0.0,0.0,0.0,0.0,0.0,0.0,0.0,0.0,0.0,0.0,0.0,0.0,0.0,0.0,0.0,0.0,0.0,0.0,0.0,0.0,0.0,0.0,0.0,0.0,0.0,0.0,0.0,0.0,0.0,0.0,0.0,0.0,0.0,0.0,0.0,0.0,0.0,0.0,0.0,0.0,0.0,0.0,0.0,0.0,0.0,0.0,0.0,0.0,0.0,0.0,0.0,0.0,0.0,-1.688,-1.7402,-1.8119,-1.8849,-1.743,-1.6657,-1.6838,-1.4959,-1.3716,0.0,0.0,0.0,0.0,0.0,0.0,0.0,0.0,0.0,0.0,0.0,0.0,0.0,0.0,0.0,0.0,0.0,0.0,0.0,0.0,0.0,0.0,0.0,0.0,0.0,0.0,0.0,0.0,0.0,0.0,0.0,0.0,0.0,0.0,0.0,0.0,0.0,0.0,0.0,0.0,-2.2592,-2.334,-2.3684,0.0,0.0,0.0,0.0,0.0,0.0,-2.3894,-2.3595,0.0,0.0,0.0,0.0,0.0,0.0,0.0,0.0,0.0,0.0,0.0,0.0,0.0,0.0,0.0,0.0,0.0,0.0,0.0,0.0,0.0,0.0,0.0,0.0,0.0,0.0,0.0,0.0,0.0,0.0,0.0,0.0,0.0,0.0,0.0,0.0,0.0,0.0,0.0,0.0,0.0,0.0,0.0,0.0,0.0,0.0,0.0,0.0,0.0,0.0,0.0,0.0,0.0,0.0,0.0,-1.7818,-1.8211,-1.8678,-1.9257,-1.7862,-1.7051,-1.6835,-1.5331,-1.407,0.0,0.0,0.0,0.0,0.0,0.0,0.0,0.0,0.0,0.0,0.0,0.0,0.0,0.0,0.0,0.0,0.0,0.0,0.0,0.0,0.0,0.0,0.0,0.0,0.0,0.0,0.0,0.0,0.0,0.0,0.0,0.0,0.0,0.0,0.0,0.0,0.0,0.0,0.0,0.0,0.0,-2.5076,-2.5719,-2.5809,0.0,0.0,0.0,0.0,-2.5226,-2.5899,0.0,0.0,0.0,0.0,0.0,0.0,0.0,0.0,0.0,0.0,0.0,0.0,0.0,0.0,0.0,0.0,0.0,0.0,0.0,0.0,0.0,0.0,0.0,0.0,0.0,0.0,0.0,0.0,0.0,0.0,0.0,0.0,0.0,0.0,0.0,0.0,0.0,0.0,0.0,0.0,0.0,0.0,0.0,0.0,0.0,0.0,0.0,0.0,0.0,0.0,0.0,0.0,0.0,0.0,0.0,0.0,-1.8089,-1.8977,-1.9371,-1.9312,-1.909,-1.8633,-1.7842,-1.6405,-1.5235,0.0,0.0,0.0,0.0,0.0,0.0,0.0,0.0,0.0,0.0,0.0,0.0,0.0,0.0,0.0,0.0,0.0,0.0,0.0,0.0,0.0,0.0,0.0,0.0,0.0,0.0,0.0,0.0,0.0,0.0,0.0,0.0,0.0,0.0,0.0,0.0,0.0,0.0,0.0,0.0,0.0,-2.5734,-2.6393,-2.6482,-2.6452,0.0,0.0,-2.723,-2.723,-2.8293,0.0,0.0,0.0,0.0,0.0,0.0,0.0,0.0,0.0,0.0,0.0,0.0,0.0,0.0,0.0,0.0,0.0,0.0,0.0,0.0,0.0,0.0,0.0,0.0,0.0,0.0,0.0,0.0,0.0,0.0,0.0,0.0,0.0,0.0,0.0,0.0,0.0,0.0,0.0,0.0,0.0,0.0,0.0,0.0,0.0,0.0,0.0,0.0,0.0,0.0,0.0,0.0,0.0,0.0,0.0,-1.69,-1.8482,-1.945,-1.981,-1.9499,-1.9094,-1.853,-1.7656,-1.6315,-1.5128,0.0,0.0,0.0,0.0,0.0,0.0,0.0,0.0,0.0,0.0,0.0,0.0,0.0,0.0,0.0,0.0,0.0,0.0,0.0,0.0,0.0,0.0,0.0,0.0,0.0,0.0,0.0,0.0,0.0,0.0,0.0,0.0,0.0,0.0,0.0,0.0,0.0,0.0,0.0,0.0,0.0,0.0,-2.7649,-2.8353,0.0,0.0,0.0,-2.922,-2.9235,0.0,0.0,0.0,0.0,0.0,0.0,0.0,0.0,0.0,0.0,0.0,0.0,0.0,0.0,0.0,0.0,0.0,0.0,0.0,0.0,0.0,0.0,0.0,0.0,0.0,0.0,0.0,0.0,0.0,0.0,0.0,0.0,0.0,0.0,0.0,0.0,0.0,0.0,0.0,0.0,0.0,0.0,0.0,0.0,0.0,0.0,0.0,0.0,0.0,0.0,0.0,0.0,0.0,0.0,0.0,0.0,0.0,-1.8846,-1.983,-2.017,-1.9799,-1.9095,-1.8312,-1.7501,-1.6058,0.0,0.0,0.0,0.0,0.0,0.0,0.0,0.0,0.0,0.0,0.0,0.0,0.0,0.0,0.0,0.0,0.0,0.0,0.0,0.0,0.0,0.0,0.0,0.0,0.0,0.0,0.0,-1.3145,0.0,0.0,0.0,0.0,0.0,0.0,0.0,0.0,0.0,0.0,0.0,0.0,0.0,0.0,-2.818,-2.9057,-3.0153,-3.0754,0.0,0.0,-3.0874,-3.0776,-3.0657,-2.9993,0.0,0.0,0.0,0.0,0.0,0.0,0.0,0.0,0.0,0.0,0.0,0.0,0.0,0.0,0.0,0.0,0.0,0.0,0.0,0.0,0.0,0.0,0.0,0.0,0.0,0.0,0.0,0.0,0.0,0.0,0.0,0.0,0.0,0.0,0.0,0.0,0.0,0.0,0.0,0.0,0.0,0.0,0.0,0.0,0.0,0.0,0.0,0.0,0.0,0.0,0.0,0.0,0.0,0.0,0.0,-1.8933,-2.0085,-2.0527,-2.0134,-1.9454,-1.8687,-1.776,-1.5886,-1.4577,0.0,0.0,0.0,0.0,0.0,0.0,0.0,0.0,0.0,0.0,0.0,0.0,0.0,0.0,0.0,0.0,0.0,0.0,0.0,0.0,0.0,0.0,0.0,0.0,0.0,0.0,0.0,0.0,0.0,0.0,0.0,0.0,0.0,0.0,0.0,0.0,0.0,0.0,0.0,0.0,0.0,-2.9147,-3.0522,-3.1394,-3.2004,0.0,0.0,-3.1792,-3.1465,-3.2437,-3.2212,-2.9222,0.0,0.0,0.0,0.0,0.0,0.0,0.0,0.0,0.0,0.0,0.0,0.0,0.0,0.0,0.0,0.0,0.0,0.0,0.0,0.0,0.0,0.0,0.0,0.0,0.0,0.0,0.0,0.0,0.0,0.0,0.0,0.0,0.0,0.0,0.0,0.0,0.0,0.0,0.0,0.0,0.0,0.0,0.0,0.0,0.0,0.0,0.0,0.0,0.0,0.0,0.0,0.0,0.0,-1.7174,-1.8505,-1.9936,-2.0372,-1.974,-1.9526,-1.9011,-1.8137,-1.6536,-1.5431,0.0,0.0,0.0,0.0,0.0,0.0,0.0,0.0,0.0,0.0,0.0,0.0,0.0,0.0,0.0,0.0,0.0,0.0,0.0,0.0,0.0,0.0,0.0,0.0,0.0,0.0,0.0,0.0,-1.6593,-1.7015,-1.694,0.0,0.0,0.0,0.0,0.0,0.0,0.0,0.0,0.0,0.0,-3.0682,-3.1809,-3.2908,0.0,0.0,-3.3412,-3.3482,-3.3222,-3.2887,-3.2029,-3.031,-2.8444,0.0,0.0,0.0,0.0,0.0,0.0,0.0,0.0,0.0,0.0,0.0,0.0,0.0,0.0,0.0,0.0,0.0,0.0,0.0,0.0,0.0,0.0,0.0,0.0,0.0,0.0,0.0,0.0,0.0,0.0,0.0,0.0,0.0,0.0,0.0,0.0,0.0,0.0,0.0,0.0,0.0,0.0,0.0,0.0,0.0,0.0,0.0,0.0,0.0,0.0,0.0,0.0,-1.7074,-1.8191,-1.966,-2.0122,-1.9546,-1.9395,-1.9054,-1.8396,-1.7123,-1.621,0.0,0.0,0.0,0.0,0.0,0.0,0.0,0.0,0.0,0.0,0.0,0.0,0.0,0.0,0.0,0.0,0.0,0.0,0.0,0.0,0.0,0.0,0.0,0.0,0.0,0.0,0.0,0.0,-1.7181,-1.7517,-1.7224,0.0,0.0,0.0,0.0,0.0,0.0,0.0,0.0,0.0,0.0,-3.2045,-3.2915,-3.4041,-3.4663,-3.427,-3.4338,-3.4414,-3.4333,-3.3124,-3.1918,-3.1171,0.0,0.0,0.0,0.0,0.0,0.0,0.0,0.0,0.0,0.0,0.0,0.0,0.0,0.0,0.0,0.0,0.0,0.0,0.0,0.0,0.0,0.0,0.0,0.0,0.0,0.0,0.0,-1.1027,0.0,0.0,-1.0615,0.0,0.0,0.0,0.0,0.0,0.0,0.0,0.0,0.0,0.0,0.0,0.0,0.0,0.0,0.0,0.0,0.0,0.0,0.0,0.0,0.0,0.0,-1.7087,-1.8204,-1.9284,-1.9823,-1.9772,-1.9109,-1.875,-1.8685,-1.7576,-1.6701,-1.6008,0.0,0.0,0.0,0.0,0.0,0.0,0.0,0.0,0.0,0.0,0.0,0.0,0.0,0.0,0.0,0.0,0.0,0.0,0.0,0.0,0.0,0.0,0.0,0.0,0.0,0.0,-1.596,-1.6724,-1.7298,0.0,0.0,0.0,0.0,0.0,0.0,0.0,0.0,0.0,0.0,-3.0687,-3.3063,-3.3856,-3.4584,-3.5142,-3.5502,-3.4703,-3.4194,-3.4579,-3.3335,-3.2137,0.0,0.0,0.0,0.0,0.0,0.0,0.0,0.0,0.0,0.0,0.0,0.0,0.0,0.0,0.0,0.0,0.0,0.0,0.0,0.0,0.0,0.0,0.0,0.0,0.0,0.0,0.0,-1.3421,-1.358,0.0,0.0,0.0,0.0,0.0,0.0,0.0,0.0,0.0,0.0,0.0,-1.6385,-1.6973,0.0,0.0,0.0,0.0,0.0,0.0,0.0,0.0,0.0,0.0,0.0,0.0,-1.7463,-1.8204,-1.9258,-1.9798,-1.9798,-1.9527,-1.9423,-1.9411,-1.8714,-1.7666,-1.6292,0.0,0.0,0.0,0.0,0.0,0.0,0.0,0.0,0.0,0.0,0.0,0.0,0.0,0.0,0.0,0.0,0.0,0.0,0.0,0.0,0.0,0.0,0.0,0.0,0.0,-1.6592,0.0,0.0,0.0,0.0,0.0,0.0,0.0,0.0,0.0,0.0,0.0,-2.8366,-3.0924,-3.311,-3.4615,-3.5005,-3.5719,-3.6054,0.0,0.0,0.0,0.0,0.0,0.0,0.0,0.0,0.0,0.0,0.0,0.0,0.0,0.0,-3.0303,-2.7538,-2.7097,-2.7034,-2.6645,0.0,0.0,0.0,0.0,0.0,0.0,0.0,0.0,0.0,0.0,0.0,0.0,0.0,0.0,-1.5617,-1.5428,-1.5274,0.0,0.0,0.0,0.0,0.0,0.0,0.0,0.0,-1.7026,-1.8039,-1.8569,-1.943,-2.0076,0.0,-1.9757,-1.84,0.0,0.0,0.0,0.0,0.0,0.0,0.0,0.0,-1.7752,-1.8493,-1.9359,-1.9798,-1.9798,-1.9798,-1.9798,-1.9786,-1.9296,-1.8369,-1.706,-1.5919,-1.4835,0.0,0.0,0.0,0.0,0.0,0.0,0.0,0.0,0.0,0.0,0.0,0.0,0.0,0.0,0.0,0.0,0.0,0.0,0.0,0.0,0.0,0.0,0.0,-1.7563,0.0,0.0,0.0,0.0,0.0,0.0,0.0,0.0,0.0,-2.5834,-2.8268,-3.0799,-3.2813,-3.4427,-3.5441,-3.5577,0.0,0.0,0.0,0.0,0.0,0.0,0.0,-3.46,-3.4447,-3.4218,-3.4272,-3.4911,-3.533,-3.5547,-3.553,0.0,0.0,-3.1139,-3.0566,-3.052,-3.0145,-3.0425,-3.0952,-3.1632,-3.2142,-3.2619,0.0,0.0,0.0,0.0,0.0,0.0,0.0,0.0,-1.783,-1.7636,0.0,-1.722,0.0,0.0,0.0,0.0,-1.4651,-1.6634,0.0,0.0,-1.9493,-2.0593,-2.0364,-2.1718,-2.2204,-2.1788,-2.1362,-2.0965,-2.0366,-1.738,0.0,0.0,0.0,0.0,0.0,0.0,-1.7965,-1.8995,-1.9535,-1.9798,-1.9798,-1.9798,-1.9798,-1.9837,-1.9334,-1.8818,-1.8276,-1.7194,-1.6099,-1.5004,-1.4101,0.0,0.0,0.0,0.0,0.0,0.0,0.0,0.0,0.0,0.0,0.0,0.0,0.0,0.0,0.0,0.0,0.0,0.0,0.0,0.0,-1.7395,0.0,0.0,0.0,0.0,0.0,0.0,0.0,0.0,0.0,0.0,-2.7855,-3.0935,-3.3313,-3.3363,0.0,0.0,0.0,0.0,-3.5656,-3.5673,-3.569,-3.5707,-3.5723,-3.5633,-3.5616,-3.5661,0.0,0.0,-3.7433,-3.7468,-3.7386,-3.7386,-3.7502,-3.6816,-3.4399,-3.3889,-3.3822,-3.3943,-3.3977,-3.4247,-3.4767,-3.5077,-3.5224,-1.8547,0.0,0.0,0.0,0.0,-1.8201,-1.9033,-2.0157,-2.011,-1.986,-1.9463,-1.9268,0.0,0.0,0.0,0.0,0.0,0.0,-1.9027,-1.9199,-2.0561,-2.186,-2.312,-2.3861,-2.409,-2.3872,-2.343,-2.2668,-2.1738,-2.0087,-1.8692,-1.7612,0.0,0.0,0.0,0.0,-1.8803,-1.9045,-1.9535,-1.9798,-1.9798,-1.9798,-2.0042,-2.0497,-2.0433,-2.008,-1.9525,-1.878,-1.7635,-1.6137,-1.5854,0.0,0.0,0.0,0.0,0.0,0.0,0.0,0.0,0.0,0.0,0.0,0.0,0.0,0.0,0.0,0.0,0.0,0.0,0.0,-1.7319,-1.8949,-1.9955,0.0,0.0,0.0,0.0,0.0,0.0,0.0,0.0,0.0,-3.2444,-3.2951,-3.3753,0.0,0.0,-3.5639,-3.5639,-3.6079,-3.6451,-3.6451,-3.6907,0.0,-3.7246,-3.7216,-3.7199,-3.7246,-3.7824,-3.8381,-3.8535,-3.8991,-3.9278,-3.9278,-3.9345,-3.9109,-3.8403,-3.741,-3.674,-3.6771,-3.7141,-3.7545,-3.778,-3.8218,-3.8621,-2.2233,-2.1296,-2.0155,-1.9907,-2.0391,-2.0633,-2.1216,-2.1942,-2.1855,-2.1461,-2.083,-2.0732,-1.9932,-1.8703,-1.9002,0.0,0.0,0.0,-2.1011,-2.1246,-2.2364,-2.3436,-2.4598,-2.5284,-2.532,-2.4768,-2.4481,-2.374,-2.2636,-2.1757,-2.1072,-2.0421,0.0,0.0,-1.8584,-1.9407,-1.9961,-2.0074,-2.0165,-2.0194,-2.0207,-2.0194,-2.0497,-2.1099,-2.1178,-2.0937,-2.0408,-1.9997,-1.911,-1.7623,-1.741,-1.6613,0.0,0.0,0.0,0.0,0.0,0.0,0.0,0.0,0.0,0.0,0.0,-1.356,-1.4513,0.0,0.0,0.0,-1.6909,-1.8065,-1.9381,-2.102,0.0,0.0,0.0,0.0,0.0,0.0,0.0,-3.0049,-3.2063,-3.3677,-3.4387,-3.4641,-3.5081,-3.596,-3.6096,-3.6079,-3.6062,0.0,-3.7229,-3.7229,-3.7618,-3.7922,-3.7922,-3.8159,-3.843,-3.8734,-3.914,-3.9428,-3.9428,-3.98,-4.007,-4.0087,-4.0087,-4.0087,-4.0087,-3.9343,-3.8768,-3.8785,-3.9106,-3.9411,-3.9428,-3.9766,-4.0087,-2.5117,-2.498,-2.3053,-2.2275,-2.2418,-2.2979,-2.2998,-2.2656,-2.3027,-2.249,-2.1387,-2.1768,-2.1536,-2.0868,-2.1712,0.0,-2.2056,-2.2902,-2.3231,-2.3089,-2.4425,-2.5075,-2.5146,-2.6082,-2.5912,-2.4883,-2.4845,-2.4268,-2.3153,-2.2636,-2.2783,-2.3495,-2.1409,-2.0306,-2.026,-2.0721,-2.1218,-2.1697,-2.1161,-2.0894,-2.0845,-2.0944,-2.121,-2.1758,-2.1796,-2.1518,-2.1018,-2.0876,-2.0321,-1.9142,-1.8745,-1.8068,-1.6937,0.0,0.0,0.0,0.0,0.0,0.0,0.0,0.0,0.0,0.0,0.0,0.0,0.0,0.0,0.0,-1.9421,0.0,-2.1745,-2.3478,0.0,0.0,0.0,-2.8059,-2.8999,-2.9812,-3.0903,-3.2307,0.0,0.0,-3.4573,-3.5842,-3.6705,-3.6789,-3.6869,-3.6857,-3.6789,-3.7466,-3.799,-3.799,-3.8075,-3.8108,-3.8244,-3.87,-3.9259,-3.9834,-4.0087,-4.0037,-4.0037,-4.0104,-4.007,-4.0087,-4.0087,-4.0087,-4.0087,-4.0003,-4.007,-4.0003,-4.0037,-4.0054,-4.0037,-4.0054,-4.0087,-2.5576,-2.5537,-2.5042,-2.4487,-2.3884,-2.4062,-2.3877,-2.3506,-2.3594,-2.3096,-2.2227,-2.2324,-2.2539,-2.2939,-2.4641,-2.4791,-2.3706,-2.4748,-2.4956,-2.4554,-2.4803,-2.537,-2.6176,-2.6396,-2.6088,-2.541,-2.5008,-2.4469,-2.3791,-2.3226,-2.3018,-2.3141,-2.3259,-2.2981,-2.2235,-2.186,-2.168,-2.1697,-2.1568,-2.1472,-2.1472,-2.1974,-2.2314,-2.2452,-2.2454,-2.2178,-2.1525,-2.0998,-2.0161,-1.9045,-1.9232,-1.8845,-1.7619,-1.7276,0.0,0.0,0.0,0.0,0.0,0.0,0.0,0.0,0.0,-1.6577,-1.7894,0.0,-1.9235,0.0,-2.1155,-2.2699,-2.3794,-2.5933,0.0,0.0,-2.9147,-3.0477,-3.1354,-3.2154,-3.2966,-3.3863,-3.4624,-3.5385,-3.6129,-3.6045,-3.6113,-3.6705,-3.7263,-3.7432,-3.6924,-3.7922,-3.8734,-3.8768,-3.9174,-3.9563,-3.9512,-3.9698,-3.9868,-4.0054,-4.0087,-4.0087,-4.0087,-4.0087,-4.0087,-4.0087,-4.0087,-4.0087,-4.0087,-4.0087,-4.0087,-4.0087,-4.0087,-4.0087,-4.0087,-4.0087,-4.0087,-2.5128,-2.5732,-2.5732,-2.5449,-2.499,-2.4785,-2.4463,-2.4062,-2.3877,-2.3418,-2.2793,-2.3278,-2.3846,-2.4534,-2.6167,-2.6586,-2.6036,-2.6324,-2.6285,-2.6005,-2.5773,-2.5943,-2.6452,-2.6521,-2.6163,-2.5586,-2.5071,-2.4531,-2.3991,-2.3414,-2.3436,-2.4073,-2.4273,-2.4427,-2.4529,-2.3894,-2.3385,-2.2991,-2.2441,-2.2161,-2.2146,-2.2498,-2.283,-2.3098,-2.3094,-2.281,-2.2175,-2.1766,-2.1,-1.9781,-1.9976,-1.9695,-1.8702,-1.8337,-1.7667,0.0,0.0,0.0,0.0,0.0,0.0,0.0,0.0,0.0,0.0,0.0,-2.1554,-2.2561,-2.4169,-2.5621,-2.6693,-2.8649,-2.9919,-3.0191,-3.1604,-3.2731,-3.322,-3.3931,-3.4539,-3.4945,-3.5351,-3.5774,-3.6197,-3.6197,-3.6146,-3.6282,-3.7212,-3.777,-3.7483,-3.8278,-3.9089,-3.9428,-3.9817,-4.0087,-4.0087,-4.0087,-4.0087,-4.0087,-4.0087,-4.0087,-4.0087,-4.0087,-4.0087,-4.0087,-4.0087,-4.0087,-4.0087,-4.0087,-4.0087,-4.0087,-4.0087,-4.0087,-4.0087,-4.0087,-4.0087,-2.4205,-2.543,-2.5373,-2.545,-2.5615,-2.5117,-2.4717,-2.4394,-2.3965,-2.3545,-2.3222,-2.4457,-2.5308,-2.5811,-2.7015,-2.7858,-2.8185,-2.772,-2.7431,-2.7256,-2.6791,-2.6527,-2.6521,-2.6521,-2.6201,-2.5699,-2.5172,-2.4632,-2.4104,-2.3527,-2.3936,-2.5259,-2.4791,-2.527,-2.6594,-2.6153,-2.5495,-2.4716,-2.361,-2.3033,-2.296,-2.296,-2.3156,-2.3551,-2.352,-2.3236,-2.2739,-2.2634,-2.2024,-2.0917,-2.0842,-2.0528,-1.9854,-1.9346,-1.8747,0.0,-1.7488,0.0,0.0,0.0,0.0,0.0,0.0,0.0,0.0,-2.2129,-2.4276,-2.6306,-2.7705,-2.8907,-2.9842,-3.1308,-3.232,-3.2538,-3.3717,-3.4587,-3.4675,-3.5233,-3.5639,-3.5639,-3.5639,-3.5639,-3.5673,-3.6231,-3.6349,-3.5893,-3.6688,-3.7483,-3.7787,-3.8447,-3.9242,-3.9969,-4.0087,-4.0087,-4.0087,-4.0087,-4.0087,-4.0087,-4.0087,-4.0087,-4.0087,-4.0087,-4.0087,-4.0087,-4.0087,-4.0054,-3.9969,-3.9918,-3.9868,-3.9715,-3.9681,-3.9766,-4.002,-4.0087,-4.0037,-2.2868,-2.407,-2.3642,-2.42,-2.5127,-2.4365,-2.418,-2.4385,-2.3975,-2.3545,-2.3222,-2.5316,-2.6262,-2.6501,-2.8476,-2.9149,-2.8775,-2.8674,-2.8134,-2.7281,-2.7168,-2.6892,-2.6533,-2.6521,-2.6471,-2.6264,-2.5724,-2.5172,-2.4669,-2.4117,-2.4219,-2.498,-2.5163,-2.5816,-2.7026,0.0,0.0,0.0,-2.5161,-2.4787,-2.4282,-2.4253,-2.403,-2.361,-2.3116,0.0,-2.2724,-2.2158,-2.1769,-2.153,-2.1515,0.0,0.0,0.0,0.0,0.0,0.0,0.0,0.0,0.0,0.0,0.0,-2.4029,-2.3851,-2.3035,-2.5407,-2.7747,-2.9535,-3.0568,-3.1332,-3.1786,-3.3119,-3.404,-3.4074,-3.4834,-3.5374,-3.5419,-3.5537,-3.5639,-3.5639,-3.5639,-3.5639,-3.5656,-3.5757,-3.5791,-3.5673,-3.5859,-3.6299,-3.6941,-3.8125,-3.9208,-3.9918,-3.9986,-4.0054,-4.0087,-4.0054,-4.0087,-4.0087,-4.0087,-4.0087,-4.0087,-4.0087,-4.007,-4.0054,-4.0087,-3.9851,-3.9309,-3.9208,-3.9022,-3.843,-3.8345,-3.8684,-3.9817,-4.007,-3.9901,-2.1427,-2.3087,-2.2889,-2.3578,0.0,-2.4062,-2.3916,-2.4072,-2.3652,-2.335,-2.3222,-2.4882,-2.5964,-2.6554,-2.8199,-2.9127,-2.934,-2.9051,-2.8637,-2.8072,-2.7532,-2.713,-2.6924,-2.659,-2.6521,-2.6496,-2.5875,-2.5711,-2.5794,-2.4983,-2.511,-2.6162,-2.6032,-2.6443,-2.7372,-2.7524,-2.7081,-2.6093,-2.5764,-2.545,-2.5136,-2.5121,-2.4792,-2.4133,-2.3789,0.0,0.0,0.0,0.0,0.0,0.0,0.0,0.0,0.0,0.0,-2.1231,-2.1769,-2.2443,-2.3071,-2.3146,-2.3679,-2.4935,-2.6269,-2.691,-2.6551,-2.816,-3.0003,-3.1924,-3.2754,-3.3397,-3.3931,-3.4624,-3.503,-3.5064,-3.5385,-3.5639,-3.5639,-3.5639,-3.5639,-3.5639,-3.5639,-3.5639,-3.5639,-3.5639,-3.5639,-3.5639,-3.5639,-3.5893,-3.6654,-3.7398,-3.8159,-3.8886,-3.9343,-3.9546,-3.958,-3.9884,-4.007,-4.0087,-4.0087,-4.0087,-4.0087,-4.0087,-3.9969,-3.9648,-3.9529,-3.9309,-3.865,-3.8464,-3.8328,-3.8007,-3.7922,-3.8091,-3.8886,-3.8988,-3.892,-1.9707,-2.1925,-2.2043,-2.2879,-2.3982,-2.3757,-2.3672,-2.3652,-2.3291,0.0,0.0,-2.4296,-2.5294,-2.6307,-2.7522,-2.8597,-2.9431,-2.9226,-2.9026,-2.8888,-2.7883,-2.7369,-2.7256,-2.6728,-2.6521,-2.6508,-2.5975,-2.6138,-2.6839,-2.5902,-2.6149,-2.7506,-2.6985,-2.698,-2.7575,-2.756,-2.7305,-2.6767,-2.6228,-2.5899,-2.5794,-2.5779,-2.5465,-2.4761,-2.4761,-2.4298,-2.3293,-2.3191,-2.2936,-2.2428,-2.2398,-2.2338,-2.2248,-2.2832,-2.3131,-2.3056,-2.361,-2.4253,-2.4881,-2.5076,-2.5573,-2.6546,-2.8404,-2.9657,-3.0206,-3.0739,-3.1843,-3.3789,-3.4393,-3.4945,-3.5571,-3.5622,-3.5639,-3.5639,-3.5639,-3.5639,-3.5639,-3.5639,-3.5639,-3.5639,-3.5639,-3.5639,-3.5639,-3.5639,-3.5639,-3.5639,-3.5639,-3.5808,-3.6451,-3.6891,-3.7381,-3.7973,-3.8497,-3.8802,-3.8886,-3.9394,-3.9851,-3.9817,-3.9851,-3.9884,-3.9868,-3.9783,-3.9445,-3.8903,-3.8802,-3.8481,-3.7889,-3.7702,-3.7652,-3.7533,-3.7499,-3.7499,-3.7499,-3.7499,-3.755,-1.786,-1.9303,-1.9947,-2.1052,-2.2355,-2.2955,-2.3223,-2.3232,-2.3174,-2.3144,-2.3222,-2.4296,-2.4872,-2.5126,-2.7174,-2.8176,-2.8426,-2.9279,-2.9402,-2.89,-2.8273,-2.7733,-2.7256,-2.6716,-2.6521,-2.6521,-2.6445,-2.6534,-2.6841,-2.6707,-2.7216,-2.8082,-2.7674,-2.7433,-2.7604,-2.756,-2.758,-2.749,-2.7385,-2.7021,-2.6467,-2.6452,-2.6138,-2.551,-2.548,-2.5405,-2.5211,-2.5166,-2.5151,-2.5061,-2.5061,-2.4807,-2.4238,-2.4822,-2.4941,-2.4448,-2.4971,-2.5615,-2.6288,-2.6841,-2.8183,-3.0497,-3.2012,-3.2875,-3.2998,-3.3096,-3.3756,-3.5155,-3.5374,-3.5504,-3.5622,-3.5639,-3.5639,-3.5639,-3.5639,-3.5639,-3.5639,-3.5639,-3.5639,-3.5639,-3.5639,-3.5639,-3.5639,-3.5639,-3.5639,-3.5639,-3.5639,-3.5673,-3.5977,-3.6924,-3.7686,-3.7889,-3.7973,-3.8058,-3.8125,-3.8667,-3.9089,-3.914,-3.914,-3.914,-3.914,-3.8734,-3.8328,-3.8091,-3.8058,-3.7753,-3.7094,-3.6941,-3.6705,-3.6265,-3.6146,-3.6079,-3.6129,-3.6096,-3.6248,-1.6994,-1.8205,-1.9252,-2.0388,-2.1663,-2.2675,-2.3144,-2.3144,-2.3144,-2.3144,-2.3144,-2.3627,-2.4211,-2.4957,-2.6532,-2.7522,-2.8164,-2.9287,-2.9654,-2.9365,-2.8812,-2.8247,-2.7708,-2.7168,-2.6753,-2.6533,-2.6521,-2.6764,-2.7275,-2.6946,-2.7509,-2.8757,-2.8323,-2.8098,-2.8128,-2.7805,-2.756,-2.756,-2.756,-2.7425,-2.7141,-2.7126,-2.6797,-2.6168,-2.6138,-2.5974,-2.563,-2.56,-2.56,-2.56,-2.56,-2.5465,-2.5211,-2.5779,-2.6004,-2.5734,-2.6303,-2.6976,-2.7634,-2.8657,-3.0064,-3.195,-3.2979,-3.3889,-3.4626,-3.4333,-3.4545,-3.5481,-3.5639,-3.5639,-3.5639,-3.5639,-3.5639,-3.5639,-3.5639,-3.5639,-3.5639,-3.5639,-3.5639,-3.5639,-3.5639,-3.5639,-3.5639,-3.5639,-3.5639,-3.5639,-3.5639,-3.5639,-3.5639,-3.6197,-3.6688,-3.6688,-3.7009,-3.7263,-3.733,-3.7922,-3.8328,-3.8413,-3.8413,-3.8413,-3.8413,-3.8058,-3.777,-3.7381,-3.728,-3.6992,-3.6315,-3.6163,-3.596,-3.5791,-3.5639,-3.5639,-3.5639,-3.5639,-3.5757,-1.6393,-1.7404,-1.8588,-1.9943,-2.1391,-2.258,-2.3144,-2.3144,-2.3144,-2.3144,-2.3144,-2.3144,-2.3551,-2.4542,-2.5891,-2.6953,-2.7855,-2.9197,-2.9779,-2.9729,-2.9189,-2.8637,-2.8097,-2.7544,-2.6992,-2.6502,-2.6521,-2.6905,-2.7551,-2.7196,-2.7718,-2.9115,-2.9108,-2.8966,-2.8801,-2.8293,-2.8023,-2.806,-2.7874,-2.7739,-2.7625,-2.756,-2.732,-2.6856,-2.6811,-2.6572,-2.6093,-2.6048,-2.6048,-2.6063,-2.6048,-2.6048,-2.6078,-2.6527,-2.6811,-2.6871,-2.744,-2.8276,-2.9214,-3.0361,-3.1634,-3.295,-3.3658,-3.4497,-3.5369,-3.5161,-3.5052,-3.5515,-3.5639,-3.5639,-3.5639,-3.5639,-3.5639,-3.5639,-3.5639,-3.5639,-3.5639,-3.5639,-3.5639,-3.5639,-3.5639,-3.5639,-3.5639,-3.5639,-3.5639,-3.5639,-3.5639,-3.5639,-3.5639,-3.5639,-3.5639,-3.5723,-3.6146,-3.6485,-3.6552,-3.7161,-3.7584,-3.7652,-3.7652,-3.7652,-3.7618,-3.7533,-3.7195,-3.662,-3.6518,-3.6315,-3.5774,-3.5656,-3.5656,-3.5639,-3.5639,-3.5639,-3.5639,-3.5639,-3.5639,-1.592,-1.6204,-1.7404,-1.9222,-2.1391,-2.258,-2.3144,-2.3144,-2.3144,-2.3144,-2.3144,-2.3144,-2.3135,-2.3551,-2.5473,-2.6554,-2.6894,-2.8882,-2.9779,-2.9716,-2.9189,-2.8637,-2.8097,-2.7557,-2.7005,-2.6584,-2.6521,-2.6905,-2.7604,-2.767,-2.8203,-2.9258,-2.9965,-3.0028,-2.9535,-2.94,-2.937,-2.937,-2.8816,-2.8203,-2.7604,-2.756,-2.7595,-2.755,-2.747,-2.7505,-2.7305,-2.738,-2.738,-2.738,-2.735,-2.7415,-2.743,-2.7455,-2.7535,-2.7515,-2.8128,-2.9342,-3.1102,-3.2029,-3.2982,-3.4282,-3.4964,-3.5414,-3.5622,-3.5532,-3.5515,-3.5622,-3.5639,-3.5639,-3.5639,-3.5639,-3.5639,-3.5639,-3.5639,-3.5639,-3.5639,-3.5639,-3.5639,-3.5639,-3.5639,-3.5639,-3.5639,-3.5639,-3.5639,-3.5639,-3.5639,-3.5639,-3.5639,-3.5639,-3.5639,-3.5639,-3.574,-3.5774,-3.5876,-3.6383,-3.6806,-3.6874,-3.6874,-3.6874,-3.6789,-3.6383,-3.5808,-3.6062,-3.5825,-3.5757,-3.5707,-3.5639,-3.5639,-3.5639,-3.5639,-3.5639,-3.5639,-3.5639,-3.5639,-1.5825,-1.5927,-1.7131,-1.9139,-2.1302,-2.258,-2.3144,-2.3144,-2.3144,-2.3144,-2.3144,-2.3144,-2.3144,-2.3222,-2.4808,-2.5808,-2.6554,-2.8119,-2.9197,-2.9689,-2.9541,-2.8976,-2.8147,-2.7896,-2.7318,-2.6571,-2.6521,-2.6658,-2.7095,-2.7999,-2.8927,-2.9851,-3.0305,-3.0357,-3.0103,-2.9759,-2.9594,-2.9579,-2.931,-2.9026,-2.8697,-2.803,-2.756,-2.756,-2.756,-2.756,-2.756,-2.756,-2.756,-2.756,-2.756,-2.756,-2.7625,-2.7949,-2.8188,-2.8284,-2.9568,-3.0744,-3.1533,-3.2976,-3.4023,-3.4576,-3.5207,-3.5622,-3.5639,-3.5639,-3.5639,-3.5639,-3.5639,-3.5639,-3.5622,-3.5639,-3.5639,-3.5639,-3.5639,-3.5639,-3.5639,-3.5639,-3.5639,-3.5639,-3.5639,-3.5639,-3.5639,-3.5639,-3.5639,-3.5639,-3.5639,-3.5639,-3.5639,-3.5639,-3.5639,-3.5639,-3.5639,-3.5639,-3.5656,-3.5825,-3.6079,-3.6113,-3.6096,-3.6096,-3.6062,-3.591,-3.5639,-3.5639,-3.5639,-3.5639,-3.5639,-3.5639,-3.5639,-3.5605,-3.5622,-3.5639,-3.5639,-3.5639,-3.5639,-1.5825,-1.6015,-1.7225,-1.8864,-2.0845,-2.2129,-2.2765,-2.3047,-2.3144,-2.3144,-2.3144,-2.3144,-2.3144,-2.3309,-2.4286,-2.5294,-2.613,-2.7441,-2.8518,-2.9365,-2.9624,-2.9264,-2.8386,-2.816,-2.7607,-2.6791,-2.6596,-2.6521,-2.6714,-2.8182,-2.9303,-2.9925,-3.0469,-3.0776,-3.0731,-3.0328,-3.0118,-3.0103,-2.9953,-2.9834,-2.9684,-2.8712,-2.8128,-2.8128,-2.8128,-2.809,-2.7874,-2.8023,-2.8023,-2.791,-2.806,-2.818,-2.8143,-2.8592,-2.8936,-2.9229,-3.0441,-3.1512,-3.1827,-3.3259,-3.4235,-3.4592,-3.5052,-3.5316,-3.5316,-3.5316,-3.5316,-3.5299,-3.5362,-3.5362,-3.5577,-3.5639,-3.5639,-3.5639,-3.5639,-3.5639,-3.5639,-3.5639,-3.5639,-3.5639,-3.5639,-3.5639,-3.5639,-3.5639,-3.5639,-3.5639,-3.5639,-3.5639,-3.5639,-3.5639,-3.5639,-3.5639,-3.5639,-3.5639,-3.5639,-3.5673,-3.5639,-3.5639,-3.569,-3.5707,-3.5639,-3.5639,-3.5639,-3.5639,-3.5639,-3.5605,-3.5554,-3.5554,-3.5284,-3.5334,-3.5402,-3.552,-3.5639,-3.5622,-3.5622,-1.5825,-1.6015,-1.7131,-1.8411,-1.967,-2.0935,-2.2031,-2.3144,-2.3144,-2.3144,-2.3144,-2.3144,-2.3144,-2.3135,-2.4211,-2.4787,-2.5199,-2.7023,-2.8004,-2.8347,-2.9275,-2.9478,-2.8875,-2.836,-2.7795,-2.7155,-2.6747,-2.6521,-2.6645,-2.8117,-2.9002,-2.9164,-3.063,-3.1392,-3.142,-3.1345,-3.1405,-3.1255,-3.0761,-3.0462,-3.0402,-2.9834,-2.949,-2.949,-2.946,-2.9131,-2.8697,-2.9146,-2.919,-2.8577,-2.9086,-2.943,-2.946,-2.9505,-2.9774,-3.0313,-3.0533,-3.1182,-3.2307,-3.2772,-3.3287,-3.4333,-3.4576,-3.464,-3.464,-3.464,-3.4673,-3.4657,-3.4673,-3.4894,-3.5446,-3.5566,-3.5656,-3.5707,-3.5639,-3.5639,-3.5639,-3.5639,-3.5639,-3.5639,-3.5639,-3.5639,-3.5639,-3.5639,-3.5639,-3.5639,-3.5639,-3.5639,-3.5639,-3.5639,-3.5639,-3.5639,-3.5639,-3.5639,-3.5639,-3.5639,-3.5639,-3.5639,-3.5639,-3.5622,-3.5622,-3.5639,-3.5639,-3.5571,-3.547,-3.5419,-3.5436,-3.5165,-3.4692,-3.4675,-3.503,-3.5233,-3.5064,-3.5453,-3.5385,-1.5825,-1.592,-1.7131,-1.8411,-1.9579,-2.0747,-2.2031,-2.3047,-2.3144,-2.3144,-2.3144,-2.3144,-2.3144,-2.3135,-2.3551,-2.4125,-2.4882,-2.5703,-2.6685,-2.8004,-2.8505,-2.8811,-2.8825,-2.836,-2.7808,-2.7268,-2.6785,-2.6782,-2.7284,-2.792,-2.8748,-2.9766,-3.0389,-3.097,-3.1409,-3.1467,-3.1467,-3.1437,-3.127,-3.1165,-3.1135,-3.0941,-3.0821,-3.0776,-2.9998,-2.9475,-2.925,-2.946,-2.946,-2.9235,-2.9475,-2.9594,-2.9624,-2.9968,-3.0477,-3.1061,-3.1587,-3.205,-3.254,-3.2986,-3.3443,-3.3887,-3.3953,-3.3937,-3.3987,-3.4003,-3.4115,-3.4438,-3.4163,-3.4266,-3.4874,-3.5305,-3.5825,-3.6214,-3.5926,-3.5639,-3.5639,-3.5639,-3.5639,-3.5639,-3.5639,-3.5639,-3.5639,-3.5639,-3.5639,-3.5639,-3.5639,-3.5639,-3.5639,-3.5639,-3.5639,-3.5639,-3.5639,-3.5639,-3.5639,-3.5639,-3.5639,-3.5639,-3.5622,-3.5605,-3.5588,-3.5622,-3.5622,-3.4962,-3.4912,-3.4726,-3.4556,-3.432,-3.3897,-3.388,-3.4252,-3.4472,-3.4184,-3.4506,-3.4421,-1.5825,-1.592,-1.6763,-1.8041,-1.9497,-2.0395,-2.1667,-2.296,-2.3144,-2.3144,-2.3144,-2.3144,-2.3144,-2.3144,-2.3144,-2.3464,-2.4296,-2.4628,-2.5775,-2.751,-2.7924,-2.8482,-2.8975,-2.8448,-2.7908,-2.7469,-2.6861,-2.6782,-2.7297,-2.7617,-2.8312,-2.9393,-2.969,-3.0329,-3.097,-3.1087,-3.1219,-3.1409,-3.1467,-3.1467,-3.1467,-3.1467,-3.1467,-3.1362,-3.0657,-3.0103,-2.9894,-3.0088,-3.0088,-2.9939,-3.0073,-3.0208,-3.0253,-3.0597,-3.1046,-3.1465,-3.1951,-3.2231,-3.2272,-3.268,-3.3024,-3.3235,-3.3303,-3.3351,-3.3504,-3.3551,-3.3899,-3.4279,-3.4216,-3.4276,-3.536,-3.5861,-3.6008,-3.6135,-3.5773,-3.5594,-3.5639,-3.5639,-3.5639,-3.5639,-3.5639,-3.5639,-3.5639,-3.5639,-3.5639,-3.5639,-3.5639,-3.5639,-3.5639,-3.5639,-3.5639,-3.5639,-3.5639,-3.5639,-3.5639,-3.5639,-3.5605,-3.5605,-3.552,-3.5504,-3.5385,-3.5453,-3.5165,-3.4489,-3.4066,-3.3829,-3.3592,-3.3372,-3.322,-3.3102,-3.3457,-3.3812,-3.3626,-3.3508,-3.3525,-1.5825,-1.5825,-1.5825,-1.7296,-1.9222,-1.9588,-2.0953,-2.2775,-2.3057,-2.3144,-2.3144,-2.3144,-2.3144,-2.3144,-2.3144,-2.3135,-2.3387,-2.4211,-2.5378,-2.6637,-2.7522,-2.8597,-2.9576,-2.8612,-2.7996,-2.7821,-2.6942,-2.6533,-2.6658,-2.7217,-2.7736,-2.792,-2.8698,-2.9504,-3.0315,-3.0464,-3.0777,-3.1351,-3.1467,-3.1467,-3.1467,-3.1467,-3.1467,-3.1467,-3.142,-3.1106,-3.0537,-3.1091,-3.1091,-3.0657,-3.1091,-3.1422,-3.1375,-3.1377,-3.1437,-3.1452,-3.1524,-3.1524,-3.1524,-3.1625,-3.2007,-3.2545,-3.2648,-3.2943,-3.3398,-3.3506,-3.3785,-3.4342,-3.4534,-3.521,-3.6778,-3.6878,-3.6274,-3.5068,-3.5622,-3.5864,-3.5757,-3.5656,-3.5639,-3.5639,-3.5639,-3.5639,-3.5639,-3.5639,-3.5639,-3.5639,-3.5639,-3.5639,-3.5639,-3.5639,-3.5639,-3.5639,-3.5639,-3.5639,-3.5639,-3.5622,-3.5605,-3.5554,-3.5419,-3.5318,-3.4979,-3.4878,-3.4387,-3.3778,-3.3372,-3.3119,-3.2645,-3.2459,-3.2544,-3.2544,-3.2916,-3.3034,-3.2882,-3.2747,-3.2933,-1.5825,-1.5825,-1.5825,-1.6756,-1.8319,-1.9131,-2.0404,-2.1933,-2.2677,-2.3144,-2.3144,-2.3144,-2.3144,-2.3144,-2.3144,-2.3144,-2.3135,-2.3551,-2.4638,-2.6307,-2.6883,-2.8039,-2.9334,-2.8637,-2.7708,-2.7042,-2.664,-2.6521,-2.6521,-2.6769,-2.7095,-2.767,-2.792,-2.8862,-3.0194,-3.0343,-3.0718,-3.1409,-3.1467,-3.1467,-3.1467,-3.1467,-3.1467,-3.1467,-3.1467,-3.1362,-3.124,-3.142,-3.1435,-3.1195,-3.1405,-3.1467,-3.1467,-3.1467,-3.1467,-3.1467,-3.1467,-3.1467,-3.1467,-3.1482,-3.1777,-3.2355,-3.2518,-3.2851,-3.3396,-3.3501,-3.3864,-3.444,-3.4572,-3.4996,-3.549,-3.6351,-3.6885,-3.7582,-3.7405,-3.6891,-3.6383,-3.5926,-3.5673,-3.5639,-3.5639,-3.5639,-3.5639,-3.5639,-3.5639,-3.5639,-3.5639,-3.5639,-3.5639,-3.5639,-3.5639,-3.5639,-3.5639,-3.5622,-3.5605,-3.547,-3.5284,-3.5182,-3.5064,-3.4726,-3.4404,-3.4235,-3.3728,-3.3169,-3.278,-3.2357,-3.1884,-3.1732,-3.1867,-3.1799,-3.1901,-3.1935,-3.1901,-3.2036,-3.2239,-1.5825,-1.5825,-1.5825,-1.6842,-1.8319,-1.9231,-2.0494,-2.1933,-2.2775,-2.3144,-2.3144,-2.3144,-2.3144,-2.3144,-2.3144,-2.3144,-2.3144,-2.3551,-2.4723,-2.6307,-2.6483,-2.7718,-2.9397,-2.8637,-2.7532,-2.664,-2.6521,-2.6521,-2.6521,-2.6521,-2.6794,-2.7175,-2.7229,-2.8117,-2.9642,-2.9889,-3.0329,-3.1278,-3.1467,-3.1467,-3.1467,-3.1467,-3.1467,-3.1467,-3.1467,-3.1467,-3.1467,-3.1467,-3.1467,-3.1467,-3.1467,-3.1467,-3.1467,-3.1467,-3.1467,-3.1467,-3.1467,-3.1467,-3.1467,-3.1467,-3.175,-3.2362,-3.2527,-3.2946,-3.3619,-3.3858,-3.4205,-3.514,-3.5095,-3.5322,-3.6166,-3.6653,-3.7821,-3.9243,-3.843,-3.7635,-3.6857,-3.6096,-3.5673,-3.5639,-3.5639,-3.5639,-3.5639,-3.5639,-3.5639,-3.5639,-3.5639,-3.5639,-3.5639,-3.5639,-3.5639,-3.5639,-3.5639,-3.5605,-3.5588,-3.5334,-3.4979,-3.4793,-3.4607,-3.4083,-3.3592,-3.366,-3.3406,-3.2679,-3.2171,-3.185,-3.141,-3.136,-3.1393,-3.1207,-3.119,-3.1326,-3.1512,-3.1427,-3.1562,-1.5825,-1.5825,-1.5825,-1.7117,-1.9131,-1.9405,-2.0764,-2.2677,-2.3047,-2.3144,-2.3144,-2.3144,-2.3144,-2.3144,-2.3144,-2.3125,-2.3387,-2.4211,-2.5378,-2.6367,-2.6744,-2.7726,-2.9199,-2.8436,-2.7419,-2.6659,-2.6521,-2.6521,-2.6521,-2.6521,-2.6521,-2.6589,-2.6658,-2.7364,-2.8812,-2.9066,-2.9889,-3.1278,-3.1467,-3.1467,-3.1467,-3.1467,-3.1467,-3.1467,-3.1467,-3.1467,-3.1467,-3.1467,-3.1467,-3.1467,-3.1467,-3.1467,-3.1467,-3.1467,-3.1467,-3.1467,-3.1467,-3.1467,-3.1467,-3.1467,-3.1884,-3.2572,-3.2721,-3.3125,-3.4262,-3.4721,-3.509,-3.6029,-3.6012,-3.6461,-3.7751,-3.8267,-3.8701,-3.958,-3.8751,-3.7669,-3.6924,-3.6163,-3.569,-3.5639,-3.5639,-3.5639,-3.5639,-3.5639,-3.5639,-3.5639,-3.5639,-3.5639,-3.5639,-3.5639,-3.5639,-3.5622,-3.5622,-3.5402,-3.5318,-3.503,-3.4607,-3.3829,-3.3744,-3.3389,-3.2882,-3.2916,-3.2848,-3.2154,-3.1732,-3.1376,-3.119,-3.119,-3.119,-3.119,-3.119,-3.119,-3.119,-3.119,-3.119,-1.5825,-1.5825,-1.5825,-1.6756,-1.8234,-1.9039,-2.0395,-2.1854,-2.2775,-2.3144,-2.3144,-2.3144,-2.3144,-2.3144,-2.3144,-2.3551,-2.4211,-2.4628,-2.5942,-2.7371,-2.7273,-2.7543,-2.8263,-2.7858,-2.7155,-2.6609,-2.6521,-2.6521,-2.6521,-2.6521,-2.6521,-2.6521,-2.6521,-2.7364,-2.8734,-2.8989,-2.9875,-3.1278,-3.1467,-3.1467,-3.1467,-3.1467,-3.1467,-3.1467,-3.1467,-3.1467,-3.1467,-3.1467,-3.1467,-3.1467,-3.1467,-3.1467,-3.1467,-3.1467,-3.1467,-3.1467,-3.1467,-3.1467,-3.1467,-3.1467,-3.2048,-3.308,-3.3216,-3.3814,-3.51,-3.5717,-3.595,-3.6243,-3.6935,-3.7456,-3.71,-3.8302,-3.9506,-3.9784,-3.8768,-3.7821,-3.7415,-3.6451,-3.5639,-3.5639,-3.5639,-3.5639,-3.5639,-3.5639,-3.5639,-3.5639,-3.5639,-3.5639,-3.5639,-3.5639,-3.5639,-3.5622,-3.5554,-3.5233,-3.4962,-3.4692,-3.41,-3.3,-3.2713,-3.2662,-3.2256,-3.207,-3.185,-3.141,-3.1461,-3.1224,-3.119,-3.119,-3.119,-3.119,-3.119,-3.119,-3.119,-3.119,-3.119,-1.5825,-1.5825,-1.5825,-1.6842,-1.8411,-1.9231,-2.0486,-2.1943,-2.2765,-2.3144,-2.3144,-2.3144,-2.3144,-2.3144,-2.3144,-2.3464,-2.4125,-2.5136,-2.6213,-2.7163,-2.7502,-2.768,-2.7723,-2.7381,-2.6992,-2.6571,-2.6521,-2.6521,-2.6521,-2.6521,-2.6521,-2.6521,-2.6521,-2.7351,-2.8862,-2.9052,-2.9827,-3.1204,-3.1467,-3.1467,-3.1467,-3.1467,-3.1467,-3.1467,-3.1467,-3.1467,-3.1467,-3.1467,-3.1467,-3.1467,-3.1467,-3.1467,-3.1467,-3.1467,-3.1467,-3.1467,-3.1467,-3.1467,-3.1467,-3.1482,-3.2153,-3.3216,-3.3713,-3.4638,-3.5704,-3.6384,-3.6461,-3.7219,-3.744,-3.7381,-3.7863,-3.9102,-3.98,-3.9512,-3.8599,-3.7939,-3.7905,-3.6857,-3.6028,-3.5757,-3.5639,-3.5639,-3.5639,-3.5639,-3.5639,-3.5639,-3.5639,-3.5639,-3.5639,-3.5622,-3.5537,-3.5419,-3.5199,-3.481,-3.4303,-3.3964,-3.3541,-3.2493,-3.2019,-3.1952,-3.1799,-3.1512,-3.1393,-3.1258,-3.1207,-3.119,-3.119,-3.119,-3.119,-3.119,-3.119,-3.119,-3.119,-3.119,-3.119,-1.5825,-1.5825,-1.592,-1.7397,-1.9314,-1.967,-2.1042,-2.2775,-2.3047,-2.3144,-2.3144,-2.3144,-2.3144,-2.3144,-2.3144,-2.3222,-2.3464,-2.5221,-2.6091,-2.684,-2.7396,-2.7773,-2.7243,-2.7143,-2.6866,-2.6571,-2.6521,-2.6521,-2.6521,-2.6521,-2.6521,-2.6521,-2.6521,-2.7417,-2.8684,-2.8989,-2.9889,-3.1204,-3.1467,-3.1467,-3.1467,-3.1467,-3.1467,-3.1467,-3.1467,-3.1467,-3.1467,-3.1467,-3.1467,-3.1467,-3.1467,-3.1467,-3.1467,-3.1467,-3.1467,-3.1467,-3.1467,-3.1467,-3.1467,-3.1497,-3.2108,-3.3306,-3.4118,-3.5205,-3.6182,-3.6628,-3.7026,-3.7875,-3.687,-3.7646,-3.9123,-3.9952,-3.9531,-3.9057,-3.8379,-3.7956,-3.7652,-3.711,-3.6383,-3.5757,-3.5639,-3.5639,-3.5639,-3.5639,-3.5639,-3.5639,-3.5588,-3.5487,-3.5368,-3.5216,-3.5098,-3.4962,-3.4675,-3.432,-3.3744,-3.3211,-3.2679,-3.2036,-3.1647,-3.1461,-3.1461,-3.1292,-3.1241,-3.119,-3.119,-3.119,-3.119,-3.119,-3.119,-3.119,-3.119,-3.119,-3.119,-3.119,-3.119,-1.5825,-1.5825,-1.685,-1.8133,-1.9497,-2.0486,-2.1756,-2.3047,-2.3144,-2.3144,-2.3144,-2.3144,-2.3144,-2.3144,-2.3135,-2.3541,-2.42,-2.5072,-2.5612,-2.6653,-2.7593,-2.7507,-2.6841,-2.6678,-2.659,-2.6521,-2.6521,-2.6521,-2.6521,-2.6521,-2.6521,-2.6521,-2.6645,-2.7351,-2.8748,-2.9129,-2.9827,-3.1204,-3.1467,-3.1467,-3.1467,-3.1467,-3.1467,-3.1467,-3.1467,-3.1467,-3.1467,-3.1467,-3.1467,-3.1467,-3.1467,-3.1467,-3.1467,-3.1467,-3.1467,-3.1467,-3.1467,-3.1467,-3.1467,-3.1541,-3.2093,-3.3261,-3.3744,-3.4547,-3.6367,-3.6535,-3.6778,-3.7349,-3.7763,-3.8352,-3.9496,-3.8922,-3.8673,-3.8619,-3.8227,-3.7618,-3.7043,-3.6383,-3.5943,-3.5707,-3.5639,-3.5639,-3.5639,-3.5639,-3.5639,-3.5639,-3.5504,-3.5318,-3.5098,-3.4861,-3.4641,-3.4455,-3.3947,-3.3558,-3.3152,-3.2635,-3.2138,-3.1765,-3.1427,-3.1207,-3.119,-3.119,-3.119,-3.119,-3.119,-3.119,-3.119,-3.119,-3.119,-3.119,-3.119,-3.119,-3.119,-3.119,-3.119,-1.5825,-1.592,-1.7131,-1.8419,-1.9588,-2.0755,-2.2031,-2.296,-2.3144,-2.3144,-2.3144,-2.3144,-2.3144,-2.3144,-2.3135,-2.3464,-2.4063,-2.486,-2.5496,-2.632,-2.7151,-2.7256,-2.671,-2.6521,-2.6521,-2.6521,-2.6521,-2.6521,-2.6521,-2.6521,-2.6521,-2.6589,-2.685,-2.7723,-2.8939,-2.9393,-3.0269,-3.1219,-3.1467,-3.1467,-3.1467,-3.1467,-3.1467,-3.1467,-3.1467,-3.1467,-3.1467,-3.1467,-3.1467,-3.1467,-3.1467,-3.1467,-3.1467,-3.1467,-3.1467,-3.1467,-3.1467,-3.1467,-3.1467,-3.1526,-3.19,-3.2946,-3.338,-3.4329,-3.5285,-3.5723,-3.6135,-3.6512,-3.6869,-3.7245,-3.8353,-3.8405,-3.8019,-3.7795,-3.7635,-3.706,-3.6434,-3.6163,-3.5977,-3.5774,-3.5639,-3.5639,-3.5639,-3.5639,-3.5639,-3.5639,-3.5554,-3.5351,-3.4827,-3.4573,-3.4167,-3.3829,-3.3237,-3.2763,-3.2442,-3.2053,-3.1664,-3.1444,-3.1309,-3.119,-3.119,-3.119,-3.119,-3.119,-3.119,-3.119,-3.119,-3.119,-3.119,-3.119,-3.119,-3.119,-3.119,-3.119,-3.119,-1.6109,-1.6197,-1.7677,-1.8864,-1.9852,-2.1114,-2.2217,-2.3047,-2.3144,-2.3144,-2.3144,-2.3144,-2.3096,-2.3037,-2.3008,-2.3008,-2.3564,-2.4662,-2.5561,-2.5932,-2.6915,-2.6934,-2.6565,-2.6521,-2.6521,-2.6521,-2.6521,-2.6521,-2.6521,-2.6521,-2.6521,-2.6589,-2.7108,-2.7934,-2.8939,-2.9704,-3.0464,-3.1336,-3.1467,-3.1467,-3.1467,-3.1467,-3.1467,-3.1467,-3.1467,-3.1467,-3.1467,-3.1467,-3.1467,-3.1467,-3.1467,-3.1467,-3.1467,-3.1467,-3.1467,-3.1467,-3.1467,-3.1467,-3.1467,-3.1511,-3.1765,-3.2437,-3.3069,-3.3851,-3.4523,-3.4758,-3.5166,-3.5626,-3.5893,-3.5706,-3.658,-3.7235,-3.7354,-3.7009,-3.6755,-3.6282,-3.5943,-3.6231,-3.6096,-3.5808,-3.5639,-3.5639,-3.5639,-3.5639,-3.5639,-3.5588,-3.5487,-3.5216,-3.4641,-3.4049,-3.3525,-3.3,-3.2374,-3.2138,-3.1867,-3.1765,-3.136,-3.1292,-3.119,-3.119,-3.119,-3.119,-3.119,-3.119,-3.119,-3.119,-3.119,-3.119,-3.119,-3.119,-3.119,-3.119,-3.119,-3.119,-3.119,-1.7412,-1.7591,-1.9761,-2.0836,-2.1114,-2.2315,-2.2862,-2.3047,-2.3144,-2.3144,-2.3144,-2.3125,-2.292,-2.2715,-2.2617,-2.2824,-2.3432,-2.4555,-2.5329,-2.5765,-2.6658,-2.6917,-2.6622,-2.6521,-2.6521,-2.6521,-2.6521,-2.6521,-2.6521,-2.6521,-2.6521,-2.6533,-2.6726,-2.755,-2.8698,-2.9254,-3.0208,-3.1278,-3.1467,-3.1467,-3.1467,-3.1467,-3.1467,-3.1467,-3.1467,-3.1467,-3.1467,-3.1467,-3.1467,-3.1467,-3.1467,-3.1467,-3.1467,-3.1467,-3.1467,-3.1467,-3.1467,-3.1467,-3.1467,-3.1482,-3.1825,-3.2332,-3.2673,-3.3356,-3.4056,-3.4089,-3.4156,-3.4761,-3.5318,-3.5738,-3.6651,-3.6766,-3.6848,-3.662,-3.6248,-3.5825,-3.5707,-3.5757,-3.5893,-3.5673,-3.5639,-3.5622,-3.5605,-3.5504,-3.5368,-3.5148,-3.4878,-3.4421,-3.3761,-3.3119,-3.2476,-3.1968,-3.1444,-3.1376,-3.1326,-3.1343,-3.1224,-3.1241,-3.119,-3.119,-3.119,-3.119,-3.119,-3.119,-3.119,-3.119,-3.119,-3.119,-3.119,-3.119,-3.119,-3.119,-3.119,-3.119,-3.119,-1.7684,-1.7956,-2.0305,-2.1293,-2.148,-2.2589,-2.3144,-2.3144,-2.3144,-2.3144,-2.3066,-2.291,-2.2725,-2.25,-2.2256,-2.2491,-2.3319,-2.4678,-2.5245,-2.5613,-2.6313,-2.6823,-2.6546,-2.6521,-2.6521,-2.6521,-2.6521,-2.6521,-2.6521,-2.6521,-2.6521,-2.6589,-2.685,-2.7802,-2.8876,-2.9504,-3.0269,-3.1278,-3.1467,-3.1467,-3.1467,-3.1467,-3.1467,-3.1467,-3.1467,-3.1467,-3.1467,-3.1467,-3.1467,-3.1467,-3.1467,-3.1467,-3.1467,-3.1467,-3.1467,-3.1467,-3.1467,-3.1467,-3.1467,-3.1467,-3.1646,-3.1913,-3.2018,-3.2225,-3.2755,-3.2703,-3.289,-3.3543,-3.4214,-3.4737,-3.5013,-3.5497,-3.5635,-3.5693,-3.5626,-3.5628,-3.5639,-3.5639,-3.5639,-3.5639,-3.5639,-3.5605,-3.5537,-3.5368,-3.5115,-3.4759,-3.4336,-3.3694,-3.2983,-3.2442,-3.1867,-3.1546,-3.1207,-3.1207,-3.1207,-3.119,-3.119,-3.119,-3.119,-3.119,-3.119,-3.119,-3.119,-3.119,-3.119,-3.119,-3.119,-3.119,-3.119,-3.119,-3.119,-3.119,-3.119,-3.119,-3.119,-1.7764,-1.8126,-2.0283,-2.1362,-2.1734,-2.2648,-2.3086,-2.3027,-2.2998,-2.292,-2.2842,-2.2549,-2.2334,-2.2232,-2.2187,-2.2398,-2.3199,-2.4939,-2.5301,-2.5657,-2.6144,-2.6546,-2.6533,-2.6521,-2.6521,-2.6521,-2.6521,-2.6521,-2.6521,-2.6521,-2.6521,-2.6714,-2.7297,-2.8117,-2.8939,-2.9752,-3.0703,-3.1278,-3.1467,-3.1467,-3.1467,-3.1467,-3.1467,-3.1467,-3.1467,-3.1467,-3.1467,-3.1467,-3.1467,-3.1467,-3.1467,-3.1467,-3.1467,-3.1467,-3.1467,-3.1467,-3.1467,-3.1467,-3.1467,-3.1467,-3.1497,-3.1644,-3.1497,-3.1554,-3.1584,-3.1847,-3.1841,-3.2367,-3.3018,-3.3626,-3.396,-3.4284,-3.4738,-3.5055,-3.5412,-3.5639,-3.5639,-3.5639,-3.5639,-3.5639,-3.5639,-3.5453,-3.5233,-3.503,-3.4726,-3.4083,-3.3643,-3.322,-3.256,-3.2154,-3.1681,-3.141,-3.119,-3.119,-3.119,-3.119,-3.119,-3.119,-3.119,-3.119,-3.119,-3.119,-3.119,-3.119,-3.119,-3.119,-3.119,-3.119,-3.119,-3.119,-3.119,-3.119,-3.119,-3.119,-3.119,-1.7854,-1.8856,-2.0342,-2.15,-2.236,-2.2862,-2.291,-2.2598,-2.2588,-2.2363,-2.2129,-2.1973,-2.1748,-2.1629,-2.1968,-2.3046,-2.433,-2.5075,-2.5632,-2.6094,-2.6383,-2.6521,-2.6521,-2.6521,-2.6521,-2.6521,-2.6521,-2.6521,-2.6589,-2.6589,-2.6577,-2.6837,-2.7404,-2.8168,-2.9192,-2.9936,-3.0703,-3.1336,-3.1467,-3.1467,-3.1467,-3.1467,-3.1467,-3.1467,-3.1467,-3.1467,-3.1467,-3.1467,-3.1467,-3.1467,-3.1467,-3.1467,-3.1467,-3.1467,-3.1467,-3.1467,-3.1467,-3.1467,-3.1467,-3.1467,-3.1467,-3.1467,-3.1467,-3.1467,-3.1467,-3.1467,-3.1582,-3.1567,-3.2312,-3.2986,-3.3495,-3.4186,-3.4783,-3.5161,-3.5424,-3.5577,-3.5639,-3.5639,-3.5639,-3.5639,-3.5639,-3.5115,-3.4709,-3.4523,-3.4269,-3.3592,-3.2966,-3.2544,-3.2171,-3.1782,-3.1562,-3.1292,-3.119,-3.119,-3.119,-3.119,-3.119,-3.119,-3.119,-3.119,-3.119,-3.119,-3.119,-3.119,-3.119,-3.119,-3.119,-3.119,-3.119,-3.119,-3.119,-3.119,-3.119,-3.119,-3.119,-1.7422,-1.8734,-1.9945,-2.1165,-2.2094,-2.2363,-2.2324,-2.2187,-2.2158,-2.206,-2.1855,-2.1602,-2.15,-2.1778,-2.2467,-2.361,-2.4862,-2.5594,-2.6025,-2.6383,-2.6521,-2.6521,-2.6521,-2.6521,-2.6521,-2.6521,-2.6589,-2.6837,-2.685,-2.685,-2.685,-2.7802,-2.7855,-2.8427,-2.9518,-3.0072,-3.0703,-3.1278,-3.1467,-3.1467,-3.1467,-3.1467,-3.1467,-3.1467,-3.1467,-3.1467,-3.1467,-3.1467,-3.1467,-3.1467,-3.1467,-3.1467,-3.1467,-3.1467,-3.1467,-3.1467,-3.1467,-3.1467,-3.1467,-3.1467,-3.1467,-3.1467,-3.1467,-3.1467,-3.1467,-3.1467,-3.1467,-3.1524,-3.216,-3.2734,-3.3182,-3.3987,-3.4528,-3.5035,-3.5424,-3.5577,-3.5639,-3.5639,-3.5639,-3.5639,-3.5504,-3.4827,-3.4201,-3.388,-3.3525,-3.2865,-3.2307,-3.1884,-3.1647,-3.1461,-3.1309,-3.1241,-3.119,-3.119,-3.119,-3.119,-3.119,-3.119,-3.119,-3.119,-3.119,-3.119,-3.119,-3.119,-3.119,-3.119,-3.119,-3.119,-3.119,-3.119,-3.119,-3.119,-3.119,-3.119,-3.119,-1.6969,-1.8651,-1.9596,-2.0671,-2.1738,-2.1836,-2.1826,-2.1719,-2.1719,-2.165,-2.1494,-2.1281,-2.1544,-2.2327,-2.3231,-2.4108,-2.5441,-2.6176,-2.6452,-2.6521,-2.6521,-2.6521,-2.6521,-2.6521,-2.6521,-2.6521,-2.6521,-2.6905,-2.7162,-2.7108,-2.7297,-2.8939,-2.8671,-2.9129,-2.995,-3.0584,-3.1014,-3.1409,-3.1467,-3.1467,-3.1467,-3.1467,-3.1467,-3.1467,-3.1467,-3.1467,-3.1467,-3.1467,-3.1467,-3.1467,-3.1467,-3.1467,-3.1467,-3.1467,-3.1467,-3.1467,-3.1467,-3.1467,-3.1467,-3.1467,-3.1467,-3.1467,-3.1467,-3.1467,-3.1467,-3.1467,-3.1467,-3.1524,-3.1894,-3.2327,-3.2788,-3.3684,-3.4284,-3.4783,-3.5207,-3.5424,-3.5605,-3.5554,-3.5368,-3.5131,-3.4878,-3.4303,-3.3728,-3.3288,-3.2763,-3.2121,-3.163,-3.1258,-3.119,-3.1207,-3.1207,-3.119,-3.119,-3.119,-3.119,-3.119,-3.119,-3.119,-3.119,-3.119,-3.119,-3.119,-3.119,-3.119,-3.1157,-3.119,-3.119,-3.119,-3.119,-3.119,-3.119,-3.119,-3.119,-3.1173,-3.1157,-1.6968,-1.8985,-1.9435,-2.0261,-2.1309,-2.1719,-2.1641,-2.1289,-2.1279,-2.1064,-2.081,-2.079,-2.1686,-2.301,-2.3514,-2.4552,-2.6314,-2.6465,-2.6465,-2.6521,-2.6521,-2.6521,-2.6521,-2.6521,-2.6521,-2.6521,-2.6521,-2.6973,-2.7417,-2.7284,-2.7802,-2.8812,-2.9254,-2.9889,-3.0524,-3.0955,-3.1219,-3.1467,-3.1467,-3.1467,-3.1467,-3.1467,-3.1467,-3.1467,-3.1467,-3.1467,-3.1467,-3.1467,-3.1467,-3.1467,-3.1467,-3.1467,-3.1467,-3.1467,-3.1467,-3.1467,-3.1467,-3.1467,-3.1467,-3.1467,-3.1467,-3.1467,-3.1467,-3.1467,-3.1467,-3.1467,-3.1467,-3.1625,-3.2064,-3.2312,-3.2734,-3.3303,-3.4284,-3.4783,-3.5253,-3.547,-3.5571,-3.5419,-3.5182,-3.4742,-3.4269,-3.3778,-3.3271,-3.2814,-3.2341,-3.1715,-3.1546,-3.119,-3.119,-3.119,-3.119,-3.119,-3.119,-3.119,-3.119,-3.119,-3.119,-3.119,-3.119,-3.119,-3.119,-3.119,-3.1173,-3.1055,-3.1004,-3.1106,-3.1106,-3.092,-3.0869,-3.1089,-3.119,-3.119,-3.1089,-3.1004,-3.1004,-1.7577,-1.9054,-1.9846,-2.0486,-2.083,-2.1006,-2.0977,-2.084,-2.082,-2.0742,-2.0566,-2.0722,-2.168,-2.3073,-2.3599,-2.4624,-2.6314,-2.6521,-2.6521,-2.6521,-2.6521,-2.6521,-2.6521,-2.6521,-2.6521,-2.6521,-2.6521,-2.6905,-2.7604,-2.7551,-2.8684,-2.958,-2.9676,-3.0269,-3.0763,-3.1278,-3.1409,-3.1467,-3.1467,-3.1467,-3.1467,-3.1467,-3.1467,-3.1467,-3.1467,-3.1467,-3.1467,-3.1467,-3.1467,-3.1467,-3.1467,-3.1467,-3.1467,-3.1467,-3.1467,-3.1467,-3.1467,-3.1467,-3.1467,-3.1467,-3.1467,-3.1467,-3.1467,-3.1467,-3.1467,-3.1524,-3.1796,-3.2064,-3.2516,-3.2917,-3.3735,-3.4399,-3.5052,-3.5253,-3.5362,-3.5577,-3.5436,-3.525,-3.4759,-3.4218,-3.3795,-3.3355,-3.2848,-3.2381,-3.1867,-3.1393,-3.1275,-3.119,-3.119,-3.119,-3.119,-3.119,-3.119,-3.119,-3.119,-3.119,-3.119,-3.1173,-3.1157,-3.1055,-3.1004,-3.1173,-3.114,-3.0987,-3.0722,-3.0662,-3.0561,-3.0451,-3.0429,-3.0497,-3.0835,-3.119,-3.1055,-3.0857,-3.0764,-1.7968,-1.9353,-2.0187,-2.0576,-2.0576,-2.0576,-2.0576,-2.0576,-2.0586,-2.0576,-2.0634,-2.0934,-2.1897,-2.3231,-2.3963,-2.4838,-2.6164,-2.6521,-2.6521,-2.6521,-2.6521,-2.6521,-2.6521,-2.6521,-2.6521,-2.6521,-2.6521,-2.685,-2.7271,-2.7994,-2.8711,-2.9191,-2.9534,-3.0113,-3.1087,-3.1467,-3.1467,-3.1467,-3.1467,-3.1467,-3.1467,-3.1467,-3.1467,-3.1467,-3.1467,-3.1467,-3.1467,-3.1467,-3.1467,-3.1467,-3.1467,-3.1467,-3.1467,-3.1467,-3.1467,-3.1467,-3.1467,-3.1467,-3.1467,-3.1467,-3.1467,-3.1467,-3.1467,-3.1467,-3.1524,-3.1697,-3.2176,-3.2477,-3.313,-3.3836,-3.4382,-3.464,-3.4941,-3.4988,-3.5407,-3.5571,-3.5148,-3.4844,-3.4235,-3.366,-3.3237,-3.2763,-3.2273,-3.1799,-3.1647,-3.1292,-3.1241,-3.119,-3.119,-3.119,-3.119,-3.119,-3.119,-3.119,-3.119,-3.1157,-3.1123,-3.1055,-3.0987,-3.0751,-3.0734,-3.0857,-3.07,-3.0321,-3.0118,-3.0082,-3.0122,-3.0161,-2.9982,-2.979,-3.0078,-3.0336,-3.0919,-3.0702,-3.045,-1.8113,-1.9905,-2.0361,-2.0518,-2.0488,-2.0634,-2.0576,-2.0576,-2.0576,-2.0576,-2.0722,-2.1375,-2.2328,-2.3452,-2.4192,-2.5217,-2.6233,-2.6521,-2.6521,-2.6521,-2.6521,-2.6521,-2.6483,-2.6471,-2.6276,-2.6496,-2.6332,-2.6219,-2.6481,-2.7076,-2.7908,-2.8767,-2.922,-2.9988,-3.1377,-3.1452,-3.1452,-3.1437,-3.145,-3.1435,-3.1467,-3.1467,-3.1467,-3.1467,-3.1467,-3.1467,-3.1467,-3.1467,-3.1467,-3.1467,-3.1467,-3.1467,-3.1467,-3.1467,-3.1467,-3.1467,-3.1467,-3.1467,-3.1467,-3.1467,-3.1467,-3.1467,-3.1467,-3.1582,-3.1697,-3.2064,-3.2641,-3.3039,-3.3427,-3.3684,-3.3987,-3.4301,-3.4736,-3.5052,-3.5407,-3.5385,-3.4962,-3.4387,-3.3795,-3.3119,-3.256,-3.211,-3.1596,-3.1258,-3.1292,-3.1207,-3.119,-3.119,-3.119,-3.119,-3.119,-3.119,-3.119,-3.119,-3.1173,-3.1106,-3.1038,-3.097,-3.0777,-3.0496,-3.0248,-3.0167,-2.9952,-2.961,-2.9729,-2.9868,-2.9944,-2.999,-2.9636,-2.9265,-2.8985,-2.9276,-3.0022,-3.0404,-2.9989,-1.8275,-1.9512,-1.9658,-1.9717,-1.9795,-2.0332,-2.0566,-2.0576,-2.0576,-2.0566,-2.0644,-2.1011,-2.2038,-2.322,-2.3906,-2.485,-2.6183,-2.6521,-2.6521,-2.6483,-2.6445,-2.6521,-2.642,-2.6038,-2.59,-2.5787,-2.5624,-2.5448,-2.5388,-2.6288,-2.7094,-2.7917,-2.9045,-2.9933,-3.0615,-3.0851,-3.0836,-3.0836,-3.0881,-3.1031,-3.145,-3.1437,-3.1437,-3.1422,-3.1437,-3.1437,-3.1377,-3.1405,-3.1452,-3.1422,-3.1407,-3.1467,-3.1467,-3.1467,-3.1467,-3.1467,-3.1467,-3.1467,-3.1467,-3.1467,-3.1467,-3.1467,-3.1524,-3.1682,-3.2176,-3.2382,-3.2986,-3.3633,-3.3987,-3.4399,-3.4958,-3.5115,-3.5362,-3.5362,-3.5476,-3.5182,-3.4742,-3.4049,-3.3389,-3.2628,-3.1985,-3.1698,-3.1292,-3.119,-3.119,-3.119,-3.119,-3.119,-3.119,-3.119,-3.119,-3.119,-3.119,-3.119,-3.114,-3.0937,-3.07,-3.0548,-3.035,-3.0126,-2.9903,-2.9489,-2.9589,-2.9443,-2.9607,-2.972,-2.946,-2.9207,-2.9047,-2.8753,-2.8615,-2.8882,-2.9857,-2.9804,-2.9117,-1.81,-1.9082,-1.9228,-1.9277,-1.9365,-1.9893,-2.0127,-2.0127,-2.0117,-2.0127,-2.0183,-2.0466,-2.1259,-2.2339,-2.301,-2.3722,-2.5388,-2.5444,-2.5795,-2.582,-2.5887,-2.5799,-2.5674,-2.5548,-2.5372,-2.5222,-2.5046,-2.491,-2.5371,-2.6297,-2.7165,-2.8039,-2.8925,-2.9461,-2.9909,-2.9968,-3.0178,-3.0193,-3.0238,-3.0492,-3.0911,-3.112,-3.1135,-3.121,-3.127,-3.1273,-3.112,-3.118,-3.1405,-3.1258,-3.1302,-3.1422,-3.1452,-3.1467,-3.1467,-3.1467,-3.1467,-3.1467,-3.1467,-3.1467,-3.1467,-3.1467,-3.1467,-3.1739,-3.2272,-3.2625,-3.3287,-3.3937,-3.464,-3.5068,-3.547,-3.5622,-3.5537,-3.5476,-3.5165,-3.4827,-3.3914,-3.3186,-3.2797,-3.2053,-3.1664,-3.136,-3.119,-3.119,-3.119,-3.119,-3.119,-3.119,-3.119,-3.119,-3.119,-3.119,-3.119,-3.119,-3.097,-3.0598,-3.0378,-3.0142,-2.9809,-2.9436,-2.8991,-2.8493,-2.8928,-2.922,-2.9022,-2.8824,-2.8612,-2.8443,-2.8647,-2.8599,-2.8408,-2.8912,-2.9751,-2.9437,-2.8762,-1.7664,-1.854,-1.899,-1.9044,-1.9165,-1.9228,-1.9277,-1.9316,-1.9326,-1.9346,-1.9399,-2.0319,-2.0862,-2.1062,-2.1849,-2.2867,-2.3747,-2.3869,-2.4382,-2.4788,-2.5134,-2.5034,-2.4983,-2.487,-2.4795,-2.4782,-2.4619,-2.4608,-2.5673,-2.6063,-2.6905,-2.8145,-2.8791,-2.8966,-2.8966,-2.9086,-2.9385,-2.949,-2.9579,-2.9909,-3.0357,-3.0492,-3.0507,-3.0612,-3.0821,-3.0597,-3.0477,-3.0612,-3.0791,-3.0896,-3.1046,-3.133,-3.148,-3.1467,-3.1467,-3.1467,-3.1467,-3.1467,-3.1467,-3.1467,-3.1467,-3.1467,-3.1467,-3.1524,-3.2048,-3.2933,-3.3633,-3.4301,-3.4911,-3.527,-3.5622,-3.5487,-3.5334,-3.5047,-3.4675,-3.3897,-3.2848,-3.2273,-3.2002,-3.163,-3.1393,-3.119,-3.119,-3.119,-3.119,-3.119,-3.119,-3.119,-3.119,-3.119,-3.119,-3.119,-3.119,-3.119,-3.0886,-3.0434,-3.0054,-2.9819,-2.887,-2.8401,-2.7895,-2.8027,-2.8609,-2.8838,-2.8273,-2.8093,-2.8456,-2.8626,-2.8637,-2.8551,-2.8484,-2.8737,-2.9503,-2.9422,-2.9008,-1.5962,-1.6192,-1.6297,-1.6768,-1.7422,-1.8091,-1.8711,-1.9238,-1.9277,-1.9277,-1.936,-1.9568,-2.0032,-2.0825,-2.1702,-2.2502,-2.3333,-2.4054,-2.4496,-2.4718,-2.4644,-2.477,-2.4669,-2.4418,-2.428,-2.4092,-2.3916,-2.3925,-2.421,-2.4949,-2.646,-2.7713,-2.8218,-2.8083,-2.8083,-2.812,-2.8472,-2.8771,-2.8876,-2.928,-2.9669,-2.9849,-2.9849,-2.9968,-3.0148,-2.9879,-2.9804,-2.9939,-3.0058,-3.0043,-3.0462,-3.0776,-3.0806,-3.1225,-3.1467,-3.1467,-3.1467,-3.1467,-3.1467,-3.1467,-3.1437,-3.1465,-3.1465,-3.2185,-3.2772,-3.336,-3.3971,-3.4496,-3.5068,-3.5487,-3.5554,-3.5402,-3.5064,-3.459,-3.4167,-3.3406,-3.2459,-3.2002,-3.1715,-3.1444,-3.119,-3.119,-3.119,-3.119,-3.119,-3.119,-3.119,-3.119,-3.119,-3.119,-3.119,-3.119,-3.1157,-3.1179,-3.0688,-3.02,-2.9841,-2.9402,-2.8539,-2.8115,-2.8463,-2.8645,-2.8766,-2.8711,-2.847,-2.8562,-2.8858,-2.8887,-2.8797,-2.8863,-2.8834,-2.8961,-2.9083,-2.9069,-2.9072,-1.5446,-1.572,-1.5728,-1.6289,-1.7139,-1.7794,-1.834,-1.874,-1.8779,-1.8789,-1.8789,-1.876,-1.9123,-1.9563,-2.0144,-2.095,-2.2224,-2.258,-2.3183,-2.3979,-2.4217,-2.4092,-2.3966,-2.3879,-2.3703,-2.3502,-2.3437,-2.3444,-2.3813,-2.505,-2.6563,-2.7503,-2.756,-2.756,-2.7619,-2.7709,-2.7829,-2.8068,-2.8293,-2.8622,-2.8936,-2.919,-2.919,-2.9235,-2.9355,-2.931,-2.8981,-2.9146,-2.943,-2.9355,-2.9804,-3.0133,-3.0253,-3.0731,-3.1091,-3.112,-3.1362,-3.127,-3.118,-3.1405,-3.133,-3.121,-3.1135,-3.1827,-3.2688,-3.3358,-3.389,-3.4447,-3.5115,-3.5605,-3.5487,-3.5284,-3.4709,-3.4134,-3.3592,-3.3051,-3.2476,-3.1935,-3.1596,-3.1292,-3.119,-3.119,-3.119,-3.119,-3.119,-3.119,-3.119,-3.119,-3.119,-3.119,-3.119,-3.119,-3.1162,-3.1094,-3.0556,-3.006,-2.9713,-2.9242,-2.8474,-2.8311,-2.8874,-2.8838,-2.8551,-2.8673,-2.8869,-2.8925,-2.8952,-2.8975,-2.8952,-2.8975,-2.8975,-2.9025,-2.9015,-2.8985,-2.9004,-1.5503,-1.6365,-1.6558,-1.7001,-1.7862,-1.794,-1.8037,-1.8008,-1.8086,-1.8027,-1.8066,-1.8037,-1.8105,-1.8468,-1.8798,-1.9544,-2.0631,-2.1289,-2.2214,-2.3042,-2.3315,-2.3353,-2.3364,-2.315,-2.3288,-2.3201,-2.3245,-2.3531,-2.4553,-2.5508,-2.6481,-2.7509,-2.756,-2.756,-2.756,-2.756,-2.7649,-2.7709,-2.7814,-2.8008,-2.8353,-2.8517,-2.8532,-2.8622,-2.8801,-2.8906,-2.8293,-2.8472,-2.916,-2.8951,-2.9071,-2.9475,-2.9849,-3.0103,-3.0372,-3.0537,-3.0851,-3.0776,-3.0672,-3.0821,-3.0776,-3.0612,-3.0488,-3.1006,-3.1768,-3.2666,-3.3177,-3.3917,-3.4516,-3.48,-3.4742,-3.4523,-3.4066,-3.3508,-3.2966,-3.2408,-3.185,-3.1512,-3.141,-3.119,-3.119,-3.119,-3.119,-3.119,-3.119,-3.119,-3.119,-3.119,-3.119,-3.119,-3.123,-3.123,-3.1162,-3.1036,-3.0489,-2.9968,-2.957,-2.9057,-2.8505,-2.8558,-2.9142,-2.8792,-2.8165,-2.8536,-2.8943,-2.8912,-2.8887,-2.8952,-2.8975,-2.8975,-2.8975,-2.8975,-2.8975,-2.8952,-2.8952,-1.3966,-1.5111,-1.6156,-1.6775,-1.707,-1.7716,-1.7998,-1.8008,-1.8008,-1.8008,-1.8008,-1.8008,-1.8008,-1.8076,-1.8529,-1.9233,-1.9748,-2.0846,-2.1678,-2.2445,-2.2823,-2.3078,-2.3125,-2.3125,-2.3125,-2.3125,-2.3305,-2.3813,-2.4951,-2.5673,-2.6375,-2.7458,-2.756,-2.756,-2.756,-2.756,-2.756,-2.756,-2.7604,-2.7649,-2.7859,-2.7844,-2.7829,-2.7874,-2.8023,-2.8083,-2.7724,-2.7814,-2.8023,-2.7934,-2.8487,-2.9026,-2.9564,-2.9714,-2.9789,-2.9834,-3.0028,-3.0028,-2.9983,-3.0058,-3.0043,-2.9939,-2.9843,-3.0006,-3.0486,-3.1439,-3.2336,-3.3148,-3.3694,-3.3859,-3.3981,-3.3744,-3.344,-3.2899,-3.2374,-3.1799,-3.1241,-3.1224,-3.119,-3.119,-3.119,-3.119,-3.119,-3.119,-3.119,-3.119,-3.119,-3.119,-3.119,-3.119,-3.1252,-3.1252,-3.1179,-3.0934,-3.0375,-2.9937,-2.9576,-2.9479,-2.915,-2.926,-2.9432,-2.9007,-2.8533,-2.8725,-2.8947,-2.8929,-2.891,-2.8952,-2.8975,-2.8975,-2.8975,-2.8975,-2.8975,-2.8975,-2.8975,-1.3149,-1.3938,-1.5475,-1.6422,-1.6994,-1.7523,-1.7832,-1.7988,-1.8008,-1.8008,-1.8008,-1.8008,-1.8008,-1.8008,-1.8529,-1.9365,-1.9814,-2.0794,-2.1803,-2.2433,-2.2763,-2.3005,-2.3125,-2.3125,-2.3125,-2.3125,-2.3603,-2.4279,-2.5287,-2.5906,-2.6616,-2.7458,-2.756,-2.756,-2.756,-2.756,-2.756,-2.756,-2.756,-2.756,-2.756,-2.756,-2.756,-2.756,-2.756,-2.756,-2.756,-2.756,-2.7575,-2.7619,-2.7993,-2.8188,-2.8622,-2.8936,-2.9116,-2.925,-2.9385,-2.946,-2.931,-2.9364,-2.9394,-2.9342,-2.9538,-2.9715,-3.0217,-3.1085,-3.1418,-3.2175,-3.289,-3.3151,-3.3389,-3.3271,-3.2933,-3.2476,-3.1968,-3.1444,-3.1224,-3.1207,-3.119,-3.119,-3.119,-3.119,-3.119,-3.119,-3.119,-3.119,-3.119,-3.119,-3.119,-3.1257,-3.1295,-3.1223,-3.1107,-3.0812,-3.0299,-2.9888,-2.9561,-2.9565,-2.962,-2.9414,-2.9278,-2.913,-2.8975,-2.8975,-2.8975,-2.8975,-2.8975,-2.8975,-2.8975,-2.8975,-2.8975,-2.8975,-2.8975,-2.8975,-2.8975,-1.2795,-1.3365,-1.4997,-1.6271,-1.72,-1.7305,-1.749,-1.7773,-1.7822,-1.7812,-1.7793,-1.7852,-1.7939,-1.8008,-1.8076,-1.9177,-2.0074,-2.059,-2.1604,-2.2494,-2.2957,-2.3078,-2.3125,-2.3125,-2.3125,-2.3245,-2.3662,-2.4439,-2.5398,-2.5892,-2.6443,-2.7342,-2.756,-2.756,-2.756,-2.756,-2.756,-2.756,-2.756,-2.756,-2.756,-2.756,-2.756,-2.756,-2.756,-2.756,-2.756,-2.756,-2.756,-2.759,-2.77,-2.779,-2.794,-2.8233,-2.8382,-2.8562,-2.8786,-2.8757,-2.8734,-2.8974,-2.8951,-2.8919,-2.9273,-2.964,-3.0144,-3.0438,-3.0781,-3.1279,-3.1989,-3.2397,-3.2631,-3.2662,-3.2324,-3.2087,-3.1579,-3.1241,-3.1207,-3.119,-3.119,-3.119,-3.119,-3.119,-3.119,-3.119,-3.119,-3.119,-3.119,-3.119,-3.1196,-3.1325,-3.1387,-3.1181,-3.0959,-3.0569,-3.0166,-2.9816,-2.9503,-2.9547,-2.9559,-2.9314,-2.9122,-2.9085,-2.9049,-2.8975,-2.8975,-2.8975,-2.8975,-2.8975,-2.8975,-2.8975,-2.8975,-2.8975,-2.8975,-2.8975,-2.8975,-1.3003,-1.463,-1.5923,-1.6641,-1.6846,-1.6855,-1.6904,-1.6963,-1.7002,-1.6982,-1.7119,-1.7412,-1.7666,-1.7998,-1.8008,-1.8787,-1.989,-2.0333,-2.1101,-2.2002,-2.2823,-2.3078,-2.3125,-2.3125,-2.3125,-2.3245,-2.3531,-2.4163,-2.5119,-2.5563,-2.6269,-2.7458,-2.756,-2.756,-2.756,-2.756,-2.756,-2.756,-2.756,-2.756,-2.756,-2.756,-2.756,-2.756,-2.756,-2.756,-2.756,-2.756,-2.756,-2.756,-2.756,-2.756,-2.7634,-2.7739,-2.7859,-2.7964,-2.8188,-2.8098,-2.8201,-2.845,-2.8445,-2.8682,-2.906,-2.9513,-2.9814,-2.9903,-3.0266,-3.0672,-3.1266,-3.1532,-3.1732,-3.1732,-3.1512,-3.1512,-3.1224,-3.1207,-3.119,-3.119,-3.119,-3.119,-3.119,-3.119,-3.119,-3.119,-3.119,-3.123,-3.1252,-3.1274,-3.1108,-3.1285,-3.142,-3.1097,-3.0779,-3.0543,-3.0242,-2.9758,-2.9475,-2.9541,-2.9575,-2.9423,-2.9287,-2.9195,-2.914,-2.9012,-2.8975,-2.8975,-2.8975,-2.8975,-2.8975,-2.8975,-2.8975,-2.8975,-2.8975,-2.8975,-2.8975]}]]